[[{"header":{"parameterUnit":"m.s-1","parameterCategory":1,"la1":31.0,"la2":29.5877,"lo1":-88.7671,"lo2":-86.6584,"dy":0.0162,"dx":0.0185,"nx":115,"ny":88,"refTime":"2023-04-08T00:00:00:Z","depth":0,"parameterNumber":2,"parameterNumberName":"U-component_of_WINDS"},"data":[0.0,0.0,0.0,0.0,0.0,0.0,0.0,0.0,0.0,0.0,0.0,0.0,0.0,0.0,0.0,0.0,0.0,0.0,0.0,0.0,0.0,0.0,0.0,0.0,0.0,0.0,0.0,0.0,0.0,0.0,0.0,0.0,0.0,0.0,0.0,0.0,0.0,0.0,0.0,0.0,0.0,0.0,0.0,0.0,0.0,0.0,0.0,0.0,0.0,0.0,0.0,0.0,0.0,0.0,0.0,0.0,0.0,0.0,0.0,0.0,0.0,0.0,0.0,0.0,0.0,0.0,0.0,0.0,0.0,0.0,0.0,0.0,0.0,0.0,0.0,0.0,0.0,0.0,0.0,0.0,0.0,0.0,0.0,0.0,0.0,0.0,0.0,0.0,0.0,0.0,0.0,0.0,0.0,0.0,0.0,0.0,0.0,0.0,0.0,0.0,0.0,0.0,0.0,0.0,0.0,0.0,0.0,0.0,0.0,0.0,0.0,0.0,0.0,0.0,0.0,0.0,0.0,0.0,0.0,0.0,0.0,0.0,0.0,0.0,0.0,0.0,0.0,0.0,0.0,0.0,0.0,0.0,0.0,0.0,0.0,0.0,0.0,0.0,0.0,0.0,0.0,0.0,0.0,0.0,0.0,0.0,0.0,0.0,0.0,0.0,0.0,0.0,0.0,0.0,0.0,0.0,0.0,0.0,0.0,0.0,0.0,0.0,0.0,0.0,0.0,0.0,0.0,0.0,0.0,0.0,0.0,0.0,0.0,0.0,0.0,0.0,0.0,0.0,0.0,0.0,0.0,0.0,0.0,0.0,0.0,0.0,0.0,0.0,0.0,0.0,0.0,0.0,0.0,0.0,0.0,0.0,0.0,0.0,0.0,0.0,0.0,0.0,0.0,0.0,0.0,0.0,0.0,0.0,0.0,0.0,0.0,0.0,0.0,0.0,0.0,0.0,0.0,0.0,0.0,0.0,0.0,0.0,0.0,0.0,0.0,0.0,0.0,0.0,0.0,0.0,0.0,0.0,0.0,0.0,0.0,0.0,0.0,0.0,0.0,0.0,0.0,0.0,0.0,0.0,0.0,0.0,0.0,0.0,0.0,0.0,0.0,0.0,0.0,0.0,0.0,0.0,0.0,0.0,0.0,0.0,0.0,0.0,0.0,0.0,0.0,0.0,0.0,0.0,0.0,0.0,0.0,0.0,0.0,0.0,0.0,0.0,0.0,0.0,0.0,0.0,0.0,0.0,0.0,0.0,0.0,0.0,0.0,0.0,0.0,0.0,0.0,0.0,0.0,0.0,0.0,0.0,0.0,0.0,0.0,0.0,0.0,0.0,0.0,0.0,0.0,0.0,0.0,0.0,0.0,0.0,0.0,0.0,0.0,0.0,0.0,0.0,0.0,0.0,0.0,0.0,0.0,0.0,0.0,0.0,0.0,0.0,0.0,0.0,0.0,0.0,0.0,0.0,0.0,0.0,0.0,0.0,0.0,0.0,0.0,0.0,0.0,0.0,0.0,0.0,0.0,0.0,0.0,0.0,0.0,0.0,0.0,0.0,0.0,0.0,0.0,0.0,0.0,0.0,0.0,0.0,0.0,0.0,0.0,0.0,0.0,0.0,0.0,0.0,0.0,0.0,0.0,0.0,0.0,0.0,0.0,0.0,0.0,0.0,0.0,0.0,0.0,0.0,0.0,0.0,0.0,0.0,0.0,0.0,0.0,0.0,0.0,0.0,0.0,0.0,0.0,0.0,0.0,0.0,0.0,0.0,0.0,0.0,0.0,0.0,0.0,0.0,0.0,0.0,0.0,0.0,0.0,0.0,0.0,0.0,0.0,0.0,0.0,0.0,0.0,0.0,0.0,0.0,0.0,0.0,0.0,0.0,0.0,0.0,0.0,0.0,0.0,0.0,0.0,0.0,0.0,0.0,0.0,0.0,0.0,0.0,0.0,0.0,0.0,0.0,0.0,0.0,0.0,0.0,0.0,0.0,0.0,0.0,0.0,0.0,0.0,0.0,0.0,0.0,0.0,0.0,0.0,0.0,0.0,0.0,0.0,0.0,0.0,0.0,0.0,0.0,0.0,0.0,0.0,0.0,0.0,0.0,0.0,0.0,0.0,0.0,0.0,0.0,0.0,0.0,0.0,0.0,0.0,0.0,0.0,0.0,0.0,0.0,0.0,0.0,0.0,0.0,0.0,0.0,0.0,0.0,0.0,0.0,0.0,0.0,0.0,0.0,0.0,0.0,0.0,0.0,0.0,0.0,0.0,0.0,0.0,0.0,0.0,0.0,0.0,0.0,0.0,0.0,0.0,0.0,0.0,0.0,0.0,0.0,0.0,0.0,0.0,0.0,0.0,0.0,0.0,0.0,0.0,0.0,0.0,0.0,0.0,0.0,0.0,0.0,0.0,0.0,0.0,0.0,0.0,0.0,0.0,0.0,0.0,0.0,0.0,0.0,0.0,0.0,0.0,0.0,0.0,0.0,0.0,0.0,0.0,0.0,0.0,0.0,0.0,0.0,0.0,0.0,0.0,0.0,0.0,0.0,0.0,0.0,0.0,0.0,0.0,0.0,0.0,0.0,0.0,0.0,0.0,0.0,0.0,0.0,0.0,0.0,0.0,0.0,0.0,0.0,0.0,0.0,0.0,0.0,0.0,0.0,0.0,0.0,0.0,0.0,0.0,0.0,0.0,0.0,0.0,0.0,0.0,0.0,0.0,0.0,0.0,0.0,0.0,0.0,0.0,0.0,0.0,0.0,0.0,0.0,0.0,0.0,0.0,0.0,0.0,0.0,0.0,0.0,0.0,0.0,0.0,0.0,0.0,0.0,0.0,0.0,0.0,0.0,0.0,0.0,0.0,0.0,0.0,0.0,0.0,0.0,0.0,0.0,0.0,0.0,0.0,0.0,0.0,0.0,0.0,0.0,0.0,0.0,0.0,0.0,0.0,0.0,0.0,0.0,0.0,0.0,0.0,0.0,0.0,0.0,0.0,0.0,0.0,0.0,0.0,0.0,0.0,0.0,0.0,0.0,0.0,0.0,0.0,0.0,0.0,0.0,0.0,0.0,0.0,0.0,0.0,0.0,0.0,0.0,0.0,0.0,0.0,0.0,0.0,0.0,0.0,0.0,0.0,0.0,0.0,0.0,0.0,0.0,0.0,0.0,0.0,0.0,0.0,0.0,0.0,0.0,0.0,0.0,0.0,0.0,0.0,0.0,0.0,0.0,0.0,0.0,0.0,0.0,0.0,0.0,0.0,0.0,0.0,0.0,0.0,0.0,0.0,0.0,0.0,0.0,0.0,0.0,0.0,0.0,0.0,0.0,0.0,0.0,0.0,0.0,0.0,0.0,0.0,0.0,0.0,0.0,0.0,0.0,0.0,0.0,0.0,0.0,0.0,0.0,0.0,0.0,0.0,0.0,0.0,0.0,0.0,0.0,0.0,0.0,0.0,0.0,0.0,0.0,0.0,0.0,0.0,0.0,0.0,0.0,0.0,0.0,0.0,0.0,0.0,0.0,0.0,0.0,0.0,0.0,0.0,0.0,0.0,0.0,0.0,0.0,0.0,0.0,0.0,0.0,0.0,0.0,0.0,0.0,0.0,0.0,0.0,0.0,0.0,0.0,0.0,0.0,0.0,0.0,0.0,0.0,0.0,0.0,0.0,0.0,0.0,0.0,0.0,0.0,0.0,0.0,0.0,0.0,0.0,0.0,0.0,0.0,0.0,0.0,0.0,0.0,0.0,0.0,0.0,0.0,0.0,0.0,0.0,0.0,0.0,0.0,0.0,0.0,0.0,0.0,0.0,0.0,0.0,0.0,0.0,0.0,0.0,0.0,0.0,0.0,0.0,0.0,0.0,0.0,0.0,0.0,0.0,0.0,0.0,0.0,0.0,0.0,0.0,0.0,0.0,0.0,0.0,0.0,0.0,0.0,0.0,0.0,0.0,0.0,0.0,0.0,0.0,0.0,0.0,0.0,0.0,0.0,0.0,0.0,0.0,0.0,0.0,0.0,0.0,0.0,0.0,0.0,0.0,0.0,0.0,0.0,0.0,0.0,0.0,0.0,0.0,0.0,0.0,0.0,0.0,0.0,0.0,0.0,0.0,0.0,0.0,0.0,0.0,0.0,0.0,0.0,0.0,0.0,0.0,0.0,0.0,0.0,0.0,0.0,0.0,0.0,0.0,0.0,0.0,0.0,0.0,0.0,0.0,0.0,0.0,0.0,0.0,0.0,0.0,0.0,0.0,0.0,0.0,0.0,0.0,0.0,3.3418,0.0,0.0,0.0,0.0,0.0,0.0,0.0,0.0,0.0,0.0,0.0,0.0,0.0,0.0,0.0,0.0,0.0,0.0,0.0,0.0,0.0,0.0,0.0,0.0,0.0,0.0,0.0,0.0,0.0,0.0,0.0,0.0,0.0,0.0,0.0,0.0,0.0,0.0,0.0,0.0,0.0,0.0,0.0,0.0,0.0,0.0,0.0,0.0,0.0,0.0,0.0,0.0,0.0,0.0,0.0,0.0,0.0,0.0,0.0,0.0,0.0,0.0,0.0,0.0,0.0,0.0,0.0,0.0,0.0,0.0,0.0,0.0,0.0,0.0,0.0,0.0,0.0,0.0,0.0,0.0,0.0,0.0,0.0,0.0,0.0,0.0,0.0,0.0,0.0,0.0,0.0,0.0,0.0,0.0,0.0,0.0,0.0,0.0,0.0,0.0,0.0,0.0,0.0,0.0,0.0,0.0,0.0,0.0,0.0,0.0,3.6279,3.5448,3.4766,3.4173,3.3702,0.0,0.0,0.0,0.0,0.0,0.0,0.0,0.0,0.0,0.0,0.0,0.0,0.0,0.0,0.0,0.0,0.0,0.0,0.0,0.0,0.0,0.0,0.0,0.0,0.0,0.0,0.0,0.0,0.0,0.0,0.0,0.0,0.0,0.0,0.0,0.0,0.0,0.0,0.0,0.0,0.0,0.0,0.0,0.0,0.0,0.0,0.0,0.0,0.0,0.0,0.0,0.0,0.0,0.0,0.0,0.0,0.0,0.0,0.0,0.0,0.0,0.0,0.0,0.0,0.0,0.0,0.0,0.0,0.0,0.0,0.0,0.0,0.0,0.0,0.0,0.0,0.0,0.0,0.0,0.0,0.0,0.0,0.0,0.0,0.0,0.0,0.0,0.0,0.0,0.0,0.0,0.0,0.0,0.0,0.0,0.0,0.0,0.0,0.0,0.0,0.0,0.0,0.0,0.0,0.0,0.0,0.0,0.0,0.0,0.0,0.0,0.0,3.4922,3.4204,3.3796,0.0,0.0,0.0,0.0,0.0,0.0,0.0,0.0,0.0,0.0,0.0,0.0,0.0,0.0,0.0,0.0,0.0,0.0,0.0,0.0,0.0,0.0,0.0,0.0,0.0,0.0,0.0,0.0,0.0,0.0,0.0,0.0,0.0,0.0,0.0,0.0,0.0,0.0,0.0,0.0,0.0,0.0,0.0,0.0,0.0,0.0,0.0,0.0,0.0,0.0,0.0,0.0,0.0,0.0,0.0,0.0,0.0,0.0,0.0,0.0,0.0,0.0,0.0,0.0,0.0,0.0,0.0,0.0,0.0,0.0,0.0,0.0,0.0,0.0,0.0,0.0,0.0,0.0,0.0,0.0,0.0,0.0,0.0,0.0,0.0,0.0,0.0,0.0,0.0,0.0,0.0,0.0,0.0,0.0,0.0,0.0,0.0,0.0,0.0,0.0,0.0,0.0,0.0,0.0,0.0,0.0,0.0,0.0,0.0,0.0,3.6585,3.5911,3.4922,0.0,3.3481,0.0,0.0,0.0,0.0,0.0,0.0,0.0,0.0,0.0,0.0,0.0,0.0,0.0,0.0,0.0,0.0,0.0,0.0,0.0,0.0,0.0,0.0,0.0,0.0,0.0,0.0,0.0,0.0,0.0,0.0,0.0,0.0,0.0,0.0,0.0,0.0,0.0,0.0,0.0,0.0,0.0,0.0,0.0,0.0,0.0,0.0,0.0,0.0,0.0,0.0,0.0,0.0,0.0,0.0,0.0,0.0,0.0,0.0,0.0,0.0,0.0,0.0,0.0,0.0,0.0,0.0,0.0,0.0,0.0,0.0,0.0,0.0,0.0,0.0,0.0,0.0,0.0,0.0,0.0,0.0,0.0,0.0,0.0,0.0,0.0,0.0,0.0,0.0,0.0,0.0,0.0,0.0,0.0,0.0,0.0,0.0,0.0,0.0,0.0,0.0,0.0,0.0,0.0,0.0,0.0,0.0,0.0,0.0,0.0,0.0,3.7071,3.6239,3.5015,3.4079,0.0,0.0,0.0,0.0,0.0,0.0,0.0,0.0,0.0,0.0,0.0,0.0,0.0,0.0,0.0,0.0,0.0,0.0,0.0,0.0,0.0,0.0,0.0,0.0,0.0,0.0,0.0,0.0,0.0,0.0,0.0,0.0,0.0,0.0,0.0,0.0,0.0,0.0,0.0,0.0,0.0,0.0,0.0,0.0,0.0,0.0,0.0,0.0,0.0,0.0,0.0,0.0,0.0,0.0,0.0,0.0,0.0,0.0,0.0,0.0,0.0,0.0,0.0,0.0,0.0,0.0,0.0,0.0,0.0,0.0,0.0,0.0,0.0,0.0,0.0,0.0,0.0,0.0,0.0,0.0,0.0,0.0,0.0,0.0,0.0,0.0,0.0,0.0,0.0,0.0,0.0,0.0,0.0,0.0,0.0,0.0,0.0,0.0,0.0,0.0,0.0,0.0,0.0,0.0,0.0,0.0,0.0,0.0,0.0,0.0,3.8335,3.7374,3.6034,3.4953,3.4079,3.3418,0.0,0.0,0.0,0.0,0.0,0.0,0.0,0.0,0.0,0.0,0.0,0.0,0.0,0.0,0.0,0.0,0.0,0.0,0.0,0.0,0.0,0.0,0.0,0.0,0.0,0.0,0.0,0.0,0.0,0.0,0.0,0.0,0.0,0.0,0.0,0.0,0.0,0.0,0.0,0.0,0.0,0.0,0.0,0.0,0.0,0.0,0.0,0.0,0.0,0.0,0.0,0.0,0.0,0.0,0.0,0.0,0.0,0.0,0.0,0.0,0.0,0.0,0.0,0.0,0.0,0.0,0.0,0.0,0.0,0.0,0.0,0.0,0.0,0.0,0.0,0.0,0.0,0.0,0.0,0.0,0.0,0.0,0.0,0.0,0.0,0.0,0.0,0.0,0.0,0.0,0.0,0.0,0.0,0.0,0.0,0.0,0.0,0.0,0.0,0.0,0.0,0.0,0.0,0.0,0.0,0.0,0.0,0.0,3.9338,3.8611,3.7231,3.5077,3.461,3.4079,0.0,0.0,0.0,0.0,0.0,0.0,0.0,0.0,0.0,0.0,0.0,0.0,0.0,0.0,0.0,0.0,0.0,0.0,0.0,0.0,0.0,0.0,0.0,0.0,0.0,0.0,0.0,0.0,0.0,0.0,0.0,0.0,0.0,0.0,0.0,0.0,0.0,0.0,0.0,0.0,0.0,0.0,0.0,0.0,0.0,0.0,0.0,0.0,0.0,0.0,0.0,0.0,0.0,0.0,0.0,0.0,0.0,0.0,0.0,0.0,0.0,0.0,0.0,0.0,0.0,0.0,0.0,0.0,0.0,0.0,0.0,0.0,0.0,0.0,0.0,0.0,0.0,0.0,0.0,0.0,0.0,0.0,0.0,0.0,0.0,0.0,0.0,0.0,0.0,0.0,0.0,0.0,0.0,0.0,0.0,0.0,0.0,0.0,0.0,0.0,0.0,0.0,0.0,0.0,0.0,0.0,0.0,0.0,0.0,3.9873,3.8253,3.6807,3.5572,3.4797,3.4173,0.0,0.0,0.0,0.0,0.0,0.0,0.0,0.0,0.0,0.0,0.0,0.0,0.0,0.0,0.0,0.0,0.0,0.0,0.0,0.0,0.0,0.0,0.0,0.0,0.0,0.0,0.0,0.0,0.0,0.0,0.0,0.0,0.0,0.0,0.0,0.0,0.0,0.0,0.0,0.0,0.0,0.0,0.0,0.0,0.0,0.0,0.0,0.0,0.0,0.0,0.0,0.0,0.0,0.0,0.0,0.0,0.0,0.0,0.0,0.0,0.0,0.0,0.0,0.0,0.0,0.0,0.0,0.0,0.0,0.0,0.0,0.0,0.0,0.0,0.0,0.0,0.0,0.0,0.0,0.0,0.0,0.0,0.0,0.0,0.0,0.0,0.0,0.0,0.0,0.0,0.0,0.0,0.0,0.0,0.0,0.0,0.0,0.0,0.0,0.0,0.0,0.0,0.0,0.0,0.0,0.0,0.0,0.0,0.0,4.0077,0.0,3.708,3.6248,3.5356,3.4641,0.0,0.0,0.0,0.0,0.0,0.0,0.0,0.0,0.0,0.0,0.0,0.0,0.0,0.0,0.0,0.0,0.0,0.0,0.0,0.0,0.0,0.0,0.0,0.0,0.0,0.0,0.0,0.0,0.0,0.0,0.0,0.0,0.0,0.0,0.0,0.0,0.0,0.0,0.0,0.0,0.0,0.0,0.0,0.0,0.0,0.0,0.0,0.0,0.0,0.0,0.0,0.0,0.0,0.0,0.0,0.0,0.0,0.0,0.0,0.0,0.0,0.0,0.0,0.0,0.0,0.0,0.0,0.0,0.0,0.0,0.0,0.0,0.0,0.0,0.0,0.0,0.0,0.0,0.0,0.0,0.0,0.0,0.0,0.0,0.0,0.0,0.0,0.0,0.0,0.0,0.0,0.0,0.0,0.0,0.0,0.0,0.0,0.0,0.0,0.0,0.0,0.0,0.0,0.0,0.0,0.0,0.0,0.0,4.1344,3.9873,3.9137,3.8164,3.695,3.6248,3.5418,0.0,0.0,0.0,0.0,0.0,0.0,0.0,0.0,0.0,0.0,0.0,0.0,0.0,0.0,0.0,0.0,0.0,0.0,0.0,0.0,0.0,0.0,0.0,0.0,0.0,0.0,0.0,0.0,0.0,0.0,0.0,0.0,0.0,0.0,0.0,0.0,0.0,0.0,0.0,0.0,0.0,0.0,0.0,0.0,0.0,0.0,0.0,0.0,0.0,0.0,0.0,0.0,0.0,0.0,0.0,0.0,0.0,0.0,0.0,0.0,0.0,0.0,0.0,0.0,0.0,0.0,0.0,0.0,0.0,0.0,0.0,0.0,0.0,0.0,0.0,0.0,0.0,0.0,0.0,0.0,0.0,0.0,0.0,0.0,0.0,0.0,0.0,0.0,0.0,0.0,0.0,0.0,0.0,0.0,0.0,0.0,0.0,0.0,0.0,0.0,0.0,0.0,0.0,0.0,0.0,0.0,0.0,0.0,0.0,4.0106,3.9462,3.8752,3.7894,3.6807,3.588,0.0,0.0,0.0,0.0,0.0,0.0,0.0,0.0,0.0,0.0,0.0,0.0,0.0,0.0,0.0,0.0,0.0,0.0,0.0,0.0,0.0,0.0,0.0,0.0,0.0,0.0,0.0,0.0,0.0,0.0,0.0,0.0,0.0,0.0,0.0,0.0,0.0,0.0,0.0,0.0,0.0,0.0,0.0,0.0,0.0,0.0,0.0,0.0,0.0,0.0,0.0,0.0,0.0,0.0,0.0,0.0,0.0,0.0,0.0,0.0,0.0,0.0,0.0,0.0,0.0,0.0,0.0,0.0,0.0,0.0,0.0,0.0,0.0,0.0,0.0,0.0,0.0,0.0,0.0,0.0,0.0,0.0,0.0,0.0,0.0,0.0,0.0,0.0,0.0,0.0,0.0,0.0,0.0,0.0,0.0,0.0,0.0,0.0,0.0,0.0,0.0,0.0,0.0,0.0,0.0,0.0,0.0,0.0,0.0,4.0595,4.0281,3.9755,3.8878,3.7864,3.6776,3.5613,0.0,0.0,0.0,0.0,0.0,0.0,0.0,0.0,0.0,0.0,0.0,0.0,0.0,0.0,0.0,0.0,0.0,0.0,0.0,0.0,0.0,0.0,0.0,0.0,0.0,0.0,0.0,0.0,0.0,0.0,0.0,0.0,0.0,0.0,0.0,0.0,0.0,0.0,0.0,0.0,0.0,0.0,0.0,0.0,0.0,0.0,0.0,0.0,0.0,0.0,0.0,0.0,0.0,0.0,0.0,0.0,0.0,0.0,0.0,0.0,0.0,0.0,0.0,0.0,0.0,0.0,0.0,0.0,0.0,0.0,0.0,0.0,0.0,0.0,0.0,0.0,0.0,0.0,0.0,0.0,0.0,0.0,0.0,0.0,0.0,0.0,0.0,0.0,0.0,0.0,0.0,0.0,0.0,0.0,0.0,0.0,0.0,0.0,0.0,0.0,0.0,0.0,0.0,0.0,0.0,0.0,0.0,0.0,4.1196,4.1512,4.1028,3.9843,3.9085,3.7872,0.0,0.0,0.0,0.0,0.0,0.0,0.0,0.0,0.0,0.0,0.0,0.0,0.0,0.0,0.0,0.0,0.0,0.0,0.0,0.0,0.0,0.0,0.0,0.0,0.0,0.0,0.0,0.0,0.0,0.0,0.0,0.0,0.0,0.0,0.0,0.0,0.0,0.0,0.0,0.0,0.0,0.0,0.0,0.0,0.0,0.0,0.0,0.0,0.0,0.0,0.0,0.0,0.0,0.0,0.0,0.0,0.0,0.0,0.0,0.0,0.0,0.0,0.0,0.0,0.0,0.0,0.0,0.0,0.0,0.0,0.0,0.0,0.0,0.0,0.0,0.0,0.0,0.0,0.0,0.0,0.0,0.0,0.0,0.0,0.0,0.0,0.0,0.0,0.0,0.0,0.0,0.0,0.0,0.0,0.0,0.0,0.0,0.0,0.0,0.0,0.0,0.0,0.0,0.0,0.0,0.0,0.0,0.0,0.0,4.1196,4.1847,4.1528,4.013,3.9026,3.7864,0.0,0.0,0.0,0.0,0.0,0.0,0.0,0.0,0.0,0.0,0.0,0.0,0.0,0.0,0.0,0.0,0.0,0.0,0.0,0.0,0.0,0.0,0.0,0.0,0.0,0.0,0.0,0.0,0.0,0.0,0.0,0.0,0.0,0.0,0.0,0.0,0.0,0.0,0.0,0.0,0.0,0.0,0.0,0.0,0.0,0.0,0.0,0.0,0.0,0.0,0.0,0.0,0.0,0.0,0.0,0.0,0.0,0.0,0.0,0.0,0.0,0.0,0.0,0.0,0.0,0.0,0.0,0.0,0.0,0.0,0.0,0.0,0.0,0.0,0.0,0.0,0.0,0.0,0.0,0.0,0.0,0.0,0.0,0.0,0.0,0.0,0.0,0.0,0.0,0.0,0.0,0.0,0.0,0.0,0.0,0.0,0.0,0.0,0.0,0.0,0.0,0.0,0.0,0.0,0.0,0.0,0.0,0.0,4.0381,4.097,4.1603,4.1365,4.028,3.9635,3.8667,0.0,0.0,0.0,0.0,0.0,0.0,0.0,0.0,0.0,0.0,0.0,0.0,0.0,0.0,0.0,0.0,0.0,0.0,0.0,0.0,0.0,0.0,0.0,0.0,0.0,0.0,0.0,0.0,0.0,0.0,0.0,0.0,0.0,0.0,0.0,0.0,0.0,0.0,0.0,0.0,0.0,0.0,0.0,0.0,0.0,0.0,0.0,0.0,0.0,0.0,0.0,0.0,0.0,0.0,0.0,0.0,0.0,0.0,0.0,0.0,0.0,0.0,0.0,0.0,0.0,0.0,0.0,0.0,0.0,0.0,0.0,0.0,0.0,0.0,0.0,0.0,0.0,0.0,0.0,0.0,0.0,0.0,0.0,0.0,0.0,0.0,0.0,0.0,0.0,0.0,0.0,0.0,0.0,0.0,0.0,0.0,0.0,0.0,0.0,0.0,0.0,0.0,0.0,0.0,0.0,0.0,0.0,0.0,4.0076,4.0563,4.0885,4.0808,4.0268,4.0424,3.9699,0.0,0.0,0.0,0.0,0.0,0.0,0.0,0.0,0.0,0.0,0.0,0.0,0.0,0.0,0.0,0.0,0.0,0.0,0.0,0.0,0.0,0.0,0.0,0.0,0.0,0.0,0.0,0.0,0.0,0.0,0.0,0.0,0.0,0.0,0.0,0.0,0.0,0.0,0.0,0.0,0.0,0.0,0.0,0.0,0.0,0.0,0.0,0.0,0.0,0.0,0.0,0.0,0.0,0.0,0.0,0.0,0.0,0.0,0.0,0.0,0.0,0.0,0.0,0.0,0.0,0.0,0.0,0.0,0.0,0.0,0.0,0.0,0.0,0.0,0.0,0.0,0.0,0.0,0.0,0.0,0.0,0.0,0.0,0.0,0.0,0.0,0.0,0.0,0.0,0.0,0.0,0.0,0.0,0.0,0.0,0.0,0.0,0.0,0.0,0.0,0.0,0.0,0.0,0.0,0.0,0.0,0.0,0.0,3.9153,3.9543,4.0016,4.0081,3.9692,3.961,3.916,0.0,0.0,0.0,0.0,0.0,0.0,0.0,0.0,0.0,0.0,0.0,0.0,0.0,0.0,0.0,0.0,0.0,0.0,0.0,0.0,0.0,0.0,0.0,0.0,0.0,0.0,0.0,0.0,0.0,0.0,0.0,0.0,0.0,0.0,0.0,0.0,0.0,0.0,0.0,0.0,0.0,0.0,0.0,0.0,0.0,0.0,0.0,0.0,2.6734,0.0,0.0,0.0,0.0,0.0,0.0,0.0,0.0,0.0,0.0,0.0,0.0,0.0,0.0,0.0,0.0,0.0,0.0,0.0,0.0,0.0,0.0,0.0,0.0,0.0,0.0,0.0,0.0,0.0,0.0,0.0,0.0,0.0,0.0,0.0,0.0,0.0,0.0,0.0,0.0,0.0,0.0,0.0,0.0,0.0,0.0,0.0,0.0,0.0,0.0,0.0,0.0,0.0,0.0,0.0,0.0,0.0,0.0,0.0,3.8391,3.8959,3.925,3.9466,3.9563,3.9389,3.9077,0.0,0.0,0.0,0.0,0.0,0.0,0.0,0.0,0.0,0.0,0.0,0.0,0.0,0.0,0.0,0.0,0.0,0.0,0.0,0.0,0.0,0.0,0.0,0.0,0.0,0.0,0.0,0.0,0.0,0.0,0.0,0.0,0.0,0.0,0.0,0.0,0.0,0.0,0.0,0.0,0.0,0.0,0.0,0.0,0.0,0.0,0.0,0.0,0.0,0.0,0.0,0.0,0.0,0.0,0.0,0.0,0.0,0.0,0.0,0.0,0.0,0.0,0.0,0.0,0.0,0.0,0.0,0.0,0.0,0.0,0.0,0.0,0.0,0.0,0.0,0.0,0.0,0.0,0.0,0.0,0.0,0.0,0.0,0.0,0.0,0.0,0.0,0.0,0.0,0.0,0.0,0.0,0.0,0.0,0.0,0.0,0.0,0.0,0.0,0.0,0.0,0.0,0.0,0.0,0.0,0.0,0.0,3.7209,3.7724,3.8495,3.8549,3.8847,3.9506,3.9231,3.9066,3.9033,0.0,0.0,0.0,0.0,0.0,0.0,0.0,0.0,0.0,0.0,0.0,0.0,0.0,0.0,0.0,0.0,0.0,0.0,0.0,0.0,0.0,0.0,0.0,0.0,0.0,0.0,0.0,0.0,0.0,0.0,0.0,0.0,0.0,0.0,0.0,0.0,0.0,0.0,3.5976,3.4983,0.0,0.0,0.0,0.0,0.0,0.0,0.0,0.0,2.7337,0.0,0.0,0.0,0.0,0.0,0.0,0.0,0.0,0.0,0.0,0.0,0.0,0.0,0.0,0.0,0.0,0.0,0.0,0.0,0.0,0.0,0.0,0.0,0.0,0.0,0.0,0.0,0.0,0.0,0.0,0.0,0.0,0.0,0.0,0.0,0.0,0.0,0.0,0.0,0.0,0.0,0.0,0.0,0.0,0.0,0.0,0.0,0.0,0.0,0.0,0.0,0.0,0.0,0.0,0.0,0.0,3.7059,3.7146,3.7367,3.7783,3.7783,3.8117,3.8814,3.8536,3.837,3.8337,0.0,0.0,0.0,0.0,0.0,0.0,0.0,0.0,0.0,0.0,0.0,0.0,0.0,0.0,0.0,0.0,0.0,0.0,0.0,0.0,0.0,0.0,0.0,0.0,0.0,0.0,0.0,0.0,0.0,0.0,0.0,0.0,0.0,0.0,0.0,0.0,0.0,0.0,0.0,3.6846,3.6011,0.0,0.0,0.0,0.0,0.0,0.0,0.0,0.0,2.8303,0.0,0.0,0.0,0.0,0.0,0.0,0.0,0.0,0.0,0.0,0.0,0.0,0.0,0.0,0.0,0.0,0.0,0.0,0.0,0.0,0.0,0.0,0.0,0.0,0.0,0.0,0.0,0.0,0.0,0.0,0.0,0.0,0.0,0.0,0.0,0.0,0.0,0.0,0.0,0.0,0.0,0.0,0.0,0.0,0.0,0.0,0.0,0.0,0.0,0.0,0.0,0.0,0.0,0.0,0.0,3.6559,3.6525,3.6775,3.7314,3.7348,3.7885,3.9005,3.8523,3.8444,0.0,0.0,0.0,0.0,0.0,0.0,0.0,0.0,0.0,0.0,0.0,0.0,0.0,0.0,0.0,0.0,0.0,0.0,0.0,0.0,0.0,0.0,0.0,0.0,0.0,0.0,0.0,0.0,0.0,0.0,0.0,0.0,0.0,0.0,0.0,0.0,0.0,0.0,0.0,0.0,3.7708,3.7173,3.6394,0.0,0.0,0.0,0.0,0.0,0.0,2.9325,2.8952,0.0,0.0,0.0,0.0,0.0,0.0,0.0,0.0,0.0,0.0,0.0,0.0,0.0,0.0,0.0,0.0,0.0,0.0,0.0,0.0,0.0,0.0,0.0,0.0,0.0,0.0,0.0,0.0,0.0,0.0,0.0,0.0,0.0,0.0,0.0,0.0,0.0,0.0,0.0,0.0,0.0,0.0,0.0,0.0,0.0,0.0,0.0,0.0,0.0,0.0,0.0,0.0,0.0,0.0,0.0,3.6152,3.623,3.6577,3.7225,3.7259,3.7861,3.9127,3.8535,3.8513,0.0,0.0,0.0,0.0,0.0,0.0,0.0,0.0,0.0,0.0,0.0,0.0,0.0,0.0,0.0,0.0,0.0,0.0,0.0,0.0,0.0,0.0,0.0,0.0,0.0,0.0,0.0,0.0,0.0,0.0,0.0,0.0,0.0,0.0,0.0,0.0,0.0,0.0,0.0,0.0,0.0,3.8153,3.7592,3.6429,0.0,0.0,0.0,0.0,3.0899,3.0145,0.0,0.0,0.0,0.0,0.0,0.0,0.0,0.0,0.0,0.0,0.0,0.0,0.0,0.0,0.0,0.0,0.0,0.0,0.0,0.0,0.0,0.0,0.0,0.0,0.0,0.0,0.0,0.0,0.0,0.0,0.0,0.0,0.0,0.0,0.0,0.0,0.0,0.0,0.0,0.0,0.0,0.0,0.0,0.0,0.0,0.0,0.0,0.0,0.0,0.0,0.0,0.0,0.0,0.0,0.0,0.0,3.6636,3.6973,3.7324,3.7708,3.7708,3.7973,3.8485,3.8102,3.7913,0.0,0.0,0.0,0.0,0.0,0.0,0.0,0.0,0.0,0.0,0.0,0.0,0.0,0.0,0.0,0.0,0.0,0.0,0.0,0.0,0.0,0.0,0.0,0.0,0.0,0.0,0.0,0.0,0.0,0.0,0.0,0.0,0.0,0.0,0.0,0.0,0.0,0.0,0.0,0.0,0.0,3.9275,3.9517,3.8453,3.7166,0.0,0.0,3.3381,3.2109,3.0927,0.0,0.0,0.0,0.0,0.0,0.0,0.0,0.0,0.0,0.0,0.0,0.0,0.0,0.0,0.0,0.0,0.0,0.0,0.0,0.0,0.0,0.0,0.0,0.0,0.0,0.0,0.0,0.0,0.0,0.0,0.0,0.0,0.0,0.0,0.0,0.0,0.0,0.0,0.0,0.0,0.0,0.0,0.0,0.0,0.0,0.0,0.0,0.0,0.0,0.0,0.0,0.0,0.0,0.0,0.0,3.6832,3.7031,3.7207,3.7445,3.7777,3.7832,3.8127,3.8789,3.8401,3.8307,0.0,0.0,0.0,0.0,0.0,0.0,0.0,0.0,0.0,0.0,0.0,0.0,0.0,0.0,0.0,0.0,0.0,0.0,0.0,0.0,0.0,0.0,0.0,0.0,0.0,0.0,0.0,0.0,0.0,0.0,0.0,0.0,0.0,0.0,0.0,0.0,0.0,0.0,0.0,0.0,0.0,0.0,3.9922,3.9233,0.0,0.0,0.0,3.4719,3.3641,0.0,0.0,0.0,0.0,0.0,0.0,0.0,0.0,0.0,0.0,0.0,0.0,0.0,0.0,0.0,0.0,0.0,0.0,0.0,0.0,0.0,0.0,0.0,0.0,0.0,0.0,0.0,0.0,0.0,0.0,0.0,0.0,0.0,0.0,0.0,0.0,0.0,0.0,0.0,0.0,0.0,0.0,0.0,0.0,0.0,0.0,0.0,0.0,0.0,0.0,0.0,0.0,0.0,0.0,0.0,0.0,0.0,3.7441,3.7559,3.7759,3.8007,3.8007,3.8307,3.8926,3.866,0.0,0.0,0.0,0.0,0.0,0.0,0.0,0.0,0.0,0.0,0.0,0.0,0.0,0.0,0.0,0.0,0.0,0.0,0.0,0.0,0.0,0.0,0.0,0.0,0.0,0.0,0.0,3.4819,0.0,0.0,0.0,0.0,0.0,0.0,0.0,0.0,0.0,0.0,0.0,0.0,0.0,0.0,4.0196,4.0231,3.9856,3.9393,0.0,0.0,3.5609,3.4335,3.2725,3.131,0.0,0.0,0.0,0.0,0.0,0.0,0.0,0.0,0.0,0.0,0.0,0.0,0.0,0.0,0.0,0.0,0.0,0.0,0.0,0.0,0.0,0.0,0.0,0.0,0.0,0.0,0.0,0.0,0.0,0.0,0.0,0.0,0.0,0.0,0.0,0.0,0.0,0.0,0.0,0.0,0.0,0.0,0.0,0.0,0.0,0.0,0.0,0.0,0.0,0.0,0.0,0.0,0.0,0.0,3.7816,3.7855,3.8281,3.8513,3.8569,3.8569,3.8569,3.8608,3.8608,3.8627,0.0,0.0,0.0,0.0,0.0,0.0,0.0,0.0,0.0,0.0,0.0,0.0,0.0,0.0,0.0,0.0,0.0,0.0,0.0,0.0,0.0,0.0,0.0,0.0,0.0,0.0,0.0,0.0,0.0,0.0,0.0,0.0,0.0,0.0,0.0,0.0,0.0,0.0,0.0,0.0,0.0,3.9798,4.0969,4.0709,4.0082,0.0,3.758,3.5707,3.3519,3.2055,3.0851,2.99,0.0,0.0,0.0,0.0,0.0,0.0,0.0,0.0,0.0,0.0,0.0,0.0,0.0,0.0,0.0,0.0,0.0,0.0,0.0,0.0,0.0,0.0,0.0,0.0,0.0,0.0,0.0,0.0,0.0,0.0,0.0,0.0,0.0,0.0,0.0,0.0,0.0,0.0,0.0,0.0,0.0,0.0,0.0,0.0,0.0,0.0,0.0,0.0,0.0,0.0,0.0,0.0,0.0,3.8184,3.8691,3.8887,3.9101,3.9412,3.9394,3.9394,3.9394,3.9394,3.9394,0.0,0.0,0.0,0.0,0.0,0.0,0.0,0.0,0.0,0.0,0.0,0.0,0.0,0.0,0.0,0.0,0.0,0.0,0.0,0.0,0.0,0.0,0.0,0.0,0.0,0.0,0.0,0.0,3.3647,3.2422,3.1216,0.0,0.0,0.0,0.0,0.0,0.0,0.0,0.0,0.0,0.0,3.9127,4.0164,3.9958,0.0,0.0,3.7518,3.5786,3.3975,3.2587,3.1331,3.0406,2.9845,0.0,0.0,0.0,0.0,0.0,0.0,0.0,0.0,0.0,0.0,0.0,0.0,0.0,0.0,0.0,0.0,0.0,0.0,0.0,0.0,0.0,0.0,0.0,0.0,0.0,0.0,0.0,0.0,0.0,0.0,0.0,0.0,0.0,0.0,0.0,0.0,0.0,0.0,0.0,0.0,0.0,0.0,0.0,0.0,0.0,0.0,0.0,0.0,0.0,0.0,0.0,0.0,3.8809,3.9414,3.9414,3.957,3.9883,3.9883,3.9883,3.9883,3.9883,3.9883,0.0,0.0,0.0,0.0,0.0,0.0,0.0,0.0,0.0,0.0,0.0,0.0,0.0,0.0,0.0,0.0,0.0,0.0,0.0,0.0,0.0,0.0,0.0,0.0,0.0,0.0,0.0,0.0,3.3476,3.1848,3.0265,0.0,0.0,0.0,0.0,0.0,0.0,0.0,0.0,0.0,0.0,3.8123,3.9055,3.8885,3.857,3.841,3.6849,3.5169,3.3688,3.2425,3.1329,3.0526,0.0,0.0,0.0,0.0,0.0,0.0,0.0,0.0,0.0,0.0,0.0,0.0,0.0,0.0,0.0,0.0,0.0,0.0,0.0,0.0,0.0,0.0,0.0,0.0,0.0,0.0,0.0,4.6606,0.0,0.0,4.5806,0.0,0.0,0.0,0.0,0.0,0.0,0.0,0.0,0.0,0.0,0.0,0.0,0.0,0.0,0.0,0.0,0.0,0.0,0.0,0.0,0.0,0.0,3.9844,3.9883,3.9883,3.9902,3.9922,3.9902,3.9922,3.9922,3.9902,3.9902,3.9922,0.0,0.0,0.0,0.0,0.0,0.0,0.0,0.0,0.0,0.0,0.0,0.0,0.0,0.0,0.0,0.0,0.0,0.0,0.0,0.0,0.0,0.0,0.0,0.0,0.0,0.0,3.4935,3.2871,3.1101,0.0,0.0,0.0,0.0,0.0,0.0,0.0,0.0,0.0,3.435,3.5588,3.6769,3.7596,3.7665,3.742,3.6976,3.5379,3.3674,3.2277,3.1271,3.0482,0.0,0.0,0.0,0.0,0.0,0.0,0.0,0.0,0.0,0.0,0.0,0.0,0.0,0.0,0.0,0.0,0.0,0.0,0.0,0.0,0.0,0.0,0.0,0.0,0.0,0.0,0.0,4.7439,4.709,0.0,0.0,0.0,0.0,0.0,0.0,0.0,0.0,0.0,0.0,0.0,4.6185,4.4967,0.0,0.0,0.0,0.0,0.0,0.0,0.0,0.0,0.0,0.0,0.0,0.0,4.0039,4.0293,4.0312,4.0449,4.0742,4.0781,4.0781,4.0742,4.0781,4.0742,4.0781,0.0,0.0,0.0,0.0,0.0,0.0,0.0,0.0,0.0,0.0,0.0,0.0,0.0,0.0,0.0,0.0,0.0,0.0,0.0,0.0,0.0,0.0,0.0,0.0,0.0,3.4765,0.0,0.0,0.0,0.0,0.0,0.0,0.0,0.0,0.0,0.0,3.1512,3.2437,3.3284,3.3985,3.4761,3.5633,3.5492,3.5209,0.0,0.0,0.0,0.0,0.0,0.0,0.0,0.0,0.0,0.0,0.0,0.0,0.0,0.0,2.9913,2.9913,2.9913,2.9913,2.9913,0.0,0.0,0.0,0.0,0.0,0.0,0.0,0.0,0.0,0.0,0.0,0.0,0.0,0.0,4.7926,4.7502,4.7132,0.0,0.0,0.0,0.0,0.0,0.0,0.0,0.0,4.7701,4.7388,4.6557,4.5292,4.4083,4.301,4.1956,4.1251,0.0,0.0,0.0,0.0,0.0,0.0,0.0,0.0,4.0469,4.0742,4.0742,4.0898,4.1191,4.1348,4.1426,4.1387,4.1543,4.1601,4.1601,4.1601,4.1601,0.0,0.0,0.0,0.0,0.0,0.0,0.0,0.0,0.0,0.0,0.0,0.0,0.0,0.0,0.0,0.0,0.0,0.0,0.0,0.0,0.0,0.0,0.0,3.3963,0.0,0.0,0.0,0.0,0.0,0.0,0.0,0.0,0.0,3.0297,3.1,3.1725,3.2281,3.2676,3.3161,3.3746,0.0,0.0,0.0,0.0,0.0,0.0,0.0,3.0272,2.9958,2.9913,2.9913,2.9913,2.9913,2.9913,2.9913,0.0,0.0,2.9913,2.9913,2.9913,2.9913,2.9913,2.9913,2.9913,2.9913,2.9913,0.0,0.0,0.0,0.0,4.7933,0.0,0.0,0.0,4.8636,4.8536,0.0,4.802,0.0,0.0,0.0,0.0,4.5149,4.5943,0.0,0.0,4.7224,4.6955,4.6107,4.4618,4.3708,4.3301,4.186,4.1376,4.1694,4.0562,0.0,0.0,0.0,0.0,0.0,0.0,4.125,4.125,4.123,4.125,4.125,4.1621,4.1816,4.1816,4.2207,4.2362,4.2382,4.2362,4.2362,4.2382,4.2362,0.0,0.0,0.0,0.0,0.0,0.0,0.0,0.0,0.0,0.0,0.0,0.0,0.0,0.0,0.0,0.0,0.0,0.0,0.0,0.0,3.51,0.0,0.0,0.0,0.0,0.0,0.0,0.0,0.0,0.0,2.9985,3.0175,3.0779,3.1285,3.1271,0.0,0.0,0.0,0.0,3.1923,3.1937,3.1196,3.0571,3.0571,3.0182,2.9913,2.9913,0.0,0.0,2.9913,2.9927,2.994,2.9927,2.9953,2.994,2.9909,2.994,2.9913,2.9913,2.9913,2.9913,2.9913,2.994,2.9953,4.9012,0.0,0.0,0.0,0.0,4.9364,4.969,4.9741,5.0318,5.0281,4.9851,4.9666,0.0,0.0,0.0,0.0,0.0,0.0,4.6474,4.651,4.7038,4.6665,4.558,4.4566,4.3602,4.2686,4.222,4.1954,4.1817,4.1719,4.1406,4.082,0.0,0.0,0.0,0.0,4.207,4.207,4.207,4.207,4.207,4.2148,4.2206,4.2206,4.2323,4.2382,4.2382,4.2382,4.2382,4.2382,4.2382,0.0,0.0,0.0,0.0,0.0,0.0,0.0,0.0,0.0,0.0,0.0,0.0,0.0,0.0,0.0,0.0,0.0,0.0,0.0,3.4957,3.3561,3.2429,0.0,0.0,0.0,0.0,0.0,0.0,0.0,0.0,0.0,2.9985,3.0159,3.0303,0.0,0.0,3.0482,3.0482,3.0482,3.0526,3.0495,3.0272,0.0,3.0093,3.0003,2.9913,2.9913,2.9913,2.9913,2.9913,3.0087,3.0279,3.0279,3.0394,3.0541,3.0515,3.0194,2.994,2.9913,2.9913,2.9913,2.9927,3.0074,3.0279,5.0167,4.9289,4.9647,4.9798,4.9848,5.0469,5.077,5.077,5.1122,5.1072,5.0654,5.0342,4.9718,4.8798,4.7415,0.0,0.0,0.0,4.5823,4.5786,4.6083,4.5777,4.4909,4.428,4.3553,4.2679,4.2467,4.2289,4.2051,4.2305,4.2128,4.1699,0.0,4.2051,4.2051,4.2265,4.2382,4.2382,4.2382,4.2382,4.2382,4.2598,4.2773,4.293,4.293,4.293,4.293,4.2889,4.2889,4.293,4.293,4.293,0.0,0.0,0.0,0.0,0.0,0.0,0.0,0.0,0.0,0.0,0.0,4.1497,4.0668,0.0,0.0,0.0,3.7661,3.621,3.3877,3.2799,0.0,0.0,0.0,0.0,0.0,0.0,0.0,2.9913,2.9913,2.9913,2.9913,2.9913,2.9913,2.9913,2.9913,2.9913,2.9913,0.0,2.9913,2.9913,2.9913,2.9913,2.9913,2.9913,2.9909,3.0074,3.0194,3.0261,3.0274,3.0421,3.0574,3.0555,3.0675,3.0795,3.0795,3.0488,3.0261,3.0261,3.0261,3.0261,3.0261,3.0408,3.0528,5.1373,5.1431,5.1423,5.1381,5.1306,5.1356,5.1348,5.1381,5.1431,5.1206,5.087,5.0524,5.0,4.9215,4.7394,0.0,4.5438,4.4987,4.4819,4.4744,4.4747,4.4512,4.4127,4.3812,4.3459,4.3021,4.2621,4.248,4.244,4.2479,4.2499,4.2479,4.2499,4.246,4.248,4.2479,4.2479,4.2479,4.2539,4.2499,4.2499,4.293,4.3301,4.3691,4.3691,4.3691,4.3691,4.3691,4.3691,4.3691,4.3691,4.3691,4.3711,0.0,0.0,0.0,0.0,0.0,0.0,0.0,0.0,0.0,0.0,0.0,0.0,0.0,0.0,3.8281,3.6817,0.0,3.3425,3.241,0.0,0.0,0.0,2.9913,2.9913,2.9913,2.9913,2.9913,0.0,0.0,2.9913,2.9913,2.9913,2.9913,2.9913,2.9913,2.9913,2.9913,2.9913,2.9913,2.994,2.9953,2.998,3.0007,3.0114,3.0354,3.0621,3.0742,3.0768,3.0808,3.0822,3.0822,3.0849,3.0875,3.0875,3.0875,3.0862,3.0862,3.0808,3.0768,3.0755,3.0795,3.0822,5.2151,5.2528,5.2553,5.2051,5.1322,5.1724,5.19,5.195,5.2318,5.2459,5.2357,5.2014,5.0998,4.9437,4.7493,4.6366,4.5907,4.5194,4.4728,4.4416,4.4401,4.4049,4.3399,4.33,4.3021,4.2602,4.2814,4.293,4.293,4.3242,4.3398,4.3398,4.3398,4.3242,4.2949,4.3242,4.3398,4.3398,4.3398,4.3398,4.3398,4.3516,4.3613,4.3691,4.3691,4.3691,4.3691,4.3691,4.3691,4.3691,4.3691,4.3691,4.3691,4.3297,0.0,0.0,0.0,0.0,0.0,0.0,0.0,0.0,0.0,4.0665,3.9784,0.0,3.8406,0.0,3.4766,3.3028,3.1937,3.1271,0.0,0.0,2.9958,2.9913,2.9913,2.9913,2.9913,2.9913,2.9913,2.9913,2.9913,2.9913,2.9913,2.9913,2.9913,2.9913,2.9913,2.9913,2.9913,2.994,3.0127,3.0293,3.0274,3.0448,3.0608,3.0675,3.0755,3.0795,3.0795,3.0982,3.1129,3.1142,3.1316,3.1436,3.145,3.151,3.145,3.1423,3.1116,3.0795,3.0795,3.0969,3.1116,5.2619,5.2895,5.3146,5.2929,5.2377,5.2427,5.2418,5.2468,5.3055,5.3152,5.2934,5.1961,5.0513,4.8778,4.6931,4.5838,4.5274,4.4449,4.3975,4.3757,4.3739,4.3519,4.3137,4.3274,4.3232,4.3008,4.3242,4.3359,4.3379,4.3594,4.3691,4.3691,4.3691,4.3574,4.3379,4.3594,4.3691,4.3691,4.3691,4.3691,4.3691,4.3691,4.3691,4.3691,4.3691,4.3691,4.3691,4.3691,4.3691,4.3691,4.3691,4.3691,4.3691,4.3297,4.2902,0.0,0.0,0.0,0.0,0.0,0.0,0.0,0.0,0.0,0.0,0.0,3.6594,3.4522,3.3161,3.2026,3.1048,3.075,3.0406,2.9958,2.9913,2.9913,2.9913,2.9913,2.9913,2.9913,2.9913,2.9913,2.9913,3.0034,3.0114,3.0114,3.0234,3.0261,3.014,3.0114,3.0154,3.0287,3.0448,3.06,3.0555,3.0795,3.0982,3.0996,3.1089,3.1183,3.1183,3.1316,3.1423,3.1436,3.1557,3.1724,3.1724,3.1724,3.1724,3.1671,3.1457,3.1256,3.1183,3.1316,3.1376,5.3096,5.3181,5.3632,5.3808,5.3783,5.3331,5.3096,5.3146,5.3607,5.3493,5.2883,5.1119,4.9419,4.7816,4.6178,4.5045,4.4276,4.352,4.316,4.3179,4.3191,4.3164,4.3183,4.3535,4.3691,4.3691,4.3691,4.3691,4.3691,4.3691,4.3691,4.3691,4.3691,4.3691,4.3691,4.3691,4.3691,4.3691,4.3691,4.3691,4.3691,4.3691,4.3691,4.3691,4.3691,4.3691,4.3691,4.3691,4.3691,4.3691,4.3691,4.3691,4.3711,4.3317,4.2902,0.0,4.1546,0.0,0.0,0.0,0.0,0.0,0.0,0.0,0.0,3.5613,3.4084,3.2012,3.176,3.1404,3.0571,3.0482,3.0361,2.9958,2.9913,2.9913,2.9913,2.9953,2.9967,2.998,3.0007,3.0034,3.006,3.0261,3.0467,3.048,3.0654,3.0675,3.0574,3.0493,3.0501,3.0768,3.0822,3.0862,3.0929,3.1129,3.1276,3.1316,3.1463,3.1711,3.1684,3.1698,3.1724,3.1717,3.1778,3.1805,3.1818,3.1749,3.1702,3.1728,3.1606,3.1553,3.1603,3.1576,3.1426,5.426,5.4295,5.4396,5.4446,5.4421,5.4346,5.4295,5.4295,5.4396,5.364,5.2272,5.0657,4.9011,4.7424,4.5816,4.4845,4.4357,4.3826,4.358,4.358,4.3596,4.3594,4.3594,4.3672,4.3691,4.3691,4.3691,4.3691,4.3691,4.3691,4.3691,4.3691,4.3691,4.3691,4.3691,0.0,0.0,0.0,4.3691,4.3691,4.3691,4.3691,4.3691,4.3691,4.3691,0.0,4.3691,4.3691,4.3691,4.3691,4.3691,0.0,0.0,0.0,0.0,0.0,0.0,0.0,0.0,0.0,0.0,0.0,3.7102,3.6367,3.5265,3.3293,3.176,3.0928,3.0526,3.0227,3.0048,3.0048,3.0003,2.9913,2.9913,2.9913,2.9927,3.0127,3.0319,3.0319,3.0474,3.0621,3.0608,3.0675,3.0715,3.0715,3.0755,3.0862,3.1036,3.0849,3.0742,3.0795,3.1009,3.1236,3.151,3.1591,3.1557,3.1597,3.161,3.1724,3.1738,3.1738,3.1784,3.1971,3.2011,3.2104,3.2318,3.2032,3.1652,3.1692,3.1351,3.1173,3.1593,3.1344,3.0903,5.4597,5.4622,5.4898,5.4999,0.0,5.5265,5.5282,5.5077,5.4802,5.3716,5.2,5.014,4.8386,4.6772,4.5331,4.4478,4.4041,4.3835,4.3691,4.3691,4.3691,4.3691,4.3691,4.3691,4.3691,4.3691,4.3691,4.3691,4.3691,4.3691,4.3691,4.3691,4.3691,4.3691,4.3691,4.3691,4.3691,4.3691,4.3691,4.3691,4.3691,4.3691,4.3691,4.3691,4.3691,0.0,0.0,0.0,0.0,0.0,0.0,0.0,0.0,4.3504,4.3317,4.3109,4.2425,4.1714,4.1042,4.0155,3.9093,3.7705,3.57,3.4216,3.3469,3.1893,3.075,3.0303,3.0003,2.9913,2.9913,3.0047,3.014,3.014,3.0261,3.0354,3.0368,3.0488,3.0627,3.0627,3.0748,3.0795,3.0795,3.0929,3.0996,3.1022,3.1142,3.1276,3.1383,3.1196,3.1049,3.1196,3.133,3.149,3.1671,3.1724,3.1724,3.1724,3.1831,3.1877,3.1891,3.2045,3.211,3.1952,3.1882,3.1837,3.1405,3.1114,3.082,3.0574,3.0292,3.0168,3.0501,3.0499,3.0257,5.4898,5.4924,5.534,5.5541,5.5566,5.5945,5.5779,5.5251,5.4733,0.0,0.0,4.9607,4.7749,4.6144,4.4924,4.4164,4.3691,4.3691,4.3691,4.3691,4.3691,4.3691,4.3691,4.3691,4.3691,4.3691,4.3691,4.3691,4.3691,4.3691,4.3691,4.3691,4.3691,4.375,4.3828,4.3828,4.3848,4.3926,4.3789,4.3691,4.3691,4.3691,4.3691,4.3691,4.3691,4.375,4.3828,4.3828,4.3867,4.3926,4.3926,4.3945,4.3945,4.3926,4.3779,4.3446,4.3382,4.2778,4.154,4.0905,3.967,3.7561,3.4619,3.2614,3.2023,3.1131,3.0411,3.0105,3.0074,3.0074,3.0074,3.0287,3.048,3.048,3.0648,3.0782,3.0795,3.0849,3.0862,3.0875,3.0929,3.0955,3.0982,3.1169,3.1303,3.133,3.149,3.1724,3.1698,3.145,3.137,3.157,3.1671,3.1724,3.1791,3.1805,3.1757,3.1912,3.2051,3.2171,3.2211,3.2336,3.2204,3.1731,3.1535,3.097,3.0157,2.981,2.9526,2.9079,2.8831,2.8743,2.8731,2.888,2.8734,5.5968,5.5993,5.6068,5.6093,5.6082,5.5803,5.5078,5.4047,5.3613,5.2456,5.0798,4.9057,4.7371,4.5739,4.4821,4.4164,4.3691,4.3691,4.3691,4.3691,4.3691,4.3691,4.3691,4.3691,4.3691,4.3691,4.3691,4.3691,4.3691,4.3711,4.3691,4.3711,4.3691,4.3906,4.4258,4.4297,4.4473,4.4762,4.404,4.3691,4.3691,4.3691,4.3691,4.3691,4.3711,4.3887,4.4277,4.4297,4.4473,4.4762,4.4844,4.4801,4.4844,4.4824,4.4801,4.4716,4.4358,4.387,4.3229,4.2112,4.0053,3.7011,3.4773,3.309,3.1929,3.0967,3.0485,3.0635,3.0635,3.0675,3.0675,3.0702,3.0728,3.0742,3.0768,3.0795,3.0835,3.1022,3.1156,3.1169,3.1396,3.1577,3.155,3.1604,3.1583,3.1644,3.165,3.1738,3.1764,3.1684,3.1623,3.1711,3.1724,3.177,3.1984,3.2038,3.2131,3.2433,3.2487,3.2478,3.243,3.2119,3.1796,3.1446,3.0578,2.9853,2.9368,2.8691,2.8037,2.771,2.7112,2.6563,2.6502,2.5941,2.5531,5.6219,5.6219,5.6219,5.6219,5.6146,5.5312,5.4272,5.3105,5.1977,5.0992,4.9942,4.8226,4.6709,4.5311,4.4411,4.3917,4.3691,4.3691,4.3691,4.3691,4.3691,4.3691,4.3691,4.3691,4.3691,4.3691,4.3691,4.3691,4.373,4.3945,4.4082,4.4101,4.4297,4.4531,4.4726,4.4704,4.4824,4.4957,4.4587,4.4414,4.4414,4.4433,4.4433,4.4392,4.4414,4.4512,4.4726,4.4746,4.4824,4.4977,4.5039,4.5039,4.5039,4.5039,4.5039,4.4977,4.4787,4.4361,4.3676,4.1347,3.8801,3.6036,3.429,3.2894,3.1914,3.1088,3.0648,3.0782,3.0795,3.0795,3.0795,3.0942,3.1022,3.1022,3.1169,3.1263,3.1276,3.137,3.1463,3.1476,3.1583,3.1711,3.1724,3.1724,3.1724,3.1724,3.1784,3.1944,3.2152,3.2193,3.2126,3.2005,3.2086,3.2233,3.2367,3.2393,3.2447,3.2581,3.2728,3.2674,3.2455,3.1991,3.1363,3.0425,2.9391,2.8313,2.7458,2.6487,2.5923,2.5419,2.4905,2.439,2.4184,2.3193,2.256,5.6219,5.6219,5.6219,5.6011,5.5681,5.4583,5.3384,5.2054,5.0488,4.9494,4.8785,4.7291,4.5982,4.4841,4.4041,4.3691,4.3691,4.3691,4.3691,4.3691,4.3691,4.3691,4.3711,4.3808,4.3867,4.3887,4.3945,4.4004,4.4043,4.4375,4.4531,4.457,4.4821,4.5035,4.5176,4.5176,4.5172,4.527,4.5312,4.5234,4.5039,4.5039,4.5039,4.5039,4.5019,4.5035,4.5156,4.5176,4.5215,4.5312,4.527,4.527,4.5312,4.5312,4.5312,4.527,4.5184,4.4564,4.3186,4.0473,3.7802,3.5516,3.4011,3.287,3.2058,3.1395,3.0982,3.0996,3.1009,3.1009,3.1049,3.1183,3.133,3.133,3.1517,3.1684,3.1711,3.1724,3.1724,3.1724,3.173,3.1818,3.1818,3.1872,3.1938,3.1992,3.2064,3.234,3.2554,3.2634,3.2581,3.2412,3.25,3.2607,3.2674,3.2701,3.2728,3.2768,3.2834,3.2607,3.2162,3.1679,3.0608,2.91,2.7612,2.6271,2.4853,2.3926,2.3357,2.2953,2.2435,2.2011,2.1751,2.0764,1.9991,5.6219,5.6219,5.6219,5.557,5.4509,5.3648,5.2374,5.0798,4.945,4.8248,4.7192,4.6225,4.5291,4.4452,4.3917,4.3691,4.3711,4.3711,4.3711,4.373,4.3711,4.3711,4.3789,4.4141,4.4336,4.4375,4.4687,4.4782,4.4824,4.4879,4.4938,4.4961,4.4977,4.5254,4.5566,4.5648,4.5801,4.6172,4.6191,4.5801,4.5035,4.5039,4.5039,4.5039,4.4996,4.5215,4.5629,4.5625,4.5781,4.6152,4.6152,4.6172,4.6172,4.6172,4.6172,4.6128,4.5716,4.4574,4.2273,4.022,3.8108,3.6252,3.4595,3.3347,3.24,3.1867,3.1583,3.1617,3.1631,3.1591,3.1631,3.1644,3.1657,3.1623,3.1711,3.1724,3.1764,3.1724,3.1724,3.1724,3.1931,3.2064,3.2091,3.23,3.246,3.2474,3.25,3.2594,3.2688,3.2862,3.2982,3.2853,3.2781,3.2741,3.2915,3.2933,3.2963,3.314,3.2884,3.2346,3.1642,3.0445,2.9072,2.7265,2.5409,2.3771,2.259,2.1509,2.0841,2.0874,2.0405,1.9754,1.9112,1.8619,1.8476,5.6219,5.6182,5.5962,5.5016,5.3648,5.2527,5.1146,4.9489,4.8288,4.7031,4.582,4.5189,4.4739,4.437,4.3917,4.3691,4.3711,4.3984,4.4121,4.4141,4.4375,4.445,4.4512,4.4668,4.4766,4.4766,4.4899,4.5039,4.5078,4.5273,4.5527,4.5762,4.5781,4.5879,4.6035,4.6055,4.6152,4.6289,4.6308,4.6133,4.584,4.5781,4.5781,4.5781,4.5781,4.584,4.6016,4.6055,4.6133,4.6289,4.6308,4.6308,4.6308,4.6308,4.6158,4.5851,4.4617,4.2953,4.0821,3.8909,3.693,3.4993,3.3728,3.2691,3.2104,3.1967,3.1931,3.1904,3.1818,3.1724,3.1724,3.1724,3.173,3.1925,3.1917,3.1984,3.2219,3.2219,3.2233,3.2246,3.234,3.242,3.242,3.2514,3.2661,3.2795,3.2848,3.2888,3.3013,3.316,3.3213,3.3227,3.312,3.3106,3.315,3.2928,3.2844,3.2773,3.2209,3.1454,3.0392,2.901,2.7316,2.5306,2.3418,2.1821,2.0772,2.0007,1.9344,1.9316,1.9107,1.8613,1.8028,1.7716,1.7716,5.6219,5.6109,5.5558,5.4322,5.2778,5.1378,4.9931,4.8442,4.718,4.6086,4.5203,4.4727,4.4561,4.4519,4.4111,4.3945,4.4101,4.4414,4.457,4.4609,4.4883,4.5019,4.5039,4.5156,4.5215,4.5215,4.5332,4.5391,4.541,4.5664,4.6016,4.6269,4.6308,4.6308,4.6308,4.6308,4.6308,4.6308,4.6308,4.6308,4.6289,4.6308,4.6308,4.6308,4.6308,4.6308,4.6308,4.6308,4.6308,4.6308,4.6308,4.6308,4.6308,4.6308,4.5895,4.499,4.3376,4.1521,3.947,3.7706,3.5949,3.4112,3.313,3.2416,3.2088,3.2152,3.2211,3.226,3.2038,3.1979,3.1952,3.1952,3.2059,3.2198,3.2225,3.2318,3.2554,3.2594,3.2567,3.2594,3.2648,3.2755,3.2808,3.2862,3.2906,3.3066,3.3106,3.3146,3.336,3.3387,3.34,3.3364,3.33,3.315,3.3163,3.2686,3.236,3.1655,3.0898,2.962,2.8614,2.7009,2.5419,2.3399,2.163,2.0381,1.9566,1.882,1.8383,1.84,1.8256,1.8011,1.7593,1.7412,1.7412,5.6219,5.6011,5.4942,5.3559,5.1939,5.0299,4.8869,4.7601,4.6352,4.5724,4.554,4.5176,4.4941,4.4964,4.457,4.459,4.486,4.498,4.4957,4.4957,4.5016,4.5016,4.5058,4.5449,4.5644,4.5683,4.5976,4.6152,4.6191,4.623,4.6289,4.6308,4.6308,4.6308,4.6328,4.6348,4.6308,4.6387,4.6406,4.6348,4.6348,4.6348,4.6367,4.6387,4.6308,4.6348,4.6348,4.6328,4.6328,4.6328,4.6367,4.6348,4.6328,4.6304,4.5469,4.3741,4.2394,4.0712,3.8474,3.6985,3.5625,3.4196,3.3429,3.3013,3.2522,3.2541,3.2567,3.2581,3.2567,3.2554,3.2554,3.2474,3.25,3.2554,3.2581,3.2594,3.2621,3.2688,3.2607,3.2674,3.2875,3.3026,3.3293,3.3374,3.332,3.3347,3.3374,3.3387,3.3387,3.3414,3.3414,3.3314,3.3013,3.2662,3.2561,3.1907,3.1252,3.0329,2.8998,2.7491,2.6036,2.4564,2.302,2.1654,2.0223,1.9197,1.8523,1.8037,1.7754,1.7695,1.777,1.7534,1.7534,1.7453,1.7467,5.5864,5.5362,5.4423,5.3159,5.1493,4.9891,4.8429,4.7175,4.6154,4.554,4.5255,4.5062,4.5176,4.543,4.5293,4.5137,4.5058,4.5312,4.543,4.5469,4.5703,4.584,4.5859,4.6016,4.6074,4.6113,4.623,4.6308,4.6308,4.6308,4.6308,4.6308,4.6308,4.6426,4.666,4.6699,4.6836,4.709,4.7129,4.7129,4.709,4.7129,4.7109,4.709,4.6836,4.6836,4.7109,4.7129,4.7109,4.7173,4.7129,4.7129,4.704,4.6216,4.5164,4.3742,4.1804,3.9733,3.7662,3.6134,3.4846,3.3699,3.3116,3.2851,3.2683,3.2755,3.2875,3.2888,3.3,3.3093,3.3076,3.2822,3.2674,3.2835,3.2875,3.2942,3.3053,3.3093,3.3093,3.312,3.3213,3.3307,3.336,3.3414,3.3414,3.3414,3.3414,3.3414,3.3414,3.3414,3.3414,3.3314,3.2912,3.2209,3.11,3.0595,2.9834,2.849,2.7122,2.5521,2.4008,2.2605,2.1127,2.0428,1.909,1.8484,1.8,1.7914,1.7548,1.7521,1.7595,1.7636,1.7704,1.7643,1.7656,5.6091,5.5419,5.4559,5.3132,5.1305,4.9543,4.8109,4.6976,4.6066,4.5612,4.543,4.5449,4.5605,4.584,4.5879,4.5723,4.5488,4.5762,4.5922,4.5898,4.6172,4.6308,4.6308,4.6308,4.6308,4.6308,4.6308,4.6308,4.6328,4.6445,4.6504,4.6504,4.6641,4.6855,4.709,4.7148,4.7305,4.7584,4.7623,4.7623,4.7623,4.7623,4.7656,4.7715,4.75,4.7402,4.7623,4.7623,4.7623,4.7623,4.7623,4.7533,4.7244,4.6114,4.4682,4.3147,4.1016,3.8831,3.6757,3.5347,3.4234,3.3402,3.3072,3.2875,3.2888,3.3062,3.3093,3.316,3.3267,3.3414,3.3347,3.3053,3.2955,3.308,3.312,3.3187,3.3374,3.34,3.3387,3.3374,3.3374,3.34,3.3414,3.3414,3.3414,3.3414,3.3414,3.3414,3.3414,3.3414,3.3314,3.3126,3.2564,3.1338,2.9821,2.8598,2.7535,2.6223,2.4941,2.3416,2.2214,2.0796,1.9821,1.9094,1.8521,1.8001,1.7786,1.7704,1.769,1.7663,1.7745,1.7827,1.7868,1.7895,1.7868,5.6825,5.6312,5.5231,5.3448,5.1416,4.9328,4.7877,4.6997,4.6157,4.5903,4.6113,4.623,4.6191,4.6269,4.623,4.625,4.6191,4.6211,4.623,4.625,4.6289,4.6308,4.6308,4.6308,4.6348,4.6367,4.6348,4.6367,4.6445,4.6758,4.6933,4.6967,4.7305,4.7506,4.7578,4.7578,4.7598,4.7695,4.776,4.7721,4.7643,4.7695,4.7871,4.8164,4.8183,4.8008,4.7721,4.7701,4.774,4.7721,4.7721,4.7373,4.6908,4.5863,4.4278,4.2033,4.0085,3.7961,3.5738,3.4737,3.4005,3.3506,3.336,3.332,3.3307,3.3347,3.336,3.3374,3.3387,3.3414,3.3414,3.3347,3.3334,3.34,3.336,3.3374,3.34,3.3414,3.3414,3.3414,3.3414,3.3414,3.3414,3.3414,3.3414,3.3414,3.3414,3.344,3.348,3.3494,3.319,3.2716,3.2023,3.0832,2.8594,2.6431,2.5134,2.3846,2.2547,2.1255,2.05,1.9355,1.8992,1.835,1.8236,1.7827,1.7868,1.7834,1.7847,1.7819,1.7915,1.7915,1.7915,1.7915,1.7915,5.6757,5.6051,5.487,5.328,5.1463,4.9595,4.8302,4.7394,4.6485,4.6191,4.6289,4.6308,4.6308,4.6308,4.6308,4.6308,4.6308,4.6308,4.6308,4.6328,4.6308,4.6308,4.6308,4.6308,4.6445,4.6758,4.7051,4.7168,4.7187,4.7305,4.7383,4.7422,4.7519,4.7779,4.8008,4.8027,4.8125,4.8483,4.8503,4.8503,4.8503,4.8503,4.8561,4.8679,4.8698,4.862,4.8522,4.8503,4.8503,4.8483,4.8503,4.809,4.7104,4.5555,4.3804,4.1958,3.9708,3.7696,3.5895,3.4742,3.3964,3.3514,3.3414,3.3414,3.3414,3.3414,3.3414,3.3414,3.3414,3.3414,3.3414,3.3414,3.3414,3.3414,3.3414,3.3414,3.3414,3.3414,3.3414,3.3414,3.3414,3.3414,3.3414,3.3427,3.3467,3.3467,3.3454,3.3494,3.3681,3.3684,3.3638,3.3185,3.1901,3.0064,2.7658,2.5318,2.3489,2.2237,2.0869,2.0021,1.9176,1.8668,1.825,1.8032,1.7868,1.7854,1.7895,1.7915,1.7915,1.7915,1.7915,1.7915,1.7915,1.7915,1.7915,5.7095,5.6245,5.4834,5.3134,5.1247,4.951,4.8265,4.7398,4.6658,4.6308,4.6308,4.6308,4.6308,4.6308,4.6308,4.6387,4.6523,4.6499,4.6621,4.6719,4.6582,4.6543,4.6562,4.6719,4.6894,4.7168,4.7441,4.7578,4.7598,4.7734,4.7812,4.7812,4.7969,4.8183,4.8437,4.8503,4.8659,4.8874,4.8894,4.8894,4.8894,4.8894,4.8894,4.8894,4.8894,4.8894,4.8894,4.8894,4.8894,4.8801,4.857,4.7763,4.6551,4.4773,4.2967,4.111,3.9022,3.6977,3.5607,3.4449,3.3764,3.3464,3.3414,3.3414,3.3414,3.3414,3.3414,3.3414,3.3414,3.3414,3.3414,3.3414,3.3454,3.3574,3.348,3.3414,3.3414,3.3414,3.3414,3.3427,3.3521,3.3574,3.3587,3.3708,3.3734,3.3748,3.3748,3.3788,3.3951,3.3851,3.3573,3.271,3.0994,2.8977,2.669,2.4321,2.1948,2.0643,1.9482,1.8969,1.8449,1.8204,1.793,1.795,1.7881,1.7881,1.7915,1.7915,1.7915,1.7915,1.7915,1.7915,1.7915,1.7915,1.7915,5.7599,5.6686,5.4934,5.2842,5.0779,4.906,4.7854,4.705,4.6527,4.6308,4.6308,4.6308,4.6328,4.6348,4.6406,4.6601,4.687,4.6928,4.7129,4.7324,4.7207,4.7006,4.6967,4.7344,4.7558,4.7617,4.7695,4.776,4.7858,4.8086,4.8242,4.8281,4.8574,4.8874,4.8835,4.8894,4.8855,4.8894,4.8894,4.8894,4.8894,4.8894,4.8894,4.8894,4.8894,4.8894,4.8894,4.8894,4.8894,4.8775,4.7922,4.6738,4.5187,4.3587,4.1816,3.9802,3.77,3.6237,3.5047,3.4064,3.3464,3.3414,3.3414,3.3414,3.3414,3.3414,3.344,3.348,3.348,3.348,3.3507,3.3534,3.3654,3.3814,3.3721,3.3574,3.348,3.3507,3.3574,3.3587,3.3734,3.3908,3.3908,3.4108,3.4215,3.4242,3.4229,3.4229,3.4219,3.3885,3.3007,3.177,3.0353,2.7994,2.5741,2.3314,2.1121,1.9913,1.8813,1.8403,1.8108,1.7971,1.7826,1.7902,1.7915,1.7915,1.7915,1.7915,1.7915,1.7915,1.7915,1.7915,1.7915,1.7915,1.7915,5.6868,5.5362,5.3651,5.1829,4.9934,4.846,4.7551,4.6963,4.6527,4.6328,4.6308,4.6308,4.6504,4.6738,4.6733,4.6992,4.7324,4.7402,4.7441,4.7598,4.7812,4.7676,4.7539,4.7832,4.8047,4.8086,4.8301,4.8561,4.8581,4.862,4.8672,4.8737,4.8815,4.8894,4.8894,4.8894,4.8894,4.8894,4.8894,4.8894,4.8894,4.8894,4.8894,4.8894,4.8894,4.8894,4.8894,4.8894,4.8682,4.8266,4.7364,4.6082,4.4507,4.2697,4.0772,3.8778,3.7027,3.5543,3.4563,3.3814,3.3414,3.3414,3.344,3.3414,3.3414,3.3414,3.3521,3.3681,3.3761,3.3841,3.4015,3.4068,3.4135,3.4175,3.4122,3.4055,3.4042,3.4082,3.4082,3.4044,3.4148,3.4189,3.4229,3.4295,3.4376,3.4376,3.4389,3.4377,3.4382,3.3915,3.3081,3.1546,2.9869,2.7296,2.4778,2.2366,2.0427,1.9265,1.8487,1.8143,1.7998,1.795,1.7908,1.7915,1.7915,1.7915,1.7915,1.7915,1.7915,1.7915,1.7915,1.7915,1.7915,1.7915,1.7915,5.6327,5.4551,5.2597,5.078,4.9103,4.7877,4.7117,4.6741,4.6636,4.6562,4.6601,4.6777,4.6973,4.7187,4.7207,4.7441,4.7793,4.7851,4.7949,4.8209,4.8359,4.8366,4.8268,4.8398,4.8476,4.8496,4.8776,4.8874,4.8874,4.8894,4.8894,4.8894,4.8894,4.8894,4.8894,4.8894,4.8894,4.8894,4.8894,4.8894,4.8894,4.8894,4.8894,4.8894,4.8894,4.8894,4.8894,4.8894,4.859,4.7801,4.6822,4.5488,4.3717,4.1737,3.9818,3.7927,3.635,3.5061,3.4313,3.3714,3.348,3.3587,3.3614,3.3681,3.3774,3.3801,3.3908,3.4028,3.4068,3.4162,3.4295,3.4377,3.4496,3.4523,3.4616,3.4576,3.4362,3.4295,3.4322,3.4349,3.4429,3.4509,3.4509,3.4603,3.467,3.471,3.475,3.466,3.4491,3.3822,3.2676,3.0941,2.864,2.5856,2.352,2.1203,1.979,1.864,1.8309,1.7915,1.7915,1.7915,1.7915,1.7915,1.7915,1.7915,1.7915,1.7915,1.7915,1.7915,1.7915,1.7915,1.7915,1.7915,1.7915,5.5869,5.3956,5.1765,4.9892,4.8329,4.7394,4.68,4.6509,4.6816,4.6992,4.707,4.7402,4.7519,4.7637,4.7637,4.7871,4.8262,4.8281,4.8522,4.8718,4.8835,4.8796,4.8776,4.8776,4.8815,4.8835,4.8894,4.8894,4.8894,4.8894,4.8894,4.8894,4.8894,4.8894,4.8894,4.8894,4.8894,4.8894,4.8894,4.8894,4.8894,4.8894,4.8894,4.8894,4.8894,4.8894,4.8933,4.8926,4.8594,4.7617,4.6513,4.5063,4.3114,4.0981,3.9116,3.7555,3.6112,3.4993,3.4287,3.3802,3.3654,3.3881,3.3935,3.4028,3.4189,3.4215,3.4255,3.4362,3.4311,3.4416,3.4509,3.4618,3.4776,3.483,3.503,3.4897,3.4563,3.4416,3.4416,3.4429,3.467,3.4776,3.487,3.5017,3.5177,3.4963,3.4951,3.4754,3.4215,3.3318,3.1727,2.9639,2.7066,2.4201,2.2017,1.9955,1.9019,1.8143,1.8088,1.7915,1.7915,1.7915,1.7915,1.7915,1.7915,1.7915,1.7915,1.7915,1.7915,1.7915,1.7915,1.7915,1.7915,1.7915,1.7915,5.52,5.3093,5.0906,4.9146,4.7871,4.7168,4.6885,4.6836,4.7266,4.7441,4.7461,4.7558,4.7793,4.8066,4.8086,4.8301,4.8698,4.8672,4.8835,4.8874,4.8894,4.8894,4.8894,4.8894,4.8894,4.8894,4.8894,4.8894,4.8894,4.8894,4.8894,4.8894,4.8894,4.8894,4.8894,4.8894,4.8894,4.8894,4.8894,4.8894,4.8894,4.8894,4.8913,4.8933,4.8933,4.8913,4.8991,4.9199,4.9048,4.8335,4.7188,4.5645,4.3618,4.1698,3.9625,3.7556,3.6292,3.5254,3.4466,3.4184,3.4135,3.4202,3.4229,3.4242,3.4295,3.4362,3.4456,3.4589,3.467,3.475,3.491,3.503,3.507,3.5084,3.5137,3.5151,3.503,3.499,3.495,3.499,3.503,3.5097,3.5084,3.511,3.5204,3.5204,3.5032,3.4874,3.3962,3.2848,3.0744,2.8533,2.5875,2.3219,2.1313,1.9515,1.8633,1.8033,1.797,1.7915,1.7915,1.7915,1.7915,1.7915,1.7915,1.7915,1.7915,1.7915,1.7915,1.7915,1.7915,1.7915,1.7915,1.7915,1.7915,5.4835,5.2827,5.0592,4.9067,4.7996,4.745,4.7226,4.7324,4.7695,4.7871,4.793,4.8066,4.8301,4.8496,4.8516,4.8652,4.8855,4.8894,4.8894,4.8894,4.8894,4.8894,4.8894,4.8894,4.8894,4.8894,4.8894,4.8894,4.8894,4.8894,4.8894,4.8894,4.8894,4.8894,4.8894,4.8894,4.8894,4.8894,4.8894,4.8894,4.8894,4.8894,4.9004,4.9141,4.9199,4.9238,4.9512,4.9707,4.9683,4.92,4.8178,4.6463,4.4276,4.2291,4.002,3.7696,3.6368,3.5424,3.4617,3.4336,3.4362,3.4523,3.4523,3.4616,3.4683,3.4736,3.479,3.4923,3.4977,3.5044,3.5177,3.5191,3.5204,3.5204,3.5204,3.5204,3.5204,3.5204,3.5204,3.5204,3.5177,3.5177,3.5191,3.5204,3.5204,3.5204,3.4716,3.4451,3.3154,3.1824,2.9608,2.7346,2.479,2.2463,2.0607,1.9247,1.8419,1.8033,1.7915,1.7915,1.7915,1.7915,1.7915,1.7915,1.7915,1.7915,1.7915,1.7915,1.7915,1.7915,1.7915,1.7915,1.7915,1.7915,1.7915,5.4701,5.2897,5.0654,4.9197,4.8374,4.7883,4.7676,4.7734,4.8125,4.8301,4.8359,4.8757,4.8796,4.8874,4.8874,4.8894,4.8894,4.8894,4.8894,4.8894,4.8894,4.8894,4.8894,4.8894,4.8894,4.8894,4.8894,4.8894,4.8894,4.8894,4.8894,4.8894,4.8894,4.8894,4.8894,4.8894,4.8894,4.8894,4.8894,4.8894,4.8952,4.8991,4.9219,4.9551,4.9629,4.9746,5.0,5.0195,5.0273,5.0226,4.9311,4.7483,4.5207,4.289,4.0498,3.7905,3.6703,3.5658,3.4821,3.4536,3.4616,3.4869,3.4882,3.4923,3.5097,3.5124,3.5124,3.5137,3.5164,3.5164,3.5204,3.5204,3.5204,3.5204,3.5204,3.5204,3.5204,3.5204,3.5204,3.5204,3.5204,3.5204,3.5204,3.5204,3.5204,3.5098,3.4557,3.3803,3.2516,3.0798,2.8587,2.621,2.371,2.1423,1.957,1.8964,1.8088,1.7977,1.7915,1.7915,1.7915,1.7915,1.7915,1.7915,1.7915,1.7915,1.7915,1.7915,1.7915,1.7915,1.7915,1.7915,1.7915,1.7915,1.7915,5.4845,5.3345,5.0781,4.9381,4.886,4.8337,4.8105,4.8183,4.8581,4.8776,4.8796,4.8874,4.8894,4.8894,4.8894,4.8894,4.8894,4.8894,4.8894,4.8894,4.8894,4.8894,4.8894,4.8894,4.8894,4.8894,4.8894,4.8894,4.8894,4.8894,4.8894,4.8894,4.8894,4.8894,4.8894,4.8894,4.8894,4.8933,4.8952,4.8972,4.9031,4.9258,4.9609,5.0019,5.0078,5.0156,5.0273,5.0527,5.0703,5.0627,5.0019,4.8453,4.6254,4.3857,4.1147,3.8566,3.713,3.611,3.5146,3.5004,3.5057,3.511,3.5097,3.511,3.5177,3.5204,3.5204,3.5204,3.5204,3.5204,3.5204,3.5204,3.5204,3.5204,3.5204,3.5204,3.5204,3.5204,3.5204,3.5204,3.5204,3.5204,3.5204,3.5151,3.5085,3.4821,3.424,3.3379,3.2144,3.0048,2.767,2.518,2.2627,2.0497,1.8412,1.8302,1.7915,1.797,1.7915,1.7915,1.7915,1.7915,1.7915,1.7915,1.7915,1.7915,1.7915,1.7915,1.7915,1.7915,1.7915,1.7915,1.7915,1.7915,1.7915,5.4999,5.3187,5.1201,4.9995,4.9322,4.879,4.8535,4.8574,4.8815,4.8894,4.8894,4.8894,4.8894,4.8894,4.8894,4.8894,4.8894,4.8894,4.8894,4.8894,4.8894,4.8894,4.8894,4.8894,4.8894,4.8894,4.8894,4.8894,4.8894,4.8894,4.8894,4.8894,4.8894,4.8894,4.8894,4.8894,4.8913,4.8933,4.9109,4.9199,4.9258,4.9648,5.0058,5.0391,5.0527,5.0605,5.084,5.0976,5.1133,5.0978,5.0355,4.8743,4.6669,4.4312,4.1633,3.8811,3.7387,3.6387,3.5454,3.5204,3.5191,3.5191,3.5204,3.5204,3.5204,3.5204,3.5204,3.5204,3.5204,3.5204,3.5204,3.5204,3.5204,3.5204,3.5204,3.5204,3.5204,3.5204,3.5204,3.5204,3.5204,3.5204,3.5204,3.5151,3.5032,3.4557,3.3909,3.2795,3.1557,2.9071,2.6481,2.3883,2.1431,1.9838,1.8191,1.8026,1.7915,1.7915,1.7915,1.7915,1.7915,1.7915,1.7915,1.7915,1.7915,1.7915,1.7915,1.7915,1.7915,1.7915,1.7915,1.7915,1.7915,1.7915,1.7915,5.5137,5.3222,5.1639,5.0523,4.9784,4.917,4.8894,4.8894,4.8894,4.8894,4.8894,4.8894,4.8894,4.8894,4.8894,4.8894,4.8894,4.8894,4.8894,4.8894,4.8894,4.8894,4.8894,4.8894,4.8894,4.8894,4.8894,4.8894,4.8894,4.8894,4.8894,4.8894,4.8894,4.8894,4.8894,4.8894,4.8913,4.9082,4.9297,4.9504,4.9777,5.0117,5.0508,5.0879,5.0937,5.1074,5.1289,5.1299,5.1338,5.1095,5.0353,4.8978,4.684,4.4615,4.1974,3.9174,3.7576,3.6387,3.5507,3.5204,3.5204,3.5204,3.5204,3.5204,3.5204,3.5204,3.5204,3.5204,3.5204,3.5204,3.5204,3.5204,3.5204,3.5204,3.5204,3.5204,3.5204,3.5204,3.5204,3.5204,3.5204,3.5151,3.5151,3.4821,3.4663,3.3803,3.3167,3.1451,3.0048,2.7616,2.5017,2.2463,2.034,1.9019,1.8081,1.797,1.7915,1.7915,1.7915,1.7915,1.7915,1.7915,1.7915,1.7915,1.7915,1.7915,1.7915,1.7915,1.7915,1.7915,1.7915,1.7915,1.7915,1.7915,1.7915,5.5214,5.4169,5.1913,5.0687,5.0125,4.9243,4.8894,4.8894,4.8894,4.8894,4.8894,4.8894,4.8894,4.8894,4.8894,4.8894,4.8894,4.8894,4.8894,4.8894,4.8894,4.8894,4.8894,4.8894,4.8894,4.8894,4.8894,4.8894,4.8894,4.8894,4.8894,4.8894,4.8894,4.8933,4.8991,4.9011,4.9109,4.9375,4.9531,4.9922,5.0508,5.0683,5.0957,5.1162,5.128,5.1299,5.1377,5.1397,5.1397,5.128,5.0421,4.9126,4.7324,4.4834,4.2144,3.9692,3.7785,3.6387,3.5454,3.5204,3.5204,3.5204,3.5204,3.5204,3.5204,3.5204,3.5204,3.5204,3.5204,3.5204,3.5204,3.5204,3.5204,3.5204,3.5204,3.5204,3.5204,3.5204,3.5204,3.5204,3.5204,3.5138,3.5085,3.4663,3.4187,3.3273,3.2144,3.0369,2.8263,2.5668,2.3501,2.0992,1.9625,1.8412,1.8026,1.7915,1.7915,1.7915,1.7915,1.7915,1.7915,1.7915,1.7915,1.7915,1.7915,1.7915,1.7915,1.7915,1.7915,1.7915,1.7915,1.7915,1.7915,1.7915,1.7915,5.5637,5.3997,5.2205,5.0998,5.0225,4.9328,4.8894,4.8894,4.8894,4.8894,4.8894,4.8894,4.8894,4.8894,4.8894,4.8894,4.8894,4.8894,4.8894,4.8894,4.8894,4.8894,4.8894,4.8894,4.8894,4.8894,4.8894,4.8894,4.8894,4.8894,4.8894,4.8894,4.8933,4.907,4.918,4.9219,4.9492,4.9844,5.0156,5.0566,5.0996,5.1172,5.1201,5.1377,5.1377,5.1397,5.1397,5.1397,5.1397,5.1231,5.0421,4.9126,4.7324,4.4885,4.2144,3.9552,3.78,3.6439,3.5401,3.5257,3.5204,3.5204,3.5204,3.5204,3.5204,3.5204,3.5204,3.5204,3.5204,3.5204,3.5204,3.5204,3.5204,3.5204,3.5204,3.5204,3.5204,3.5204,3.5204,3.5204,3.5151,3.4927,3.461,3.3962,3.3101,3.1824,3.0369,2.8371,2.5994,2.3283,2.1321,1.9467,1.864,1.8026,1.797,1.7915,1.7915,1.7915,1.7915,1.7915,1.7915,1.7915,1.7915,1.7915,1.7915,1.7915,1.7915,1.7915,1.7915,1.7915,1.7915,1.7915,1.7915,1.7915,1.7915,5.6228,5.4106,5.2458,5.1227,5.0245,4.9282,4.8894,4.8894,4.8894,4.8894,4.8894,4.8894,4.8894,4.8894,4.8894,4.8894,4.8894,4.8894,4.8894,4.8894,4.8894,4.8894,4.8894,4.8894,4.8894,4.8894,4.8894,4.8894,4.8894,4.8894,4.8894,4.8913,4.9089,4.9199,4.9453,4.9648,4.9902,5.0312,5.0723,5.1074,5.1348,5.1358,5.1358,5.1377,5.1397,5.1397,5.1397,5.1397,5.1397,5.1231,5.0421,4.9224,4.7623,4.5036,4.2297,3.9847,3.7942,3.6387,3.5559,3.5204,3.5204,3.5204,3.5204,3.5204,3.5204,3.5204,3.5204,3.5204,3.5204,3.5204,3.5204,3.5204,3.5204,3.5204,3.5204,3.5204,3.5204,3.5204,3.5204,3.5204,3.498,3.4451,3.4015,3.3207,3.2078,3.0542,2.8651,2.6481,2.3874,2.1156,1.9955,1.853,1.8253,1.7915,1.7915,1.7915,1.7915,1.7915,1.7915,1.7915,1.7915,1.7915,1.7915,1.7915,1.7915,1.7915,1.7915,1.7915,1.7915,1.7915,1.7915,1.7915,1.7915,1.7915,1.7915,5.6944,5.5005,5.2763,5.1227,5.0245,4.9308,4.8894,4.8894,4.8894,4.8894,4.8894,4.8894,4.8894,4.8894,4.8894,4.8894,4.8894,4.8894,4.8894,4.8894,4.8894,4.8894,4.8894,4.8894,4.8894,4.8894,4.8894,4.8894,4.8933,4.9011,4.8952,4.8933,4.9219,4.9433,4.9746,5.0078,5.0391,5.0762,5.1133,5.126,5.1358,5.1397,5.1397,5.1397,5.1397,5.1397,5.1397,5.1397,5.1377,5.1328,5.0421,4.9273,4.7722,4.5036,4.2348,3.9987,3.7942,3.6439,3.5507,3.5204,3.5204,3.5204,3.5204,3.5204,3.5204,3.5204,3.5204,3.5204,3.5204,3.5204,3.5204,3.5204,3.5204,3.5204,3.5204,3.5204,3.5204,3.5204,3.5204,3.5204,3.4821,3.4293,3.3048,3.2185,3.0679,2.9189,2.6156,2.3928,2.197,1.9625,1.9019,1.8198,1.8081,1.7915,1.7915,1.7915,1.7915,1.7915,1.7915,1.7915,1.7915,1.7915,1.7915,1.7915,1.7915,1.7915,1.7915,1.7915,1.7915,1.7915,1.7915,1.7915,1.7915,1.7915,1.7915,5.7205,5.5093,5.2785,5.1227,5.0245,4.9328,4.8894,4.8894,4.8894,4.8894,4.8894,4.8894,4.8894,4.8894,4.8894,4.8894,4.8894,4.8894,4.8894,4.8894,4.8894,4.8894,4.8894,4.8894,4.8894,4.8894,4.8894,4.8894,4.8913,4.9101,4.9258,4.9355,4.9531,4.9902,5.0234,5.0625,5.0957,5.1113,5.128,5.1377,5.1397,5.1397,5.1397,5.1397,5.1397,5.1397,5.1397,5.1397,5.1397,5.1153,5.0372,4.9224,4.7722,4.4935,4.2348,3.9899,3.7889,3.6439,3.5454,3.5204,3.5204,3.5204,3.5204,3.5204,3.5204,3.5204,3.5204,3.5204,3.5204,3.5204,3.5204,3.5204,3.5204,3.5204,3.5204,3.5204,3.5204,3.5204,3.5204,3.5204,3.4663,3.4015,3.257,3.1077,2.9404,2.7627,2.4418,2.1595,1.99,1.875,1.8302,1.8081,1.797,1.7915,1.7915,1.7915,1.7915,1.7915,1.7915,1.7915,1.7915,1.7915,1.7915,1.7915,1.7915,1.7915,1.7915,1.7915,1.7915,1.7915,1.7915,1.7915,1.7915,1.7915,1.7915,5.7464,5.5269,5.2829,5.1227,5.0245,4.9282,4.8894,4.8894,4.8894,4.8894,4.8894,4.8894,4.8894,4.8894,4.8894,4.8894,4.8894,4.8894,4.8894,4.8894,4.8894,4.8894,4.8894,4.8894,4.8894,4.8894,4.8913,4.8933,4.9121,4.9394,4.9668,4.9844,4.9894,5.0332,5.0664,5.1191,5.1377,5.1397,5.1397,5.1397,5.1397,5.1397,5.1397,5.1397,5.1397,5.1397,5.1397,5.1397,5.1397,5.1085,5.0353,4.9076,4.7207,4.4885,4.2195,3.9847,3.7837,3.6387,3.5559,3.5204,3.5204,3.5204,3.5204,3.5204,3.5204,3.5204,3.5204,3.5204,3.5204,3.5204,3.5204,3.5204,3.5204,3.5204,3.5204,3.5204,3.5204,3.5204,3.5204,3.5151,3.461,3.4068,3.1557,2.9673,2.6968,2.5244,2.2791,2.045,1.9129,1.8253,1.8081,1.797,1.7915,1.7915,1.7915,1.7915,1.7915,1.7915,1.7915,1.7915,1.7915,1.7915,1.7915,1.7915,1.7915,1.7915,1.7915,1.7915,1.7915,1.7915,1.7915,1.7915,1.7915,1.7915,1.7915,5.7636,5.5707,5.2964,5.1227,5.0245,4.9262,4.8894,4.8894,4.8894,4.8894,4.8894,4.8894,4.8894,4.8894,4.8894,4.8894,4.8894,4.8894,4.8894,4.8894,4.8894,4.8894,4.8894,4.8894,4.8894,4.8894,4.8991,4.916,4.9406,4.9687,5.0058,5.0488,5.0625,5.0742,5.0859,5.1211,5.1377,5.1397,5.1397,5.1397,5.1397,5.1397,5.1397,5.1397,5.1397,5.1397,5.1397,5.1397,5.1397,5.1251,5.0421,4.9144,4.7424,4.4885,4.2195,3.9552,3.7785,3.6439,3.5349,3.5243,3.5204,3.5204,3.5204,3.5204,3.5204,3.5204,3.5204,3.5204,3.5204,3.5204,3.5204,3.5204,3.5204,3.5204,3.5204,3.5204,3.5204,3.5204,3.5204,3.5098,3.4927,3.4121,3.1118,2.822,2.4917,2.2581,2.0725,1.9294,1.8309,1.7977,1.7915,1.7915,1.7915,1.7915,1.7915,1.7915,1.7915,1.7915,1.7915,1.7915,1.7915,1.7915,1.7915,1.7915,1.7915,1.7915,1.7915,1.7915,1.7915,1.7915,1.7915,1.7915,1.7915,1.7915,1.7915,5.7464,5.5313,5.2829,5.1227,5.0245,4.9328,4.8894,4.8894,4.8894,4.8894,4.8894,4.8894,4.8894,4.8894,4.8894,4.8894,4.8894,4.8894,4.8894,4.8894,4.8894,4.8894,4.8894,4.8894,4.8913,4.8991,4.9101,4.9316,4.9465,4.9914,5.041,5.0801,5.1055,5.1162,5.1201,5.1338,5.1377,5.1397,5.1397,5.1397,5.1397,5.1397,5.1397,5.1397,5.1397,5.1397,5.1397,5.1397,5.1397,5.128,5.0421,4.9144,4.7374,4.4885,4.2195,3.964,3.7785,3.6387,3.5559,3.5204,3.5204,3.5204,3.5204,3.5204,3.5204,3.5204,3.5204,3.5204,3.5204,3.5204,3.5204,3.5204,3.5204,3.5204,3.5204,3.5204,3.5204,3.5204,3.5151,3.5032,3.4821,3.3007,3.0435,2.7843,2.4591,2.2097,2.045,1.9184,1.8198,1.797,1.7915,1.7915,1.7915,1.7915,1.7915,1.7915,1.7915,1.7915,1.7915,1.7915,1.7915,1.7915,1.7915,1.7915,1.7915,1.7915,1.7915,1.7915,1.7915,1.7915,1.7915,1.7915,1.7915,1.7915,1.7915,5.7249,5.5093,5.2785,5.1227,5.0245,4.9328,4.8894,4.8894,4.8894,4.8894,4.8894,4.8894,4.8894,4.8894,4.8894,4.8894,4.8894,4.8894,4.8894,4.8894,4.8894,4.8894,4.8894,4.8913,4.8984,4.9101,4.9375,4.9582,5.0011,5.0527,5.0859,5.1074,5.1221,5.1319,5.1358,5.1377,5.1397,5.1397,5.1397,5.1397,5.1397,5.1397,5.1397,5.1397,5.1397,5.1397,5.1397,5.1397,5.1397,5.1085,5.0353,4.9144,4.7274,4.4885,4.2179,3.9744,3.7368,3.6124,3.5349,3.5204,3.5204,3.5204,3.5204,3.5204,3.5204,3.5204,3.5204,3.5204,3.5204,3.5204,3.5204,3.5204,3.5204,3.5204,3.5204,3.5204,3.5204,3.5204,3.5204,3.5032,3.461,3.2422,2.9952,2.7303,2.4591,2.2417,2.0403,1.9184,1.8143,1.8026,1.7915,1.7915,1.7915,1.7915,1.7915,1.7915,1.7915,1.7915,1.7915,1.7915,1.7915,1.7915,1.7915,1.7915,1.7915,1.7915,1.7915,1.7915,1.7915,1.7915,1.7915,1.7915,1.7915,1.7915,1.7915,5.7012,5.5049,5.2785,5.1227,5.0245,4.9328,4.8894,4.8894,4.8894,4.8894,4.8894,4.8894,4.8894,4.8894,4.8894,4.8894,4.8894,4.8894,4.8894,4.8894,4.8894,4.8894,4.8894,4.8913,4.9062,4.9355,4.9648,5.0019,5.0683,5.0898,5.1045,5.124,5.1338,5.1397,5.1397,5.1397,5.1397,5.1397,5.1397,5.1397,5.1397,5.1397,5.1397,5.1397,5.1397,5.1397,5.1397,5.1397,5.1397,5.1056,5.0421,4.9076,4.7225,4.4885,4.2179,3.933,3.6597,3.5665,3.5243,3.5204,3.5204,3.5204,3.5204,3.5204,3.5204,3.5204,3.5204,3.5204,3.5204,3.5204,3.5204,3.5204,3.5204,3.5204,3.5204,3.5204,3.5204,3.5204,3.5204,3.5098,3.494,3.3167,3.0262,2.7508,2.4854,2.2307,2.034,1.9192,1.8309,1.797,1.7915,1.7915,1.7915,1.7915,1.7915,1.7915,1.7915,1.7915,1.7915,1.7915,1.7915,1.7915,1.7915,1.7915,1.7915,1.7915,1.7915,1.7915,1.7915,1.7915,1.7915,1.7915,1.7915,1.7915,1.7915,5.6796,5.4609,5.265,5.1227,5.0245,4.9328,4.8894,4.8894,4.8894,4.8894,4.8894,4.8894,4.8894,4.8894,4.8894,4.8894,4.8894,4.8894,4.8894,4.8894,4.8894,4.8894,4.8894,4.8933,4.9141,4.9512,4.9863,5.0254,5.0762,5.1035,5.1182,5.1358,5.1377,5.1397,5.1397,5.1397,5.1397,5.1397,5.1397,5.1397,5.1397,5.1397,5.1397,5.1397,5.1397,5.1397,5.1397,5.1397,5.1397,5.1251,5.0421,4.9243,4.8038,4.5086,4.1923,3.7979,3.6138,3.5204,3.5204,3.5204,3.5204,3.5204,3.5204,3.5204,3.5204,3.5204,3.5204,3.5204,3.5204,3.5204,3.5204,3.5204,3.5204,3.5204,3.5204,3.5204,3.5204,3.5204,3.5204,3.5032,3.4874,3.322,3.0369,2.7876,2.5234,2.2463,2.034,1.9184,1.8364,1.8026,1.7915,1.7915,1.7915,1.7915,1.7915,1.7915,1.7915,1.7915,1.7915,1.7915,1.7915,1.7915,1.7915,1.7915,1.7915,1.7915,1.7915,1.7915,1.7915,1.7915,1.7915,1.7915,1.7915,1.7915,1.7915,5.6579,5.4432,5.256,5.1046,4.9768,4.9124,4.8894,4.8894,4.8894,4.8894,4.8894,4.8894,4.8894,4.8894,4.8894,4.8894,4.8894,4.8894,4.8894,4.8894,4.8894,4.8894,4.8894,4.8952,4.9258,4.9668,5.0078,5.0469,5.0937,5.1182,5.1377,5.1377,5.1397,5.1397,5.1397,5.1397,5.1397,5.1397,5.1397,5.1397,5.1397,5.1397,5.1397,5.1397,5.1397,5.1397,5.1397,5.1397,5.1397,5.1231,5.0421,4.944,4.7672,4.4464,4.0898,3.7315,3.5928,3.5309,3.5204,3.5204,3.5204,3.5204,3.5204,3.5204,3.5204,3.5204,3.5204,3.5204,3.5204,3.5204,3.5204,3.5204,3.5204,3.5204,3.5204,3.5204,3.5204,3.5204,3.5098,3.5032,3.4068,3.2623,3.0465,2.8091,2.555,2.2728,2.0552,1.9184,1.8419,1.8026,1.7915,1.7915,1.7915,1.7915,1.7915,1.7915,1.7915,1.7915,1.7915,1.7915,1.7915,1.7915,1.7915,1.7915,1.7915,1.7915,1.7915,1.7915,1.7915,1.7915,1.7915,1.7915,1.7915,1.7915,1.7915,5.6318,5.4432,5.2492,5.059,4.9032,4.8894,4.8894,4.8894,4.8894,4.8894,4.8894,4.8894,4.8894,4.8894,4.8894,4.8894,4.8894,4.8894,4.8894,4.8894,4.8894,4.8894,4.8894,4.8952,4.9382,4.991,5.0293,5.0566,5.1143,5.1397,5.1397,5.1397,5.1397,5.1397,5.1397,5.1397,5.1397,5.1397,5.1397,5.1397,5.1397,5.1397,5.1397,5.1397,5.1397,5.1397,5.1397,5.1397,5.1397,5.1037,5.0402,4.944,4.6341,4.3299,3.9677,3.742,3.5875,3.5349,3.5204,3.5204,3.5204,3.5204,3.5204,3.5204,3.5204,3.5204,3.5204,3.5204,3.5204,3.5204,3.5204,3.5204,3.5204,3.5204,3.5204,3.5204,3.5204,3.5204,3.5151,3.4927,3.4134,3.2635,3.0798,2.8414,2.5659,2.2892,2.0717,1.9239,1.853,1.8088,1.797,1.797,1.7915,1.7915,1.7915,1.7915,1.7915,1.7915,1.7915,1.7915,1.7915,1.7915,1.7915,1.7915,1.7915,1.7915,1.7915,1.7915,1.7915,1.7915,1.7915,1.7915,1.7915,1.7915,1.7915,5.6318,5.4343,5.1771,4.9971,4.894,4.8894,4.8894,4.8894,4.8894,4.8894,4.8894,4.8894,4.8894,4.8894,4.8894,4.8894,4.8894,4.8894,4.8894,4.8894,4.8894,4.8894,4.8894,4.8933,4.9441,4.9949,5.0312,5.0664,5.1201,5.1397,5.1397,5.1397,5.1397,5.1397,5.1397,5.1397,5.1397,5.1397,5.1397,5.1397,5.1397,5.1397,5.1397,5.1397,5.1397,5.1397,5.1397,5.1397,5.1397,5.1231,5.0421,4.8119,4.4632,4.1667,3.9226,3.7173,3.5875,3.5349,3.5204,3.5204,3.5204,3.5204,3.5204,3.5204,3.5204,3.5204,3.5204,3.5204,3.5204,3.5204,3.5204,3.5204,3.5204,3.5204,3.5204,3.5204,3.5204,3.5204,3.5204,3.4729,3.4094,3.2635,3.0851,2.8522,2.5767,2.3274,2.0937,1.9357,1.8805,1.8309,1.8081,1.8026,1.7915,1.7915,1.7915,1.7915,1.7915,1.7915,1.7915,1.7915,1.7915,1.7915,1.7915,1.7915,1.7915,1.7915,1.7915,1.7915,1.7915,1.7915,1.7915,1.7915,1.7915,1.7915,1.7915,5.6492,5.4321,5.1499,4.9742,4.8986,4.8894,4.8894,4.8894,4.8894,4.8894,4.8894,4.8894,4.8894,4.8894,4.8894,4.8894,4.8894,4.8894,4.8894,4.8894,4.8894,4.8894,4.8894,4.8933,4.95,5.0047,5.0586,5.1055,5.1338,5.1397,5.1397,5.1397,5.1397,5.1397,5.1397,5.1397,5.1397,5.1397,5.1397,5.1397,5.1397,5.1397,5.1397,5.1397,5.1397,5.1397,5.1397,5.1397,5.1397,5.0793,4.9716,4.7157,4.3975,4.1171,3.8967,3.7225,3.598,3.5204,3.5204,3.5204,3.5204,3.5204,3.5204,3.5204,3.5204,3.5204,3.5204,3.5204,3.5204,3.5204,3.5204,3.5204,3.5204,3.5204,3.5204,3.5204,3.5204,3.5204,3.5204,3.5046,3.4187,3.2954,3.1065,2.8909,2.6265,2.3983,2.1595,2.0073,1.9357,1.864,1.8364,1.8136,1.8033,1.7915,1.7915,1.7915,1.7915,1.7915,1.7915,1.7915,1.7915,1.7915,1.7915,1.7915,1.7915,1.7915,1.7915,1.7915,1.7915,1.7915,1.7915,1.7915,1.7915,1.7915,1.7915,5.6579,5.3989,5.1363,4.9742,4.8959,4.8894,4.8894,4.8894,4.8894,4.8894,4.8894,4.8894,4.8894,4.8894,4.8894,4.8894,4.8894,4.8894,4.8894,4.8894,4.8894,4.8894,4.8894,4.8952,4.9519,5.0176,5.0898,5.1123,5.1377,5.1397,5.1397,5.1397,5.1397,5.1397,5.1397,5.1397,5.1397,5.1397,5.1397,5.1397,5.1397,5.1397,5.1397,5.1397,5.1397,5.1397,5.1397,5.1397,5.1397,5.0451,4.9058,4.624,4.357,4.0826,3.8863,3.712,3.5823,3.5296,3.5204,3.5204,3.5204,3.5204,3.5204,3.5204,3.5204,3.5204,3.5204,3.5204,3.5204,3.5204,3.5204,3.5204,3.5204,3.5204,3.5204,3.5204,3.5204,3.5204,3.5204,3.5204,3.424,3.3114,3.1451,2.9297,2.713,2.4799,2.29,2.1486,2.023,1.9357,1.8805,1.8419,1.8143,1.8033,1.7915,1.7915,1.7915,1.7915,1.7915,1.7915,1.7915,1.7915,1.7915,1.7915,1.7915,1.7915,1.7915,1.7915,1.7915,1.7915,1.7915,1.7915,1.7915,1.7915,1.7915,5.5816,5.2201,5.0818,4.9742,4.8986,4.8894,4.8894,4.8894,4.8894,4.8894,4.8894,4.8894,4.8894,4.8894,4.8894,4.8894,4.8894,4.8894,4.8894,4.8894,4.8894,4.8894,4.8972,4.9109,4.95,5.0176,5.0957,5.1299,5.1397,5.1397,5.1397,5.1397,5.1397,5.1397,5.1397,5.1397,5.1397,5.1397,5.1397,5.1397,5.1397,5.1397,5.1397,5.1397,5.1397,5.1397,5.1397,5.1397,5.1397,5.0598,4.8811,4.589,4.3163,4.0621,3.8618,3.7068,3.5823,3.5349,3.5204,3.5204,3.5204,3.5204,3.5204,3.5204,3.5204,3.5204,3.5204,3.5204,3.5204,3.5204,3.5204,3.5204,3.5204,3.5204,3.5204,3.5204,3.5204,3.5204,3.5204,3.4993,3.4557,3.3538,3.2463,3.0477,2.8597,2.6373,2.4319,2.29,2.1713,2.056,1.9302,1.875,1.8309,1.8033,1.7915,1.7915,1.7915,1.7915,1.7915,1.7915,1.7915,1.7915,1.7915,1.7915,1.7915,1.7915,1.7915,1.7915,1.7915,1.7915,1.7915,1.7915,1.7915,1.786,1.786]},{"header":{"parameterUnit":"m.s-1","parameterCategory":1,"la1":31.0,"la2":29.5877,"lo1":-88.7671,"lo2":-86.6584,"dy":0.0162,"dx":0.0185,"nx":115,"ny":88,"refTime":"2023-04-08T00:00:00:Z","depth":0,"parameterNumber":3,"parameterNumberName":"V-component_of_WINDS"},"data":[0.0,0.0,0.0,0.0,0.0,0.0,0.0,0.0,0.0,0.0,0.0,0.0,0.0,0.0,0.0,0.0,0.0,0.0,0.0,0.0,0.0,0.0,0.0,0.0,0.0,0.0,0.0,0.0,0.0,0.0,0.0,0.0,0.0,0.0,0.0,0.0,0.0,0.0,0.0,0.0,0.0,0.0,0.0,0.0,0.0,0.0,0.0,0.0,0.0,0.0,0.0,0.0,0.0,0.0,0.0,0.0,0.0,0.0,0.0,0.0,0.0,0.0,0.0,0.0,0.0,0.0,0.0,0.0,0.0,0.0,0.0,0.0,0.0,0.0,0.0,0.0,0.0,0.0,0.0,0.0,0.0,0.0,0.0,0.0,0.0,0.0,0.0,0.0,0.0,0.0,0.0,0.0,0.0,0.0,0.0,0.0,0.0,0.0,0.0,0.0,0.0,0.0,0.0,0.0,0.0,0.0,0.0,0.0,0.0,0.0,0.0,0.0,0.0,0.0,0.0,0.0,0.0,0.0,0.0,0.0,0.0,0.0,0.0,0.0,0.0,0.0,0.0,0.0,0.0,0.0,0.0,0.0,0.0,0.0,0.0,0.0,0.0,0.0,0.0,0.0,0.0,0.0,0.0,0.0,0.0,0.0,0.0,0.0,0.0,0.0,0.0,0.0,0.0,0.0,0.0,0.0,0.0,0.0,0.0,0.0,0.0,0.0,0.0,0.0,0.0,0.0,0.0,0.0,0.0,0.0,0.0,0.0,0.0,0.0,0.0,0.0,0.0,0.0,0.0,0.0,0.0,0.0,0.0,0.0,0.0,0.0,0.0,0.0,0.0,0.0,0.0,0.0,0.0,0.0,0.0,0.0,0.0,0.0,0.0,0.0,0.0,0.0,0.0,0.0,0.0,0.0,0.0,0.0,0.0,0.0,0.0,0.0,0.0,0.0,0.0,0.0,0.0,0.0,0.0,0.0,0.0,0.0,0.0,0.0,0.0,0.0,0.0,0.0,0.0,0.0,0.0,0.0,0.0,0.0,0.0,0.0,0.0,0.0,0.0,0.0,0.0,0.0,0.0,0.0,0.0,0.0,0.0,0.0,0.0,0.0,0.0,0.0,0.0,0.0,0.0,0.0,0.0,0.0,0.0,0.0,0.0,0.0,0.0,0.0,0.0,0.0,0.0,0.0,0.0,0.0,0.0,0.0,0.0,0.0,0.0,0.0,0.0,0.0,0.0,0.0,0.0,0.0,0.0,0.0,0.0,0.0,0.0,0.0,0.0,0.0,0.0,0.0,0.0,0.0,0.0,0.0,0.0,0.0,0.0,0.0,0.0,0.0,0.0,0.0,0.0,0.0,0.0,0.0,0.0,0.0,0.0,0.0,0.0,0.0,0.0,0.0,0.0,0.0,0.0,0.0,0.0,0.0,0.0,0.0,0.0,0.0,0.0,0.0,0.0,0.0,0.0,0.0,0.0,0.0,0.0,0.0,0.0,0.0,0.0,0.0,0.0,0.0,0.0,0.0,0.0,0.0,0.0,0.0,0.0,0.0,0.0,0.0,0.0,0.0,0.0,0.0,0.0,0.0,0.0,0.0,0.0,0.0,0.0,0.0,0.0,0.0,0.0,0.0,0.0,0.0,0.0,0.0,0.0,0.0,0.0,0.0,0.0,0.0,0.0,0.0,0.0,0.0,0.0,0.0,0.0,0.0,0.0,0.0,0.0,0.0,0.0,0.0,0.0,0.0,0.0,0.0,0.0,0.0,0.0,0.0,0.0,0.0,0.0,0.0,0.0,0.0,0.0,0.0,0.0,0.0,0.0,0.0,0.0,0.0,0.0,0.0,0.0,0.0,0.0,0.0,0.0,0.0,0.0,0.0,0.0,0.0,0.0,0.0,0.0,0.0,0.0,0.0,0.0,0.0,0.0,0.0,0.0,0.0,0.0,0.0,0.0,0.0,0.0,0.0,0.0,0.0,0.0,0.0,0.0,0.0,0.0,0.0,0.0,0.0,0.0,0.0,0.0,0.0,0.0,0.0,0.0,0.0,0.0,0.0,0.0,0.0,0.0,0.0,0.0,0.0,0.0,0.0,0.0,0.0,0.0,0.0,0.0,0.0,0.0,0.0,0.0,0.0,0.0,0.0,0.0,0.0,0.0,0.0,0.0,0.0,0.0,0.0,0.0,0.0,0.0,0.0,0.0,0.0,0.0,0.0,0.0,0.0,0.0,0.0,0.0,0.0,0.0,0.0,0.0,0.0,0.0,0.0,0.0,0.0,0.0,0.0,0.0,0.0,0.0,0.0,0.0,0.0,0.0,0.0,0.0,0.0,0.0,0.0,0.0,0.0,0.0,0.0,0.0,0.0,0.0,0.0,0.0,0.0,0.0,0.0,0.0,0.0,0.0,0.0,0.0,0.0,0.0,0.0,0.0,0.0,0.0,0.0,0.0,0.0,0.0,0.0,0.0,0.0,0.0,0.0,0.0,0.0,0.0,0.0,0.0,0.0,0.0,0.0,0.0,0.0,0.0,0.0,0.0,0.0,0.0,0.0,0.0,0.0,0.0,0.0,0.0,0.0,0.0,0.0,0.0,0.0,0.0,0.0,0.0,0.0,0.0,0.0,0.0,0.0,0.0,0.0,0.0,0.0,0.0,0.0,0.0,0.0,0.0,0.0,0.0,0.0,0.0,0.0,0.0,0.0,0.0,0.0,0.0,0.0,0.0,0.0,0.0,0.0,0.0,0.0,0.0,0.0,0.0,0.0,0.0,0.0,0.0,0.0,0.0,0.0,0.0,0.0,0.0,0.0,0.0,0.0,0.0,0.0,0.0,0.0,0.0,0.0,0.0,0.0,0.0,0.0,0.0,0.0,0.0,0.0,0.0,0.0,0.0,0.0,0.0,0.0,0.0,0.0,0.0,0.0,0.0,0.0,0.0,0.0,0.0,0.0,0.0,0.0,0.0,0.0,0.0,0.0,0.0,0.0,0.0,0.0,0.0,0.0,0.0,0.0,0.0,0.0,0.0,0.0,0.0,0.0,0.0,0.0,0.0,0.0,0.0,0.0,0.0,0.0,0.0,0.0,0.0,0.0,0.0,0.0,0.0,0.0,0.0,0.0,0.0,0.0,0.0,0.0,0.0,0.0,0.0,0.0,0.0,0.0,0.0,0.0,0.0,0.0,0.0,0.0,0.0,0.0,0.0,0.0,0.0,0.0,0.0,0.0,0.0,0.0,0.0,0.0,0.0,0.0,0.0,0.0,0.0,0.0,0.0,0.0,0.0,0.0,0.0,0.0,0.0,0.0,0.0,0.0,0.0,0.0,0.0,0.0,0.0,0.0,0.0,0.0,0.0,0.0,0.0,0.0,0.0,0.0,0.0,0.0,0.0,0.0,0.0,0.0,0.0,0.0,0.0,0.0,0.0,0.0,0.0,0.0,0.0,0.0,0.0,0.0,0.0,0.0,0.0,0.0,0.0,0.0,0.0,0.0,0.0,0.0,0.0,0.0,0.0,0.0,0.0,0.0,0.0,0.0,0.0,0.0,0.0,0.0,0.0,0.0,0.0,0.0,0.0,0.0,0.0,0.0,0.0,0.0,0.0,0.0,0.0,0.0,0.0,0.0,0.0,0.0,0.0,0.0,0.0,0.0,0.0,0.0,0.0,0.0,0.0,0.0,0.0,0.0,0.0,0.0,0.0,0.0,0.0,0.0,0.0,0.0,0.0,0.0,0.0,0.0,0.0,0.0,0.0,0.0,0.0,0.0,0.0,0.0,0.0,0.0,0.0,0.0,0.0,0.0,0.0,0.0,0.0,0.0,0.0,0.0,0.0,0.0,0.0,0.0,0.0,0.0,0.0,0.0,0.0,0.0,0.0,0.0,0.0,0.0,0.0,0.0,0.0,0.0,0.0,0.0,0.0,0.0,0.0,0.0,0.0,0.0,0.0,0.0,0.0,0.0,0.0,0.0,0.0,0.0,0.0,0.0,0.0,0.0,0.0,0.0,0.0,0.0,0.0,0.0,0.0,0.0,0.0,0.0,0.0,0.0,0.0,0.0,0.0,0.0,0.0,0.0,0.0,0.0,0.0,0.0,0.0,0.0,0.0,0.0,0.0,0.0,0.0,0.0,0.0,0.0,0.0,0.0,0.0,0.0,0.0,0.0,0.0,0.0,0.0,0.0,0.0,0.0,0.0,0.0,0.0,0.0,0.0,0.0,0.0,0.0,0.0,0.0,0.0,0.0,0.0,0.0,0.0,0.0,0.0,0.0,0.0,0.0,5.7881,0.0,0.0,0.0,0.0,0.0,0.0,0.0,0.0,0.0,0.0,0.0,0.0,0.0,0.0,0.0,0.0,0.0,0.0,0.0,0.0,0.0,0.0,0.0,0.0,0.0,0.0,0.0,0.0,0.0,0.0,0.0,0.0,0.0,0.0,0.0,0.0,0.0,0.0,0.0,0.0,0.0,0.0,0.0,0.0,0.0,0.0,0.0,0.0,0.0,0.0,0.0,0.0,0.0,0.0,0.0,0.0,0.0,0.0,0.0,0.0,0.0,0.0,0.0,0.0,0.0,0.0,0.0,0.0,0.0,0.0,0.0,0.0,0.0,0.0,0.0,0.0,0.0,0.0,0.0,0.0,0.0,0.0,0.0,0.0,0.0,0.0,0.0,0.0,0.0,0.0,0.0,0.0,0.0,0.0,0.0,0.0,0.0,0.0,0.0,0.0,0.0,0.0,0.0,0.0,0.0,0.0,0.0,0.0,0.0,0.0,5.6132,5.6661,5.7082,5.7439,5.7717,0.0,0.0,0.0,0.0,0.0,0.0,0.0,0.0,0.0,0.0,0.0,0.0,0.0,0.0,0.0,0.0,0.0,0.0,0.0,0.0,0.0,0.0,0.0,0.0,0.0,0.0,0.0,0.0,0.0,0.0,0.0,0.0,0.0,0.0,0.0,0.0,0.0,0.0,0.0,0.0,0.0,0.0,0.0,0.0,0.0,0.0,0.0,0.0,0.0,0.0,0.0,0.0,0.0,0.0,0.0,0.0,0.0,0.0,0.0,0.0,0.0,0.0,0.0,0.0,0.0,0.0,0.0,0.0,0.0,0.0,0.0,0.0,0.0,0.0,0.0,0.0,0.0,0.0,0.0,0.0,0.0,0.0,0.0,0.0,0.0,0.0,0.0,0.0,0.0,0.0,0.0,0.0,0.0,0.0,0.0,0.0,0.0,0.0,0.0,0.0,0.0,0.0,0.0,0.0,0.0,0.0,0.0,0.0,0.0,0.0,0.0,0.0,5.6987,5.742,5.7662,0.0,0.0,0.0,0.0,0.0,0.0,0.0,0.0,0.0,0.0,0.0,0.0,0.0,0.0,0.0,0.0,0.0,0.0,0.0,0.0,0.0,0.0,0.0,0.0,0.0,0.0,0.0,0.0,0.0,0.0,0.0,0.0,0.0,0.0,0.0,0.0,0.0,0.0,0.0,0.0,0.0,0.0,0.0,0.0,0.0,0.0,0.0,0.0,0.0,0.0,0.0,0.0,0.0,0.0,0.0,0.0,0.0,0.0,0.0,0.0,0.0,0.0,0.0,0.0,0.0,0.0,0.0,0.0,0.0,0.0,0.0,0.0,0.0,0.0,0.0,0.0,0.0,0.0,0.0,0.0,0.0,0.0,0.0,0.0,0.0,0.0,0.0,0.0,0.0,0.0,0.0,0.0,0.0,0.0,0.0,0.0,0.0,0.0,0.0,0.0,0.0,0.0,0.0,0.0,0.0,0.0,0.0,0.0,0.0,0.0,5.5934,5.6369,5.6987,0.0,5.7845,0.0,0.0,0.0,0.0,0.0,0.0,0.0,0.0,0.0,0.0,0.0,0.0,0.0,0.0,0.0,0.0,0.0,0.0,0.0,0.0,0.0,0.0,0.0,0.0,0.0,0.0,0.0,0.0,0.0,0.0,0.0,0.0,0.0,0.0,0.0,0.0,0.0,0.0,0.0,0.0,0.0,0.0,0.0,0.0,0.0,0.0,0.0,0.0,0.0,0.0,0.0,0.0,0.0,0.0,0.0,0.0,0.0,0.0,0.0,0.0,0.0,0.0,0.0,0.0,0.0,0.0,0.0,0.0,0.0,0.0,0.0,0.0,0.0,0.0,0.0,0.0,0.0,0.0,0.0,0.0,0.0,0.0,0.0,0.0,0.0,0.0,0.0,0.0,0.0,0.0,0.0,0.0,0.0,0.0,0.0,0.0,0.0,0.0,0.0,0.0,0.0,0.0,0.0,0.0,0.0,0.0,0.0,0.0,0.0,0.0,5.5612,5.6205,5.693,5.7495,0.0,0.0,0.0,0.0,0.0,0.0,0.0,0.0,0.0,0.0,0.0,0.0,0.0,0.0,0.0,0.0,0.0,0.0,0.0,0.0,0.0,0.0,0.0,0.0,0.0,0.0,0.0,0.0,0.0,0.0,0.0,0.0,0.0,0.0,0.0,0.0,0.0,0.0,0.0,0.0,0.0,0.0,0.0,0.0,0.0,0.0,0.0,0.0,0.0,0.0,0.0,0.0,0.0,0.0,0.0,0.0,0.0,0.0,0.0,0.0,0.0,0.0,0.0,0.0,0.0,0.0,0.0,0.0,0.0,0.0,0.0,0.0,0.0,0.0,0.0,0.0,0.0,0.0,0.0,0.0,0.0,0.0,0.0,0.0,0.0,0.0,0.0,0.0,0.0,0.0,0.0,0.0,0.0,0.0,0.0,0.0,0.0,0.0,0.0,0.0,0.0,0.0,0.0,0.0,0.0,0.0,0.0,0.0,0.0,0.0,5.4749,5.5409,5.629,5.6968,5.7495,5.7881,0.0,0.0,0.0,0.0,0.0,0.0,0.0,0.0,0.0,0.0,0.0,0.0,0.0,0.0,0.0,0.0,0.0,0.0,0.0,0.0,0.0,0.0,0.0,0.0,0.0,0.0,0.0,0.0,0.0,0.0,0.0,0.0,0.0,0.0,0.0,0.0,0.0,0.0,0.0,0.0,0.0,0.0,0.0,0.0,0.0,0.0,0.0,0.0,0.0,0.0,0.0,0.0,0.0,0.0,0.0,0.0,0.0,0.0,0.0,0.0,0.0,0.0,0.0,0.0,0.0,0.0,0.0,0.0,0.0,0.0,0.0,0.0,0.0,0.0,0.0,0.0,0.0,0.0,0.0,0.0,0.0,0.0,0.0,0.0,0.0,0.0,0.0,0.0,0.0,0.0,0.0,0.0,0.0,0.0,0.0,0.0,0.0,0.0,0.0,0.0,0.0,0.0,0.0,0.0,0.0,0.0,0.0,0.0,5.4081,5.4507,5.5458,5.6891,5.7176,5.7495,0.0,0.0,0.0,0.0,0.0,0.0,0.0,0.0,0.0,0.0,0.0,0.0,0.0,0.0,0.0,0.0,0.0,0.0,0.0,0.0,0.0,0.0,0.0,0.0,0.0,0.0,0.0,0.0,0.0,0.0,0.0,0.0,0.0,0.0,0.0,0.0,0.0,0.0,0.0,0.0,0.0,0.0,0.0,0.0,0.0,0.0,0.0,0.0,0.0,0.0,0.0,0.0,0.0,0.0,0.0,0.0,0.0,0.0,0.0,0.0,0.0,0.0,0.0,0.0,0.0,0.0,0.0,0.0,0.0,0.0,0.0,0.0,0.0,0.0,0.0,0.0,0.0,0.0,0.0,0.0,0.0,0.0,0.0,0.0,0.0,0.0,0.0,0.0,0.0,0.0,0.0,0.0,0.0,0.0,0.0,0.0,0.0,0.0,0.0,0.0,0.0,0.0,0.0,0.0,0.0,0.0,0.0,0.0,0.0,5.364,5.4758,5.5741,5.6583,5.7063,5.7439,0.0,0.0,0.0,0.0,0.0,0.0,0.0,0.0,0.0,0.0,0.0,0.0,0.0,0.0,0.0,0.0,0.0,0.0,0.0,0.0,0.0,0.0,0.0,0.0,0.0,0.0,0.0,0.0,0.0,0.0,0.0,0.0,0.0,0.0,0.0,0.0,0.0,0.0,0.0,0.0,0.0,0.0,0.0,0.0,0.0,0.0,0.0,0.0,0.0,0.0,0.0,0.0,0.0,0.0,0.0,0.0,0.0,0.0,0.0,0.0,0.0,0.0,0.0,0.0,0.0,0.0,0.0,0.0,0.0,0.0,0.0,0.0,0.0,0.0,0.0,0.0,0.0,0.0,0.0,0.0,0.0,0.0,0.0,0.0,0.0,0.0,0.0,0.0,0.0,0.0,0.0,0.0,0.0,0.0,0.0,0.0,0.0,0.0,0.0,0.0,0.0,0.0,0.0,0.0,0.0,0.0,0.0,0.0,0.0,5.3487,0.0,5.556,5.6152,5.6719,5.7158,0.0,0.0,0.0,0.0,0.0,0.0,0.0,0.0,0.0,0.0,0.0,0.0,0.0,0.0,0.0,0.0,0.0,0.0,0.0,0.0,0.0,0.0,0.0,0.0,0.0,0.0,0.0,0.0,0.0,0.0,0.0,0.0,0.0,0.0,0.0,0.0,0.0,0.0,0.0,0.0,0.0,0.0,0.0,0.0,0.0,0.0,0.0,0.0,0.0,0.0,0.0,0.0,0.0,0.0,0.0,0.0,0.0,0.0,0.0,0.0,0.0,0.0,0.0,0.0,0.0,0.0,0.0,0.0,0.0,0.0,0.0,0.0,0.0,0.0,0.0,0.0,0.0,0.0,0.0,0.0,0.0,0.0,0.0,0.0,0.0,0.0,0.0,0.0,0.0,0.0,0.0,0.0,0.0,0.0,0.0,0.0,0.0,0.0,0.0,0.0,0.0,0.0,0.0,0.0,0.0,0.0,0.0,0.0,5.2563,5.364,5.4178,5.4821,5.5693,5.6152,5.668,0.0,0.0,0.0,0.0,0.0,0.0,0.0,0.0,0.0,0.0,0.0,0.0,0.0,0.0,0.0,0.0,0.0,0.0,0.0,0.0,0.0,0.0,0.0,0.0,0.0,0.0,0.0,0.0,0.0,0.0,0.0,0.0,0.0,0.0,0.0,0.0,0.0,0.0,0.0,0.0,0.0,0.0,0.0,0.0,0.0,0.0,0.0,0.0,0.0,0.0,0.0,0.0,0.0,0.0,0.0,0.0,0.0,0.0,0.0,0.0,0.0,0.0,0.0,0.0,0.0,0.0,0.0,0.0,0.0,0.0,0.0,0.0,0.0,0.0,0.0,0.0,0.0,0.0,0.0,0.0,0.0,0.0,0.0,0.0,0.0,0.0,0.0,0.0,0.0,0.0,0.0,0.0,0.0,0.0,0.0,0.0,0.0,0.0,0.0,0.0,0.0,0.0,0.0,0.0,0.0,0.0,0.0,0.0,0.0,5.3465,5.3942,5.4454,5.5008,5.5741,5.6388,0.0,0.0,0.0,0.0,0.0,0.0,0.0,0.0,0.0,0.0,0.0,0.0,0.0,0.0,0.0,0.0,0.0,0.0,0.0,0.0,0.0,0.0,0.0,0.0,0.0,0.0,0.0,0.0,0.0,0.0,0.0,0.0,0.0,0.0,0.0,0.0,0.0,0.0,0.0,0.0,0.0,0.0,0.0,0.0,0.0,0.0,0.0,0.0,0.0,0.0,0.0,0.0,0.0,0.0,0.0,0.0,0.0,0.0,0.0,0.0,0.0,0.0,0.0,0.0,0.0,0.0,0.0,0.0,0.0,0.0,0.0,0.0,0.0,0.0,0.0,0.0,0.0,0.0,0.0,0.0,0.0,0.0,0.0,0.0,0.0,0.0,0.0,0.0,0.0,0.0,0.0,0.0,0.0,0.0,0.0,0.0,0.0,0.0,0.0,0.0,0.0,0.0,0.0,0.0,0.0,0.0,0.0,0.0,0.0,5.3144,5.3334,5.3726,5.4317,5.5028,5.5761,5.6511,0.0,0.0,0.0,0.0,0.0,0.0,0.0,0.0,0.0,0.0,0.0,0.0,0.0,0.0,0.0,0.0,0.0,0.0,0.0,0.0,0.0,0.0,0.0,0.0,0.0,0.0,0.0,0.0,0.0,0.0,0.0,0.0,0.0,0.0,0.0,0.0,0.0,0.0,0.0,0.0,0.0,0.0,0.0,0.0,0.0,0.0,0.0,0.0,0.0,0.0,0.0,0.0,0.0,0.0,0.0,0.0,0.0,0.0,0.0,0.0,0.0,0.0,0.0,0.0,0.0,0.0,0.0,0.0,0.0,0.0,0.0,0.0,0.0,0.0,0.0,0.0,0.0,0.0,0.0,0.0,0.0,0.0,0.0,0.0,0.0,0.0,0.0,0.0,0.0,0.0,0.0,0.0,0.0,0.0,0.0,0.0,0.0,0.0,0.0,0.0,0.0,0.0,0.0,0.0,0.0,0.0,0.0,0.0,5.2729,5.2481,5.281,5.3661,5.4168,5.4975,0.0,0.0,0.0,0.0,0.0,0.0,0.0,0.0,0.0,0.0,0.0,0.0,0.0,0.0,0.0,0.0,0.0,0.0,0.0,0.0,0.0,0.0,0.0,0.0,0.0,0.0,0.0,0.0,0.0,0.0,0.0,0.0,0.0,0.0,0.0,0.0,0.0,0.0,0.0,0.0,0.0,0.0,0.0,0.0,0.0,0.0,0.0,0.0,0.0,0.0,0.0,0.0,0.0,0.0,0.0,0.0,0.0,0.0,0.0,0.0,0.0,0.0,0.0,0.0,0.0,0.0,0.0,0.0,0.0,0.0,0.0,0.0,0.0,0.0,0.0,0.0,0.0,0.0,0.0,0.0,0.0,0.0,0.0,0.0,0.0,0.0,0.0,0.0,0.0,0.0,0.0,0.0,0.0,0.0,0.0,0.0,0.0,0.0,0.0,0.0,0.0,0.0,0.0,0.0,0.0,0.0,0.0,0.0,0.0,5.2729,5.2963,5.3213,5.3496,5.421,5.5028,0.0,0.0,0.0,0.0,0.0,0.0,0.0,0.0,0.0,0.0,0.0,0.0,0.0,0.0,0.0,0.0,0.0,0.0,0.0,0.0,0.0,0.0,0.0,0.0,0.0,0.0,0.0,0.0,0.0,0.0,0.0,0.0,0.0,0.0,0.0,0.0,0.0,0.0,0.0,0.0,0.0,0.0,0.0,0.0,0.0,0.0,0.0,0.0,0.0,0.0,0.0,0.0,0.0,0.0,0.0,0.0,0.0,0.0,0.0,0.0,0.0,0.0,0.0,0.0,0.0,0.0,0.0,0.0,0.0,0.0,0.0,0.0,0.0,0.0,0.0,0.0,0.0,0.0,0.0,0.0,0.0,0.0,0.0,0.0,0.0,0.0,0.0,0.0,0.0,0.0,0.0,0.0,0.0,0.0,0.0,0.0,0.0,0.0,0.0,0.0,0.0,0.0,0.0,0.0,0.0,0.0,0.0,0.0,5.4138,5.4184,5.434,5.4521,5.4747,5.512,5.5803,0.0,0.0,0.0,0.0,0.0,0.0,0.0,0.0,0.0,0.0,0.0,0.0,0.0,0.0,0.0,0.0,0.0,0.0,0.0,0.0,0.0,0.0,0.0,0.0,0.0,0.0,0.0,0.0,0.0,0.0,0.0,0.0,0.0,0.0,0.0,0.0,0.0,0.0,0.0,0.0,0.0,0.0,0.0,0.0,0.0,0.0,0.0,0.0,0.0,0.0,0.0,0.0,0.0,0.0,0.0,0.0,0.0,0.0,0.0,0.0,0.0,0.0,0.0,0.0,0.0,0.0,0.0,0.0,0.0,0.0,0.0,0.0,0.0,0.0,0.0,0.0,0.0,0.0,0.0,0.0,0.0,0.0,0.0,0.0,0.0,0.0,0.0,0.0,0.0,0.0,0.0,0.0,0.0,0.0,0.0,0.0,0.0,0.0,0.0,0.0,0.0,0.0,0.0,0.0,0.0,0.0,0.0,0.0,5.5669,5.6281,5.6144,5.6296,5.678,5.6477,5.6894,0.0,0.0,0.0,0.0,0.0,0.0,0.0,0.0,0.0,0.0,0.0,0.0,0.0,0.0,0.0,0.0,0.0,0.0,0.0,0.0,0.0,0.0,0.0,0.0,0.0,0.0,0.0,0.0,0.0,0.0,0.0,0.0,0.0,0.0,0.0,0.0,0.0,0.0,0.0,0.0,0.0,0.0,0.0,0.0,0.0,0.0,0.0,0.0,0.0,0.0,0.0,0.0,0.0,0.0,0.0,0.0,0.0,0.0,0.0,0.0,0.0,0.0,0.0,0.0,0.0,0.0,0.0,0.0,0.0,0.0,0.0,0.0,0.0,0.0,0.0,0.0,0.0,0.0,0.0,0.0,0.0,0.0,0.0,0.0,0.0,0.0,0.0,0.0,0.0,0.0,0.0,0.0,0.0,0.0,0.0,0.0,0.0,0.0,0.0,0.0,0.0,0.0,0.0,0.0,0.0,0.0,0.0,0.0,5.7034,5.7002,5.7482,5.7912,5.8227,5.7431,5.7313,0.0,0.0,0.0,0.0,0.0,0.0,0.0,0.0,0.0,0.0,0.0,0.0,0.0,0.0,0.0,0.0,0.0,0.0,0.0,0.0,0.0,0.0,0.0,0.0,0.0,0.0,0.0,0.0,0.0,0.0,0.0,0.0,0.0,0.0,0.0,0.0,0.0,0.0,0.0,0.0,0.0,0.0,0.0,0.0,0.0,0.0,0.0,0.0,7.3325,0.0,0.0,0.0,0.0,0.0,0.0,0.0,0.0,0.0,0.0,0.0,0.0,0.0,0.0,0.0,0.0,0.0,0.0,0.0,0.0,0.0,0.0,0.0,0.0,0.0,0.0,0.0,0.0,0.0,0.0,0.0,0.0,0.0,0.0,0.0,0.0,0.0,0.0,0.0,0.0,0.0,0.0,0.0,0.0,0.0,0.0,0.0,0.0,0.0,0.0,0.0,0.0,0.0,0.0,0.0,0.0,0.0,0.0,0.0,5.8766,5.886,5.923,5.9415,5.935,5.895,5.8829,0.0,0.0,0.0,0.0,0.0,0.0,0.0,0.0,0.0,0.0,0.0,0.0,0.0,0.0,0.0,0.0,0.0,0.0,0.0,0.0,0.0,0.0,0.0,0.0,0.0,0.0,0.0,0.0,0.0,0.0,0.0,0.0,0.0,0.0,0.0,0.0,0.0,0.0,0.0,0.0,0.0,0.0,0.0,0.0,0.0,0.0,0.0,0.0,0.0,0.0,0.0,0.0,0.0,0.0,0.0,0.0,0.0,0.0,0.0,0.0,0.0,0.0,0.0,0.0,0.0,0.0,0.0,0.0,0.0,0.0,0.0,0.0,0.0,0.0,0.0,0.0,0.0,0.0,0.0,0.0,0.0,0.0,0.0,0.0,0.0,0.0,0.0,0.0,0.0,0.0,0.0,0.0,0.0,0.0,0.0,0.0,0.0,0.0,0.0,0.0,0.0,0.0,0.0,0.0,0.0,0.0,0.0,6.0349,6.0444,6.079,6.0802,6.0612,6.0184,6.041,6.0517,6.0538,0.0,0.0,0.0,0.0,0.0,0.0,0.0,0.0,0.0,0.0,0.0,0.0,0.0,0.0,0.0,0.0,0.0,0.0,0.0,0.0,0.0,0.0,0.0,0.0,0.0,0.0,0.0,0.0,0.0,0.0,0.0,0.0,0.0,0.0,0.0,0.0,0.0,0.0,6.8379,6.8936,0.0,0.0,0.0,0.0,0.0,0.0,0.0,0.0,7.4602,0.0,0.0,0.0,0.0,0.0,0.0,0.0,0.0,0.0,0.0,0.0,0.0,0.0,0.0,0.0,0.0,0.0,0.0,0.0,0.0,0.0,0.0,0.0,0.0,0.0,0.0,0.0,0.0,0.0,0.0,0.0,0.0,0.0,0.0,0.0,0.0,0.0,0.0,0.0,0.0,0.0,0.0,0.0,0.0,0.0,0.0,0.0,0.0,0.0,0.0,0.0,0.0,0.0,0.0,0.0,0.0,6.1448,6.1441,6.1352,6.128,6.128,6.1073,6.0633,6.0856,6.0961,6.0981,0.0,0.0,0.0,0.0,0.0,0.0,0.0,0.0,0.0,0.0,0.0,0.0,0.0,0.0,0.0,0.0,0.0,0.0,0.0,0.0,0.0,0.0,0.0,0.0,0.0,0.0,0.0,0.0,0.0,0.0,0.0,0.0,0.0,0.0,0.0,0.0,0.0,0.0,0.0,6.8934,6.9639,0.0,0.0,0.0,0.0,0.0,0.0,0.0,0.0,7.5952,0.0,0.0,0.0,0.0,0.0,0.0,0.0,0.0,0.0,0.0,0.0,0.0,0.0,0.0,0.0,0.0,0.0,0.0,0.0,0.0,0.0,0.0,0.0,0.0,0.0,0.0,0.0,0.0,0.0,0.0,0.0,0.0,0.0,0.0,0.0,0.0,0.0,0.0,0.0,0.0,0.0,0.0,0.0,0.0,0.0,0.0,0.0,0.0,0.0,0.0,0.0,0.0,0.0,0.0,0.0,6.2064,6.2084,6.189,6.1567,6.1547,6.1447,6.1299,6.1649,6.1974,0.0,0.0,0.0,0.0,0.0,0.0,0.0,0.0,0.0,0.0,0.0,0.0,0.0,0.0,0.0,0.0,0.0,0.0,0.0,0.0,0.0,0.0,0.0,0.0,0.0,0.0,0.0,0.0,0.0,0.0,0.0,0.0,0.0,0.0,0.0,0.0,0.0,0.0,0.0,0.0,6.9179,6.9911,7.0759,0.0,0.0,0.0,0.0,0.0,0.0,7.5899,7.6543,0.0,0.0,0.0,0.0,0.0,0.0,0.0,0.0,0.0,0.0,0.0,0.0,0.0,0.0,0.0,0.0,0.0,0.0,0.0,0.0,0.0,0.0,0.0,0.0,0.0,0.0,0.0,0.0,0.0,0.0,0.0,0.0,0.0,0.0,0.0,0.0,0.0,0.0,0.0,0.0,0.0,0.0,0.0,0.0,0.0,0.0,0.0,0.0,0.0,0.0,0.0,0.0,0.0,0.0,0.0,6.2618,6.2753,6.2642,6.2259,6.2239,6.224,6.2238,6.2653,6.3078,0.0,0.0,0.0,0.0,0.0,0.0,0.0,0.0,0.0,0.0,0.0,0.0,0.0,0.0,0.0,0.0,0.0,0.0,0.0,0.0,0.0,0.0,0.0,0.0,0.0,0.0,0.0,0.0,0.0,0.0,0.0,0.0,0.0,0.0,0.0,0.0,0.0,0.0,0.0,0.0,0.0,7.036,7.0794,7.14,0.0,0.0,0.0,0.0,7.506,7.6039,0.0,0.0,0.0,0.0,0.0,0.0,0.0,0.0,0.0,0.0,0.0,0.0,0.0,0.0,0.0,0.0,0.0,0.0,0.0,0.0,0.0,0.0,0.0,0.0,0.0,0.0,0.0,0.0,0.0,0.0,0.0,0.0,0.0,0.0,0.0,0.0,0.0,0.0,0.0,0.0,0.0,0.0,0.0,0.0,0.0,0.0,0.0,0.0,0.0,0.0,0.0,0.0,0.0,0.0,0.0,0.0,6.3376,6.4038,6.4241,6.4016,6.4016,6.3905,6.3735,6.3965,6.4123,0.0,0.0,0.0,0.0,0.0,0.0,0.0,0.0,0.0,0.0,0.0,0.0,0.0,0.0,0.0,0.0,0.0,0.0,0.0,0.0,0.0,0.0,0.0,0.0,0.0,0.0,0.0,0.0,0.0,0.0,0.0,0.0,0.0,0.0,0.0,0.0,0.0,0.0,0.0,0.0,0.0,7.1037,7.1752,7.2416,7.3041,0.0,0.0,7.4975,7.5528,7.6188,0.0,0.0,0.0,0.0,0.0,0.0,0.0,0.0,0.0,0.0,0.0,0.0,0.0,0.0,0.0,0.0,0.0,0.0,0.0,0.0,0.0,0.0,0.0,0.0,0.0,0.0,0.0,0.0,0.0,0.0,0.0,0.0,0.0,0.0,0.0,0.0,0.0,0.0,0.0,0.0,0.0,0.0,0.0,0.0,0.0,0.0,0.0,0.0,0.0,0.0,0.0,0.0,0.0,0.0,0.0,6.3714,6.414,6.4444,6.4532,6.4293,6.4306,6.4404,6.4555,6.4787,6.5114,0.0,0.0,0.0,0.0,0.0,0.0,0.0,0.0,0.0,0.0,0.0,0.0,0.0,0.0,0.0,0.0,0.0,0.0,0.0,0.0,0.0,0.0,0.0,0.0,0.0,0.0,0.0,0.0,0.0,0.0,0.0,0.0,0.0,0.0,0.0,0.0,0.0,0.0,0.0,0.0,0.0,0.0,7.1929,7.2352,0.0,0.0,0.0,7.5527,7.6568,0.0,0.0,0.0,0.0,0.0,0.0,0.0,0.0,0.0,0.0,0.0,0.0,0.0,0.0,0.0,0.0,0.0,0.0,0.0,0.0,0.0,0.0,0.0,0.0,0.0,0.0,0.0,0.0,0.0,0.0,0.0,0.0,0.0,0.0,0.0,0.0,0.0,0.0,0.0,0.0,0.0,0.0,0.0,0.0,0.0,0.0,0.0,0.0,0.0,0.0,0.0,0.0,0.0,0.0,0.0,0.0,0.0,6.485,6.5053,6.5073,6.4928,6.4928,6.5114,6.5429,6.5632,0.0,0.0,0.0,0.0,0.0,0.0,0.0,0.0,0.0,0.0,0.0,0.0,0.0,0.0,0.0,0.0,0.0,0.0,0.0,0.0,0.0,0.0,0.0,0.0,0.0,0.0,0.0,6.9456,0.0,0.0,0.0,0.0,0.0,0.0,0.0,0.0,0.0,0.0,0.0,0.0,0.0,0.0,7.1866,7.2115,7.2367,7.2932,0.0,0.0,7.6148,7.7458,7.8279,7.8855,0.0,0.0,0.0,0.0,0.0,0.0,0.0,0.0,0.0,0.0,0.0,0.0,0.0,0.0,0.0,0.0,0.0,0.0,0.0,0.0,0.0,0.0,0.0,0.0,0.0,0.0,0.0,0.0,0.0,0.0,0.0,0.0,0.0,0.0,0.0,0.0,0.0,0.0,0.0,0.0,0.0,0.0,0.0,0.0,0.0,0.0,0.0,0.0,0.0,0.0,0.0,0.0,0.0,0.0,6.5581,6.5649,6.6305,6.6622,6.6635,6.6635,6.6635,6.6703,6.6703,6.6736,0.0,0.0,0.0,0.0,0.0,0.0,0.0,0.0,0.0,0.0,0.0,0.0,0.0,0.0,0.0,0.0,0.0,0.0,0.0,0.0,0.0,0.0,0.0,0.0,0.0,0.0,0.0,0.0,0.0,0.0,0.0,0.0,0.0,0.0,0.0,0.0,0.0,0.0,0.0,0.0,0.0,7.2355,7.2597,7.2877,7.3535,0.0,7.5892,7.6792,7.7899,7.8597,7.9078,7.9442,0.0,0.0,0.0,0.0,0.0,0.0,0.0,0.0,0.0,0.0,0.0,0.0,0.0,0.0,0.0,0.0,0.0,0.0,0.0,0.0,0.0,0.0,0.0,0.0,0.0,0.0,0.0,0.0,0.0,0.0,0.0,0.0,0.0,0.0,0.0,0.0,0.0,0.0,0.0,0.0,0.0,0.0,0.0,0.0,0.0,0.0,0.0,0.0,0.0,0.0,0.0,0.0,0.0,6.6136,6.7015,6.7354,6.7726,6.8178,6.8233,6.8233,6.8233,6.8233,6.8233,0.0,0.0,0.0,0.0,0.0,0.0,0.0,0.0,0.0,0.0,0.0,0.0,0.0,0.0,0.0,0.0,0.0,0.0,0.0,0.0,0.0,0.0,0.0,0.0,0.0,0.0,0.0,0.0,7.2881,7.3904,7.5014,0.0,0.0,0.0,0.0,0.0,0.0,0.0,0.0,0.0,0.0,7.4269,7.4069,7.4269,0.0,0.0,7.6924,7.796,7.9319,8.0026,8.0568,8.0921,8.1171,0.0,0.0,0.0,0.0,0.0,0.0,0.0,0.0,0.0,0.0,0.0,0.0,0.0,0.0,0.0,0.0,0.0,0.0,0.0,0.0,0.0,0.0,0.0,0.0,0.0,0.0,0.0,0.0,0.0,0.0,0.0,0.0,0.0,0.0,0.0,0.0,0.0,0.0,0.0,0.0,0.0,0.0,0.0,0.0,0.0,0.0,0.0,0.0,0.0,0.0,0.0,0.0,6.7218,6.8267,6.8267,6.8538,6.9079,6.9079,6.9079,6.9079,6.9079,6.9079,0.0,0.0,0.0,0.0,0.0,0.0,0.0,0.0,0.0,0.0,0.0,0.0,0.0,0.0,0.0,0.0,0.0,0.0,0.0,0.0,0.0,0.0,0.0,0.0,0.0,0.0,0.0,0.0,7.399,7.5257,7.6832,0.0,0.0,0.0,0.0,0.0,0.0,0.0,0.0,0.0,0.0,7.584,7.5628,7.5804,7.6314,7.7356,7.8241,7.9224,8.0459,8.1144,8.1615,8.1919,0.0,0.0,0.0,0.0,0.0,0.0,0.0,0.0,0.0,0.0,0.0,0.0,0.0,0.0,0.0,0.0,0.0,0.0,0.0,0.0,0.0,0.0,0.0,0.0,0.0,0.0,0.0,5.6601,0.0,0.0,5.8695,0.0,0.0,0.0,0.0,0.0,0.0,0.0,0.0,0.0,0.0,0.0,0.0,0.0,0.0,0.0,0.0,0.0,0.0,0.0,0.0,0.0,0.0,6.9011,6.9079,6.9079,6.9113,6.9147,6.9113,6.9147,6.9147,6.9113,6.9113,6.9147,0.0,0.0,0.0,0.0,0.0,0.0,0.0,0.0,0.0,0.0,0.0,0.0,0.0,0.0,0.0,0.0,0.0,0.0,0.0,0.0,0.0,0.0,0.0,0.0,0.0,0.0,7.314,7.4816,7.6497,0.0,0.0,0.0,0.0,0.0,0.0,0.0,0.0,0.0,7.7493,7.6976,7.6765,7.719,7.7331,7.7796,7.8958,7.9815,8.0549,8.1161,8.1596,8.1935,0.0,0.0,0.0,0.0,0.0,0.0,0.0,0.0,0.0,0.0,0.0,0.0,0.0,0.0,0.0,0.0,0.0,0.0,0.0,0.0,0.0,0.0,0.0,0.0,0.0,0.0,0.0,5.6976,5.7316,0.0,0.0,0.0,0.0,0.0,0.0,0.0,0.0,0.0,0.0,0.0,6.335,6.422,0.0,0.0,0.0,0.0,0.0,0.0,0.0,0.0,0.0,0.0,0.0,0.0,6.935,6.9789,6.9823,7.006,7.0567,7.0545,7.0545,7.0567,7.0545,7.0567,7.0545,0.0,0.0,0.0,0.0,0.0,0.0,0.0,0.0,0.0,0.0,0.0,0.0,0.0,0.0,0.0,0.0,0.0,0.0,0.0,0.0,0.0,0.0,0.0,0.0,0.0,7.4343,0.0,0.0,0.0,0.0,0.0,0.0,0.0,0.0,0.0,0.0,7.9111,7.9285,7.8891,7.9102,7.9234,7.9102,7.9251,7.9548,0.0,0.0,0.0,0.0,0.0,0.0,0.0,0.0,0.0,0.0,0.0,0.0,0.0,0.0,8.2186,8.2186,8.2186,8.2186,8.2186,0.0,0.0,0.0,0.0,0.0,0.0,0.0,0.0,0.0,0.0,0.0,0.0,0.0,0.0,5.7689,5.814,5.8791,0.0,0.0,0.0,0.0,0.0,0.0,0.0,0.0,6.3589,6.4114,6.4672,6.5517,6.6524,6.7593,6.8299,6.8909,0.0,0.0,0.0,0.0,0.0,0.0,0.0,0.0,7.0094,7.0567,7.0567,7.0838,7.1255,7.1526,7.1661,7.1684,7.1954,7.2056,7.2056,7.2056,7.2056,0.0,0.0,0.0,0.0,0.0,0.0,0.0,0.0,0.0,0.0,0.0,0.0,0.0,0.0,0.0,0.0,0.0,0.0,0.0,0.0,0.0,0.0,0.0,7.617,0.0,0.0,0.0,0.0,0.0,0.0,0.0,0.0,0.0,7.9835,8.0235,8.0539,8.0276,8.0622,8.0804,8.0476,0.0,0.0,0.0,0.0,0.0,0.0,0.0,8.2055,8.217,8.2186,8.2186,8.2186,8.2186,8.2186,8.2186,0.0,0.0,8.2186,8.2186,8.2186,8.2186,8.2186,8.2186,8.2186,8.2186,8.2186,0.0,0.0,0.0,0.0,5.7124,0.0,0.0,0.0,5.7962,5.8553,0.0,6.0032,0.0,0.0,0.0,0.0,6.5616,6.5158,0.0,0.0,6.4332,6.448,6.509,6.6072,6.7144,6.838,6.9409,7.0243,7.0871,6.9814,0.0,0.0,0.0,0.0,0.0,0.0,7.1357,7.1357,7.1413,7.1357,7.1447,7.209,7.2428,7.2428,7.3105,7.3466,7.35,7.3466,7.3466,7.35,7.3466,0.0,0.0,0.0,0.0,0.0,0.0,0.0,0.0,0.0,0.0,0.0,0.0,0.0,0.0,0.0,0.0,0.0,0.0,0.0,0.0,7.7243,0.0,0.0,0.0,0.0,0.0,0.0,0.0,0.0,0.0,8.1827,8.0841,8.124,8.1632,8.1596,0.0,0.0,0.0,0.0,8.1301,8.1337,8.1666,8.1902,8.1902,8.2088,8.2186,8.2186,0.0,0.0,8.2186,8.2223,8.226,8.2223,8.2296,8.226,8.2313,8.226,8.2186,8.2186,8.2186,8.2186,8.2186,8.226,8.2296,5.8411,0.0,0.0,0.0,0.0,5.883,5.9219,5.9279,5.9967,6.0456,6.0811,6.1264,0.0,0.0,0.0,0.0,0.0,0.0,6.5835,6.581,6.625,6.6799,6.7496,6.8217,6.9022,6.9913,7.0878,7.158,7.1976,7.2168,7.1718,7.0703,0.0,0.0,0.0,0.0,7.2868,7.2868,7.2868,7.2868,7.2868,7.3094,7.3195,7.3195,7.3398,7.35,7.35,7.35,7.35,7.35,7.35,0.0,0.0,0.0,0.0,0.0,0.0,0.0,0.0,0.0,0.0,0.0,0.0,0.0,0.0,0.0,0.0,0.0,0.0,0.0,7.7264,7.7881,7.8655,0.0,0.0,0.0,0.0,0.0,0.0,0.0,0.0,0.0,8.1827,8.1888,8.2002,0.0,0.0,8.1935,8.1935,8.1935,8.1919,8.1972,8.2055,0.0,8.2121,8.2154,8.2186,8.2186,8.2186,8.2186,8.2186,8.2663,8.3051,8.3051,8.3508,8.3911,8.3838,8.2957,8.226,8.2186,8.2186,8.2186,8.2223,8.2627,8.3051,5.9787,5.874,5.9102,5.9281,5.9341,6.0146,6.0505,6.0505,6.0924,6.1271,6.1516,6.1822,6.2574,6.3738,6.5112,0.0,0.0,0.0,6.7379,6.7404,6.8241,6.8916,6.9485,7.0349,7.0985,7.1559,7.2275,7.2696,7.2834,7.3274,7.306,7.2225,0.0,7.2834,7.2834,7.3297,7.35,7.35,7.35,7.35,7.35,7.3781,7.4086,7.4356,7.4356,7.4356,7.4356,7.438,7.438,7.4356,7.4356,7.4356,0.0,0.0,0.0,0.0,0.0,0.0,0.0,0.0,0.0,0.0,0.0,7.4003,7.4417,0.0,0.0,0.0,7.6898,7.7764,7.8851,7.9305,0.0,0.0,0.0,0.0,0.0,0.0,0.0,8.2186,8.2186,8.2186,8.2186,8.2186,8.2186,8.2186,8.2186,8.2186,8.2186,0.0,8.2186,8.2186,8.2186,8.2186,8.2186,8.2186,8.2313,8.2627,8.2957,8.3141,8.3177,8.3581,8.3858,8.3948,8.4278,8.4609,8.4609,8.3765,8.3141,8.3141,8.3141,8.3141,8.3141,8.3544,8.3875,6.1224,6.1225,6.1283,6.1166,6.1076,6.1136,6.1194,6.1166,6.1225,6.1363,6.1642,6.1976,6.2999,6.4648,6.6906,0.0,6.8812,6.9108,6.9264,6.9312,7.0239,7.0803,7.1136,7.22,7.2868,7.3127,7.3452,7.3578,7.3601,7.3669,7.3703,7.3669,7.3703,7.3635,7.3578,7.3669,7.3669,7.3669,7.368,7.3703,7.3703,7.4356,7.4999,7.5676,7.5676,7.5676,7.5676,7.5676,7.5676,7.5676,7.5676,7.5676,7.5709,0.0,0.0,0.0,0.0,0.0,0.0,0.0,0.0,0.0,0.0,0.0,0.0,0.0,0.0,7.7202,7.8731,0.0,8.0695,8.1108,0.0,0.0,0.0,8.2186,8.2186,8.2186,8.2186,8.2186,0.0,0.0,8.2186,8.2186,8.2186,8.2186,8.2186,8.2186,8.2186,8.2186,8.2186,8.2186,8.226,8.2296,8.237,8.2443,8.2737,8.3398,8.4132,8.4462,8.4535,8.4646,8.4682,8.4682,8.4756,8.4829,8.4829,8.4829,8.4792,8.4792,8.4646,8.4535,8.4499,8.4609,8.4682,6.2151,6.26,6.263,6.2032,6.1164,6.1642,6.1852,6.1912,6.2419,6.2657,6.2743,6.3028,6.4401,6.6583,6.8222,6.9556,7.0607,7.1111,7.1406,7.16,7.1839,7.2147,7.2586,7.2872,7.3127,7.3418,7.4062,7.4356,7.4356,7.4897,7.5168,7.5168,7.5168,7.4897,7.439,7.4897,7.5168,7.5168,7.5168,7.5168,7.5168,7.5371,7.554,7.5676,7.5676,7.5676,7.5676,7.5676,7.5676,7.5676,7.5676,7.5676,7.5676,7.5947,0.0,0.0,0.0,0.0,0.0,0.0,0.0,0.0,0.0,7.6681,7.7142,0.0,7.7881,0.0,7.9956,8.0858,8.1337,8.1596,0.0,0.0,8.217,8.2186,8.2186,8.2186,8.2186,8.2186,8.2186,8.2186,8.2186,8.2186,8.2186,8.2186,8.2186,8.2186,8.2186,8.2186,8.2186,8.226,8.2774,8.3087,8.3177,8.3654,8.4095,8.4278,8.4499,8.4609,8.4609,8.5123,8.5527,8.5563,8.604,8.6371,8.6407,8.6427,8.6407,8.6334,8.549,8.4609,8.4609,8.5086,8.549,6.2778,6.3108,6.3407,6.3079,6.2421,6.248,6.2539,6.2599,6.3228,6.3555,6.3787,6.5033,6.6654,6.8463,6.9742,7.0838,7.1755,7.2268,7.2558,7.2735,7.3156,7.3514,7.3784,7.4111,7.4317,7.4492,7.4897,7.51,7.5134,7.5506,7.5676,7.5676,7.5676,7.5473,7.5134,7.5506,7.5676,7.5676,7.5676,7.5676,7.5676,7.5676,7.5676,7.5676,7.5676,7.5676,7.5676,7.5676,7.5676,7.5676,7.5676,7.5676,7.5676,7.5947,7.6216,0.0,0.0,0.0,0.0,0.0,0.0,0.0,0.0,0.0,0.0,0.0,7.9265,8.0232,8.0804,8.1302,8.1681,8.1835,8.2005,8.217,8.2186,8.2186,8.2186,8.2186,8.2186,8.2186,8.2186,8.2186,8.2186,8.2517,8.2737,8.2737,8.3067,8.3141,8.281,8.2737,8.2847,8.3214,8.3654,8.3931,8.3948,8.4609,8.5123,8.5159,8.5416,8.5673,8.5673,8.604,8.6334,8.6371,8.6701,8.7014,8.7014,8.7014,8.7014,8.6867,8.628,8.573,8.5673,8.604,8.6351,6.3347,6.3378,6.3917,6.4126,6.4096,6.3558,6.3347,6.3407,6.3887,6.439,6.4942,6.7225,6.8965,7.0228,7.1362,7.2175,7.2786,7.3241,7.3454,7.3487,7.434,7.4762,7.4796,7.5405,7.5676,7.5676,7.5676,7.5676,7.5676,7.5676,7.5676,7.5676,7.5676,7.5676,7.5676,7.5676,7.5676,7.5676,7.5676,7.5676,7.5676,7.5676,7.5676,7.5676,7.5676,7.5676,7.5676,7.5676,7.5676,7.5676,7.5676,7.5676,7.5709,7.5981,7.6216,0.0,7.6918,0.0,0.0,0.0,0.0,0.0,0.0,0.0,0.0,7.9754,8.0419,8.1266,8.1407,8.1544,8.1902,8.1935,8.2022,8.217,8.2186,8.2186,8.2186,8.2296,8.2333,8.237,8.2443,8.2517,8.259,8.3141,8.3564,8.3601,8.4078,8.4278,8.3858,8.3638,8.3801,8.4535,8.4682,8.4792,8.4976,8.5527,8.593,8.604,8.6444,8.6978,8.6904,8.6941,8.7014,8.7142,8.7161,8.7234,8.7271,8.7379,8.7396,8.747,8.7431,8.7284,8.6975,8.6902,8.7081,6.4665,6.4635,6.4755,6.4815,6.4785,6.4695,6.4635,6.4635,6.4755,6.5433,6.6531,6.7915,6.959,7.148,7.2613,7.372,7.4743,7.5055,7.5198,7.5198,7.5415,7.5506,7.5506,7.5642,7.5676,7.5676,7.5676,7.5676,7.5676,7.5676,7.5676,7.5676,7.5676,7.5676,7.5676,0.0,0.0,0.0,7.5676,7.5676,7.5676,7.5676,7.5676,7.5676,7.5676,0.0,7.5676,7.5676,7.5676,7.5676,7.5676,0.0,0.0,0.0,0.0,0.0,0.0,0.0,0.0,0.0,0.0,0.0,7.9115,7.9455,7.9908,8.075,8.1407,8.1768,8.1919,8.2071,8.2137,8.2137,8.2154,8.2186,8.2186,8.2186,8.2223,8.2774,8.3161,8.3161,8.3728,8.4132,8.4095,8.4278,8.4389,8.4389,8.4499,8.4792,8.527,8.4756,8.4462,8.4609,8.5196,8.582,8.6427,8.6647,8.6701,8.6811,8.6848,8.7014,8.7051,8.7051,8.7325,8.7839,8.7949,8.8206,8.8793,8.9063,8.9074,8.9185,8.9305,8.8954,8.7394,8.7152,8.7268,6.4994,6.5024,6.5353,6.5473,0.0,6.5862,6.6102,6.6222,6.5892,6.678,6.8616,6.989,7.1399,7.2977,7.3973,7.4761,7.5518,7.5638,7.5676,7.5676,7.5676,7.5676,7.5676,7.5676,7.5676,7.5676,7.5676,7.5676,7.5676,7.5676,7.5676,7.5676,7.5676,7.5676,7.5676,7.5676,7.5676,7.5676,7.5676,7.5676,7.5676,7.5676,7.5676,7.5676,7.5676,0.0,0.0,0.0,0.0,0.0,0.0,0.0,0.0,7.5828,7.5981,7.6098,7.6438,7.6828,7.7189,7.7654,7.8194,7.8829,7.9715,8.0363,8.0677,8.1355,8.1835,8.2002,8.2154,8.2186,8.2186,8.2553,8.281,8.281,8.3141,8.3398,8.3434,8.3765,8.4005,8.4005,8.4335,8.4609,8.4609,8.4976,8.5159,8.5233,8.5563,8.593,8.6224,8.571,8.5306,8.571,8.6077,8.6518,8.6867,8.7014,8.7014,8.7014,8.7308,8.7582,8.7619,8.7895,8.837,8.8843,8.8951,8.9133,8.9617,8.9884,8.9985,9.0069,9.0206,9.0,8.8897,8.8733,8.8816,6.5353,6.5383,6.5951,6.6191,6.6221,6.682,6.7365,6.7699,6.7214,0.0,0.0,7.1842,7.309,7.4206,7.4951,7.5446,7.5676,7.5676,7.5676,7.5676,7.5676,7.5676,7.5676,7.5676,7.5676,7.5676,7.5676,7.5676,7.5676,7.5676,7.5676,7.5676,7.5676,7.5777,7.5912,7.5912,7.5946,7.6082,7.5845,7.5676,7.5676,7.5676,7.5676,7.5676,7.5676,7.5777,7.5912,7.5912,7.598,7.6082,7.6082,7.6115,7.6115,7.6082,7.6211,7.6401,7.6483,7.6778,7.741,7.7747,7.8385,7.9417,8.07,8.1489,8.1555,8.19,8.2295,8.2574,8.2627,8.2627,8.2627,8.3214,8.3601,8.3601,8.4205,8.4572,8.4609,8.4756,8.4792,8.4829,8.4976,8.5049,8.5123,8.5637,8.6004,8.6077,8.6518,8.7014,8.6941,8.6407,8.6187,8.6738,8.6867,8.7014,8.7198,8.7234,8.7252,8.7528,8.8059,8.839,8.85,8.8995,8.9541,8.9917,8.9986,9.0264,9.0622,9.0901,9.087,9.1014,9.1093,9.1162,9.1124,9.1077,9.096,6.67,6.6729,6.6819,6.6849,6.691,6.7244,6.794,6.8713,6.8854,6.9691,7.1052,7.2219,7.3382,7.4456,7.5058,7.5446,7.5676,7.5676,7.5676,7.5676,7.5676,7.5676,7.5676,7.5676,7.5676,7.5676,7.5676,7.5676,7.5676,7.5709,7.5676,7.5709,7.5676,7.6048,7.6657,7.6724,7.7029,7.7628,7.6376,7.5676,7.5676,7.5676,7.5676,7.5676,7.5709,7.6014,7.669,7.6724,7.7029,7.7628,7.7671,7.7696,7.7671,7.7638,7.7696,7.7745,7.7905,7.8136,7.8492,7.9097,8.0116,8.1566,8.2545,8.294,8.264,8.2963,8.3474,8.4168,8.4168,8.4278,8.4278,8.4352,8.4425,8.4462,8.4535,8.4609,8.4719,8.5233,8.56,8.5637,8.6261,8.6611,8.6537,8.6684,8.6775,8.6794,8.6958,8.7051,8.7124,8.6904,8.6885,8.6978,8.7014,8.7288,8.7876,8.8023,8.828,8.8959,8.9106,8.9234,8.9252,8.9613,9.0101,9.0844,9.1222,9.1708,9.2439,9.2937,9.2974,9.299,9.3207,9.3405,9.3382,9.354,9.3247,6.6999,6.6999,6.6999,6.6999,6.706,6.7699,6.8535,6.9443,7.0243,7.0914,7.1657,7.2776,7.3851,7.4763,7.5301,7.559,7.5676,7.5676,7.5676,7.5676,7.5676,7.5676,7.5676,7.5676,7.5676,7.5676,7.5676,7.5676,7.5743,7.6115,7.6352,7.6386,7.6724,7.713,7.7468,7.7527,7.7638,7.7967,7.7324,7.6927,7.6927,7.6961,7.6961,7.6985,7.6927,7.7096,7.7468,7.7502,7.7638,7.8,7.801,7.801,7.801,7.801,7.801,7.8,7.8065,7.8308,7.8692,7.9852,8.112,8.2385,8.3169,8.3773,8.4235,8.4127,8.4205,8.4572,8.4609,8.4609,8.4609,8.5013,8.5233,8.5233,8.5637,8.5894,8.593,8.6187,8.6444,8.6481,8.6775,8.6978,8.7014,8.7014,8.7014,8.7014,8.7325,8.7766,8.8189,8.8299,8.8115,8.7785,8.8005,8.8409,8.8776,8.8849,8.8996,8.9363,8.9767,9.0077,9.0239,9.0654,9.141,9.2097,9.2513,9.2972,9.3635,9.3914,9.4072,9.4249,9.4387,9.4521,9.4574,9.4782,9.4653,6.6999,6.6999,6.6999,6.7122,6.7396,6.8238,6.918,7.0186,7.1273,7.2014,7.2497,7.3434,7.4306,7.5091,7.5518,7.5676,7.5676,7.5676,7.5676,7.5676,7.5676,7.5676,7.5709,7.5879,7.598,7.6014,7.6115,7.6217,7.6284,7.686,7.713,7.7198,7.773,7.8102,7.8247,7.8247,7.8339,7.8508,7.8483,7.8348,7.801,7.801,7.801,7.801,7.7976,7.8102,7.8213,7.8247,7.8314,7.8483,7.8508,7.8508,7.8483,7.8483,7.8483,7.8508,7.8557,7.8866,7.954,8.0954,8.2235,8.3291,8.3916,8.4663,8.56,8.5388,8.5123,8.5159,8.5196,8.5196,8.5306,8.5673,8.6077,8.6077,8.6591,8.6904,8.6978,8.7014,8.7014,8.7014,8.7178,8.7271,8.7271,8.7418,8.7601,8.7748,8.8096,8.8702,8.929,8.951,8.9363,8.905,8.9143,8.9436,8.962,8.9693,8.9767,8.9877,9.0518,9.0973,9.1297,9.2003,9.2653,9.3179,9.359,9.3934,9.44,9.464,9.4781,9.492,9.5044,9.5103,9.5163,9.5383,9.5588,6.6999,6.6999,6.6999,6.7487,6.8297,6.8976,6.9899,7.1052,7.195,7.2808,7.3544,7.4155,7.4729,7.5277,7.559,7.5676,7.5709,7.5709,7.5709,7.5743,7.5709,7.5709,7.5845,7.6454,7.6792,7.686,7.7401,7.7662,7.7638,7.7831,7.7933,7.7874,7.8,7.8382,7.8923,7.8966,7.9329,7.9972,8.0006,7.9329,7.8102,7.801,7.801,7.801,7.8034,7.8314,7.8932,7.9025,7.9295,7.9938,7.9938,7.9972,7.9972,7.9972,7.9972,7.9997,8.0189,8.0829,8.1968,8.3038,8.3985,8.4888,8.5492,8.6029,8.6515,8.6671,8.6775,8.6721,8.6757,8.6647,8.6757,8.6794,8.6831,8.6885,8.6978,8.7014,8.7124,8.7014,8.7014,8.7014,8.7729,8.8096,8.8169,8.8592,8.9033,8.9069,8.9143,8.94,8.9657,9.0134,9.0464,9.0262,8.9913,8.9803,9.028,9.0482,9.072,9.1362,9.1746,9.1978,9.2222,9.2666,9.3269,9.3732,9.4212,9.4679,9.5007,9.5298,9.5486,9.5639,9.574,9.5757,9.5807,9.6064,9.6171,6.6999,6.7029,6.7213,6.7939,6.8976,6.9784,7.0802,7.1923,7.2782,7.3646,7.4406,7.4837,7.5106,7.5325,7.559,7.5676,7.5709,7.6183,7.642,7.6454,7.686,7.7087,7.7096,7.7367,7.7536,7.7536,7.7865,7.801,7.8077,7.8416,7.8855,7.9261,7.9295,7.9464,7.9735,7.9769,7.9938,8.0175,8.0209,7.9904,7.9397,7.9295,7.9295,7.9295,7.9295,7.9397,7.9701,7.9769,7.9904,8.0175,8.0209,8.0209,8.0209,8.0209,8.025,8.0426,8.1117,8.1966,8.3005,8.3918,8.4808,8.5668,8.6174,8.6572,8.6875,8.7383,8.7729,8.7655,8.7271,8.7014,8.7014,8.7014,8.7178,8.7565,8.7692,8.7876,8.8372,8.8372,8.8409,8.8445,8.8702,8.8923,8.8923,8.9179,8.9583,8.995,9.0097,9.0207,9.0702,9.1106,9.1253,9.1289,9.0996,9.0959,9.1234,9.1398,9.1635,9.191,9.2233,9.2493,9.2847,9.3248,9.3717,9.4239,9.4807,9.5227,9.5421,9.5664,9.588,9.6284,9.7162,9.7457,9.7567,9.7664,9.7664,6.6999,6.7091,6.7548,6.8446,6.9643,7.0634,7.1807,7.3101,7.3969,7.4839,7.5603,7.5931,7.6028,7.6053,7.6019,7.6115,7.6386,7.6927,7.7198,7.7266,7.7739,7.7976,7.801,7.8213,7.8314,7.8314,7.8517,7.8619,7.8653,7.9092,7.9701,8.0141,8.0209,8.0209,8.0209,8.0209,8.0209,8.0209,8.0209,8.0209,8.0175,8.0209,8.0209,8.0209,8.0209,8.0209,8.0209,8.0209,8.0209,8.0209,8.0209,8.0209,8.0209,8.0209,8.0401,8.0956,8.2009,8.3051,8.4045,8.5064,8.5991,8.6736,8.7158,8.7426,8.7713,8.8189,8.85,8.8482,8.8023,8.7711,8.7638,8.7638,8.7932,8.8463,8.8536,8.8793,8.929,8.94,8.9326,8.94,8.9546,8.984,8.9987,9.0134,9.0408,9.0849,9.0959,9.1069,9.1657,9.173,9.1767,9.1822,9.1803,9.1857,9.1894,9.1982,9.218,9.2424,9.268,9.3056,9.3411,9.3806,9.4452,9.5173,9.5591,9.6144,9.6712,9.682,9.6825,9.7497,9.82,9.8682,9.8519,9.875,9.875,6.6999,6.7122,6.7999,6.9094,7.0271,7.1502,7.3052,7.4719,7.5546,7.6475,7.7311,7.7659,7.7841,7.7782,7.7198,7.7232,7.7797,7.7908,7.7967,7.7967,7.8068,7.8068,7.8044,7.872,7.9058,7.9126,7.9634,7.9938,8.0006,8.0073,8.0175,8.0209,8.0209,8.0209,8.0242,8.0276,8.0209,8.0344,8.0378,8.0276,8.0276,8.0276,8.031,8.0344,8.0209,8.0276,8.0276,8.0242,8.0242,8.0242,8.031,8.0276,8.0242,8.0302,8.0777,8.1726,8.3091,8.4405,8.5534,8.6868,8.7899,8.8506,8.8673,8.9037,8.9052,8.9253,8.9326,8.9363,8.9326,8.929,8.929,8.9069,8.9143,8.929,8.9363,8.94,8.9473,8.9657,8.9436,8.962,9.017,9.0739,9.1473,9.1693,9.1546,9.162,9.1693,9.173,9.173,9.1803,9.1803,9.184,9.1948,9.2074,9.2109,9.2338,9.2562,9.2827,9.321,9.3747,9.4081,9.4557,9.5427,9.6186,9.6697,9.7344,9.815,9.8518,9.849,9.8779,9.8885,9.9125,9.9442,9.8981,9.9058,6.7244,6.7759,6.9113,7.0384,7.1611,7.3446,7.4931,7.6048,7.6718,7.7311,7.7794,7.7951,7.8247,7.8686,7.845,7.8179,7.8044,7.8483,7.8686,7.8754,7.916,7.9397,7.9431,7.9701,7.9803,7.987,8.0073,8.0209,8.0209,8.0209,8.0209,8.0209,8.0209,8.0412,8.0818,8.0885,8.1122,8.1562,8.1629,8.1629,8.1562,8.1629,8.1596,8.1562,8.1122,8.1122,8.1596,8.1629,8.1596,8.1604,8.1629,8.1629,8.1681,8.2105,8.2644,8.3361,8.4654,8.5818,8.6875,8.7775,8.8462,8.8947,8.9166,8.9347,8.9492,8.984,9.017,9.0207,9.0665,9.0922,9.0721,9.0024,8.962,9.006,9.017,9.0354,9.0812,9.0922,9.0922,9.0996,9.1253,9.151,9.1657,9.1803,9.1803,9.1803,9.1803,9.1803,9.1803,9.1803,9.1803,9.184,9.1984,9.2233,9.2613,9.2781,9.3028,9.3367,9.3814,9.4626,9.5183,9.5766,9.6543,9.7412,9.7922,9.8237,9.8922,9.9375,9.9519,9.9683,9.9788,10.0019,10.0404,10.0058,10.0135,6.7817,6.8819,7.0147,7.1478,7.2848,7.4762,7.6247,7.7225,7.7816,7.831,7.8686,7.872,7.8991,7.9397,7.9464,7.9194,7.8788,7.9261,7.9439,7.9498,7.9972,8.0209,8.0209,8.0209,8.0209,8.0209,8.0209,8.0209,8.0242,8.0445,8.0547,8.0547,8.0784,8.1156,8.1562,8.1663,8.1934,8.2314,8.2382,8.2382,8.2382,8.2382,8.2543,8.2644,8.2272,8.2103,8.2382,8.2382,8.2382,8.2382,8.2382,8.2433,8.2555,8.3191,8.3924,8.468,8.5992,8.7215,8.8194,8.902,8.9621,8.9935,9.0098,9.017,9.0207,9.0684,9.0922,9.1106,9.14,9.1803,9.162,9.0812,9.0391,9.0886,9.0996,9.1179,9.1693,9.1767,9.173,9.1693,9.1693,9.1767,9.1803,9.1803,9.1803,9.1803,9.1803,9.1803,9.1803,9.1803,9.184,9.1949,9.2439,9.2986,9.3689,9.4273,9.4467,9.4759,9.4943,9.5692,9.6459,9.7055,9.7697,9.8518,9.9025,9.924,9.9596,10.0087,10.0327,10.0491,10.0635,10.0779,10.101,10.1164,10.101,6.8781,7.0006,7.1011,7.2313,7.3772,7.5417,7.6899,7.8216,7.8851,7.9406,7.987,8.0073,8.0006,8.0141,8.0073,8.0107,8.0006,8.004,8.0073,8.0107,8.0175,8.0209,8.0209,8.0209,8.0276,8.031,8.0276,8.031,8.0445,8.0987,8.1291,8.1452,8.1934,8.2179,8.2408,8.2408,8.2441,8.2611,8.2618,8.2551,8.2415,8.2611,8.2915,8.3422,8.3456,8.3152,8.2551,8.2517,8.2584,8.2551,8.2551,8.2571,8.3015,8.3597,8.4271,8.5587,8.7076,8.849,8.9579,9.0642,9.1253,9.1437,9.1657,9.1546,9.151,9.162,9.1657,9.1693,9.173,9.1803,9.1803,9.162,9.1583,9.1767,9.1657,9.1693,9.1767,9.1803,9.1803,9.1803,9.1803,9.1803,9.1803,9.1803,9.1803,9.1803,9.1803,9.1877,9.1987,9.2024,9.1968,9.2386,9.3166,9.4019,9.5009,9.5917,9.6103,9.631,9.6462,9.6875,9.7756,9.8427,9.8856,9.9613,9.9912,10.0144,10.0375,10.0817,10.0894,10.1058,10.1279,10.1279,10.1279,10.1279,10.1279,6.9545,7.0465,7.2077,7.3502,7.4879,7.6828,7.8245,7.9072,7.9609,8.0006,8.0175,8.0209,8.0209,8.0209,8.0209,8.0209,8.0209,8.0209,8.0209,8.0242,8.0209,8.0209,8.0209,8.0209,8.0445,8.0987,8.1494,8.1697,8.1731,8.1934,8.2069,8.2137,8.2306,8.2652,8.3152,8.3186,8.3355,8.387,8.3903,8.3903,8.3903,8.3903,8.4005,8.4208,8.4242,8.4106,8.3937,8.3903,8.3903,8.387,8.3903,8.414,8.4652,8.5451,8.6318,8.723,8.8534,8.9621,9.04,9.11,9.1601,9.1767,9.1803,9.1803,9.1803,9.1803,9.1803,9.1803,9.1803,9.1803,9.1803,9.1803,9.1803,9.1803,9.1803,9.1803,9.1803,9.1803,9.1803,9.1803,9.1803,9.1803,9.1803,9.184,9.195,9.195,9.1913,9.2024,9.2537,9.2703,9.3052,9.3712,9.4486,9.5169,9.6058,9.7024,9.7604,9.7777,9.7918,9.8134,9.894,9.9514,9.9989,10.0346,10.0692,10.0933,10.1164,10.1279,10.1279,10.1279,10.1279,10.1279,10.1279,10.1279,10.1279,7.0428,7.1507,7.3181,7.4664,7.6066,7.7903,7.8955,7.957,8.0006,8.0209,8.0209,8.0209,8.0209,8.0209,8.0209,8.0344,8.0581,8.064,8.075,8.0919,8.0682,8.0615,8.0648,8.0919,8.1224,8.1697,8.2171,8.2408,8.2441,8.2678,8.2813,8.2813,8.3084,8.3456,8.3896,8.3903,8.4174,8.4546,8.458,8.458,8.458,8.458,8.458,8.458,8.458,8.458,8.458,8.458,8.458,8.4633,8.4766,8.5178,8.5847,8.67,8.7609,8.8538,8.9478,9.0385,9.0975,9.1378,9.1675,9.1785,9.1803,9.1803,9.1803,9.1803,9.1803,9.1803,9.1803,9.1803,9.1803,9.1803,9.1913,9.2244,9.1987,9.1803,9.1803,9.1803,9.1803,9.184,9.2097,9.2244,9.2281,9.2611,9.2684,9.2721,9.2721,9.2831,9.3437,9.3639,9.4154,9.4829,9.5568,9.6281,9.7061,9.8003,9.9002,9.9243,9.9358,9.9616,10.0151,10.0354,10.0721,10.0836,10.1087,10.1087,10.1279,10.1279,10.1279,10.1279,10.1279,10.1279,10.1279,10.1279,10.1279,7.1527,7.3046,7.4324,7.573,7.7175,7.8418,7.9251,7.9776,8.0082,8.0209,8.0209,8.0209,8.0242,8.0276,8.0378,8.0716,8.1283,8.1384,8.1629,8.1968,8.1765,8.152,8.1452,8.2002,8.2374,8.2475,8.2611,8.2618,8.2787,8.3287,8.3558,8.3625,8.4133,8.4546,8.4478,8.458,8.4512,8.458,8.458,8.458,8.458,8.458,8.458,8.458,8.458,8.458,8.458,8.458,8.458,8.4694,8.5134,8.5745,8.6573,8.7302,8.8164,8.9134,9.0043,9.0684,9.1151,9.1564,9.1785,9.1803,9.1803,9.1803,9.1803,9.1803,9.1877,9.1987,9.1987,9.1987,9.206,9.2134,9.2464,9.2905,9.2648,9.2244,9.1987,9.206,9.2244,9.2281,9.2684,9.3161,9.3161,9.3712,9.4006,9.4079,9.4042,9.4042,9.4337,9.454,9.485,9.5643,9.6634,9.7425,9.8206,9.9011,9.9901,10.0109,10.0282,10.0517,10.0768,10.0952,10.1096,10.1202,10.1279,10.1279,10.1279,10.1279,10.1279,10.1279,10.1279,10.1279,10.1279,10.1279,10.1279,7.2706,7.4054,7.5303,7.6569,7.7818,7.879,7.9433,7.9827,8.0082,8.0242,8.0209,8.0209,8.0547,8.0953,8.1046,8.1393,8.1968,8.2103,8.2171,8.2441,8.2813,8.2577,8.234,8.2847,8.3219,8.3287,8.3659,8.4005,8.4039,8.4106,8.4302,8.4309,8.4444,8.458,8.458,8.458,8.458,8.458,8.458,8.458,8.458,8.458,8.458,8.458,8.458,8.458,8.458,8.458,8.4747,8.4985,8.5446,8.61,8.688,8.7784,8.8695,8.9584,9.0364,9.0958,9.1377,9.1657,9.1803,9.1803,9.1877,9.1803,9.1803,9.1803,9.2097,9.2537,9.2758,9.2978,9.3455,9.3602,9.3786,9.3896,9.3749,9.3565,9.3529,9.3639,9.3639,9.3694,9.3822,9.3932,9.4042,9.4226,9.4446,9.4446,9.4483,9.4612,9.5109,9.5442,9.5734,9.6909,9.7888,9.8636,9.9379,10.011,10.0683,10.0872,10.0978,10.0961,10.1106,10.1154,10.1241,10.1279,10.1279,10.1279,10.1279,10.1279,10.1279,10.1279,10.1279,10.1279,10.1279,10.1279,10.1279,7.3323,7.4654,7.5995,7.7268,7.8391,7.9191,7.9691,8.0048,8.0471,8.0648,8.0716,8.1021,8.1359,8.1731,8.1765,8.2171,8.278,8.2881,8.305,8.3396,8.3761,8.3667,8.3498,8.3828,8.3964,8.3998,8.4377,8.4546,8.4546,8.458,8.458,8.458,8.458,8.458,8.458,8.458,8.458,8.458,8.458,8.458,8.458,8.458,8.458,8.458,8.458,8.458,8.458,8.458,8.48,8.5247,8.5788,8.6459,8.7324,8.8245,8.917,9.0033,9.0681,9.1187,9.1471,9.1694,9.1987,9.2281,9.2354,9.2537,9.2794,9.2868,9.3161,9.3492,9.3602,9.3859,9.4226,9.4612,9.4777,9.485,9.5107,9.4997,9.441,9.4226,9.4299,9.4373,9.4593,9.4813,9.4813,9.507,9.5254,9.5364,9.5474,9.5714,9.6066,9.6345,9.6781,9.7759,9.8661,9.9306,9.9885,10.0562,10.0929,10.1188,10.1248,10.1279,10.1279,10.1279,10.1279,10.1279,10.1279,10.1279,10.1279,10.1279,10.1279,10.1279,10.1279,10.1279,10.1279,10.1279,10.1279,7.3722,7.5036,7.6565,7.7845,7.8962,7.9663,8.0149,8.0454,8.1088,8.1393,8.1528,8.2103,8.2306,8.2509,8.2509,8.2915,8.3592,8.3625,8.3937,8.4275,8.4478,8.4411,8.4377,8.4377,8.4444,8.4478,8.458,8.458,8.458,8.458,8.458,8.458,8.458,8.458,8.458,8.458,8.458,8.458,8.458,8.458,8.458,8.458,8.458,8.458,8.458,8.458,8.4647,8.4742,8.5022,8.5573,8.6001,8.6681,8.7667,8.8641,8.9693,9.0527,9.1238,9.1757,9.1856,9.2244,9.2464,9.3088,9.3235,9.3492,9.3932,9.4006,9.4116,9.441,9.4428,9.4556,9.4813,9.5273,9.5547,9.5694,9.6245,9.5878,9.496,9.4556,9.4556,9.4593,9.5254,9.5547,9.5804,9.6208,9.6649,9.6061,9.6191,9.6303,9.6621,9.6934,9.7466,9.8284,9.9064,9.9843,10.0347,10.0897,10.1078,10.1278,10.1288,10.1279,10.1279,10.1279,10.1279,10.1279,10.1279,10.1279,10.1279,10.1279,10.1279,10.1279,10.1279,10.1279,10.1279,10.1279,10.1279,7.4175,7.565,7.7185,7.8364,7.9377,8.0477,8.1003,8.1122,8.1866,8.2171,8.2205,8.2374,8.278,8.3253,8.3287,8.3659,8.4242,8.4302,8.4478,8.4546,8.458,8.458,8.458,8.458,8.458,8.458,8.458,8.458,8.458,8.458,8.458,8.458,8.458,8.458,8.458,8.458,8.458,8.458,8.458,8.458,8.458,8.458,8.4614,8.4647,8.4647,8.4614,8.4749,8.5215,8.5708,8.5978,8.6123,8.6641,8.7723,8.904,9.0323,9.1372,9.2427,9.3204,9.3581,9.3601,9.3786,9.3969,9.4042,9.4079,9.4226,9.441,9.4666,9.5034,9.5254,9.5474,9.5914,9.6245,9.6355,9.6392,9.6539,9.6575,9.6245,9.6135,9.6025,9.6135,9.6245,9.6428,9.6392,9.6465,9.6722,9.6722,9.6743,9.68,9.7082,9.7465,9.8067,9.8692,9.9382,10.0076,10.0539,10.0983,10.1149,10.1298,10.1269,10.1279,10.1279,10.1279,10.1279,10.1279,10.1279,10.1279,10.1279,10.1279,10.1279,10.1279,10.1279,10.1279,10.1279,10.1279,10.1279,7.4445,7.5884,7.7904,7.9195,8.0077,8.1262,8.1799,8.1968,8.2611,8.2915,8.3016,8.3253,8.3659,8.3998,8.4031,8.4268,8.4512,8.458,8.458,8.458,8.458,8.458,8.458,8.458,8.458,8.458,8.458,8.458,8.458,8.458,8.458,8.458,8.458,8.458,8.458,8.458,8.458,8.458,8.458,8.458,8.458,8.458,8.4877,8.5114,8.5215,8.5283,8.5757,8.6095,8.6379,8.652,8.6692,8.7269,8.8442,8.9797,9.1088,9.2285,9.3068,9.3808,9.415,9.4336,9.441,9.485,9.485,9.5107,9.529,9.5437,9.5584,9.5951,9.6098,9.6282,9.6649,9.6685,9.6722,9.6722,9.6722,9.6722,9.6722,9.6722,9.6722,9.6722,9.6649,9.6649,9.6685,9.6722,9.6722,9.6722,9.6857,9.6951,9.732,9.7763,9.8375,9.9028,9.9658,10.0288,10.0726,10.1074,10.1228,10.1298,10.1279,10.1279,10.1279,10.1279,10.1279,10.1279,10.1279,10.1279,10.1279,10.1279,10.1279,10.1279,10.1279,10.1279,10.1279,10.1279,10.1279,7.4689,7.6073,7.8562,7.9988,8.0807,8.2004,8.2577,8.2678,8.3355,8.3659,8.3761,8.4343,8.4411,8.4546,8.4546,8.458,8.458,8.458,8.458,8.458,8.458,8.458,8.458,8.458,8.458,8.458,8.458,8.458,8.458,8.458,8.458,8.458,8.458,8.458,8.458,8.458,8.458,8.458,8.458,8.458,8.4681,8.4749,8.5249,8.5824,8.596,8.6163,8.6602,8.6941,8.7076,8.7103,8.7714,8.8717,8.9811,9.0811,9.1902,9.3086,9.3776,9.4429,9.4866,9.4887,9.5107,9.5639,9.5675,9.5951,9.6428,9.6502,9.6502,9.6539,9.6612,9.6612,9.6722,9.6722,9.6722,9.6722,9.6722,9.6722,9.6722,9.6722,9.6722,9.6722,9.6722,9.6722,9.6722,9.6722,9.6722,9.676,9.6914,9.7138,9.7535,9.805,9.8677,9.9334,9.9961,10.0516,10.0972,10.1088,10.1288,10.1308,10.1279,10.1279,10.1279,10.1279,10.1279,10.1279,10.1279,10.1279,10.1279,10.1279,10.1279,10.1279,10.1279,10.1279,10.1279,10.1279,10.1279,7.4971,7.6808,7.8759,8.0287,8.1518,8.278,8.3321,8.3456,8.4039,8.4377,8.4411,8.4546,8.458,8.458,8.458,8.458,8.458,8.458,8.458,8.458,8.458,8.458,8.458,8.458,8.458,8.458,8.458,8.458,8.458,8.458,8.458,8.458,8.458,8.458,8.458,8.458,8.458,8.4647,8.4681,8.4715,8.4817,8.5317,8.5926,8.6636,8.6738,8.6873,8.7076,8.7516,8.782,8.7909,8.8974,9.0058,9.0901,9.1562,9.2554,9.3829,9.4867,9.5469,9.5911,9.6171,9.6318,9.6465,9.6428,9.6465,9.6649,9.6722,9.6722,9.6722,9.6722,9.6722,9.6722,9.6722,9.6722,9.6722,9.6722,9.6722,9.6722,9.6722,9.6722,9.6722,9.6722,9.6722,9.6722,9.6741,9.6724,9.6819,9.7026,9.7284,9.7658,9.8282,9.8938,9.9601,10.0251,10.0748,10.119,10.121,10.1279,10.1269,10.1279,10.1279,10.1279,10.1279,10.1279,10.1279,10.1279,10.1279,10.1279,10.1279,10.1279,10.1279,10.1279,10.1279,10.1279,10.1279,10.1279,7.5439,7.7297,7.9696,8.1285,8.2288,8.3556,8.4065,8.4133,8.4444,8.458,8.458,8.458,8.458,8.458,8.458,8.458,8.458,8.458,8.458,8.458,8.458,8.458,8.458,8.458,8.458,8.458,8.458,8.458,8.458,8.458,8.458,8.458,8.458,8.458,8.458,8.458,8.4614,8.4647,8.4952,8.5215,8.5317,8.5993,8.6704,8.7279,8.7516,8.7651,8.8057,8.8294,8.8564,8.8744,8.9457,9.0479,9.1347,9.2253,9.3236,9.4572,9.5522,9.62,9.6589,9.6722,9.6685,9.6685,9.6722,9.6722,9.6722,9.6722,9.6722,9.6722,9.6722,9.6722,9.6722,9.6722,9.6722,9.6722,9.6722,9.6722,9.6722,9.6722,9.6722,9.6722,9.6722,9.6722,9.6722,9.6741,9.6743,9.6914,9.7101,9.7483,9.7849,9.8535,9.9263,9.996,10.0554,10.088,10.123,10.1259,10.1279,10.1279,10.1279,10.1279,10.1279,10.1279,10.1279,10.1279,10.1279,10.1279,10.1279,10.1279,10.1279,10.1279,10.1279,10.1279,10.1279,10.1279,10.1279,7.6063,7.7984,8.0668,8.2244,8.3059,8.4103,8.458,8.458,8.458,8.458,8.458,8.458,8.458,8.458,8.458,8.458,8.458,8.458,8.458,8.458,8.458,8.458,8.458,8.458,8.458,8.458,8.458,8.458,8.458,8.458,8.458,8.458,8.458,8.458,8.458,8.458,8.4614,8.5012,8.5384,8.5851,8.6325,8.6805,8.7482,8.8125,8.8226,8.8463,8.8835,8.8965,8.9032,8.9172,8.9683,9.0441,9.1435,9.2497,9.3725,9.5014,9.5699,9.62,9.657,9.6722,9.6722,9.6722,9.6722,9.6722,9.6722,9.6722,9.6722,9.6722,9.6722,9.6722,9.6722,9.6722,9.6722,9.6722,9.6722,9.6722,9.6722,9.6722,9.6722,9.6722,9.6722,9.6741,9.6741,9.6819,9.6876,9.7138,9.7357,9.7884,9.8282,9.8953,9.9642,10.0288,10.082,10.1078,10.125,10.1269,10.1279,10.1279,10.1279,10.1279,10.1279,10.1279,10.1279,10.1279,10.1279,10.1279,10.1279,10.1279,10.1279,10.1279,10.1279,10.1279,10.1279,10.1279,10.1279,7.6874,7.9371,8.1096,8.2511,8.3628,8.4332,8.458,8.458,8.458,8.458,8.458,8.458,8.458,8.458,8.458,8.458,8.458,8.458,8.458,8.458,8.458,8.458,8.458,8.458,8.458,8.458,8.458,8.458,8.458,8.458,8.458,8.458,8.458,8.4647,8.4749,8.4783,8.4952,8.552,8.579,8.6467,8.7482,8.7786,8.826,8.8728,8.8931,8.8965,8.91,8.9134,8.9134,8.9156,8.9689,9.0361,9.1273,9.2435,9.3692,9.4799,9.5617,9.62,9.6589,9.6722,9.6722,9.6722,9.6722,9.6722,9.6722,9.6722,9.6722,9.6722,9.6722,9.6722,9.6722,9.6722,9.6722,9.6722,9.6722,9.6722,9.6722,9.6722,9.6722,9.6722,9.6722,9.6705,9.6724,9.6876,9.7045,9.7321,9.7658,9.8184,9.877,9.9476,10.005,10.0646,10.0962,10.119,10.1259,10.1279,10.1279,10.1279,10.1279,10.1279,10.1279,10.1279,10.1279,10.1279,10.1279,10.1279,10.1279,10.1279,10.1279,10.1279,10.1279,10.1279,10.1279,10.1279,10.1279,7.7821,7.9865,8.1651,8.2916,8.3796,8.4372,8.458,8.458,8.458,8.458,8.458,8.458,8.458,8.458,8.458,8.458,8.458,8.458,8.458,8.458,8.458,8.458,8.458,8.458,8.458,8.458,8.458,8.458,8.458,8.458,8.458,8.458,8.4647,8.4884,8.5182,8.5249,8.5723,8.6332,8.6873,8.7583,8.8328,8.8632,8.8795,8.91,8.91,8.9134,8.9134,8.9134,8.9134,8.9184,8.9689,9.0361,9.1273,9.241,9.3692,9.49,9.5654,9.618,9.6608,9.6703,9.6722,9.6722,9.6722,9.6722,9.6722,9.6722,9.6722,9.6722,9.6722,9.6722,9.6722,9.6722,9.6722,9.6722,9.6722,9.6722,9.6722,9.6722,9.6722,9.6722,9.6741,9.6781,9.6895,9.7082,9.7338,9.7763,9.8184,9.8739,9.9391,10.0101,10.0577,10.1032,10.1188,10.1259,10.1269,10.1279,10.1279,10.1279,10.1279,10.1279,10.1279,10.1279,10.1279,10.1279,10.1279,10.1279,10.1279,10.1279,10.1279,10.1279,10.1279,10.1279,10.1279,10.1279,10.1279,7.8647,8.0216,8.2046,8.3187,8.3829,8.4399,8.458,8.458,8.458,8.458,8.458,8.458,8.458,8.458,8.458,8.458,8.458,8.458,8.458,8.458,8.458,8.458,8.458,8.458,8.458,8.458,8.458,8.458,8.458,8.458,8.458,8.4614,8.4918,8.5215,8.5655,8.5993,8.6433,8.7144,8.7854,8.8463,8.8937,8.9066,8.9066,8.91,8.9134,8.9134,8.9134,8.9134,8.9134,8.9184,8.9689,9.0307,9.1118,9.2337,9.3623,9.4734,9.5555,9.62,9.655,9.6722,9.6722,9.6722,9.6722,9.6722,9.6722,9.6722,9.6722,9.6722,9.6722,9.6722,9.6722,9.6722,9.6722,9.6722,9.6722,9.6722,9.6722,9.6722,9.6722,9.6722,9.6762,9.6951,9.7064,9.7302,9.7639,9.8171,9.8699,9.9263,9.9922,10.0612,10.0897,10.1208,10.1258,10.1279,10.1279,10.1279,10.1279,10.1279,10.1279,10.1279,10.1279,10.1279,10.1279,10.1279,10.1279,10.1279,10.1279,10.1279,10.1279,10.1279,10.1279,10.1279,10.1279,10.1279,10.1279,7.9191,8.0597,8.2128,8.3187,8.3829,8.4339,8.458,8.458,8.458,8.458,8.458,8.458,8.458,8.458,8.458,8.458,8.458,8.458,8.458,8.458,8.458,8.458,8.458,8.458,8.458,8.458,8.458,8.458,8.4647,8.4783,8.4681,8.4647,8.5249,8.5621,8.6163,8.6738,8.7279,8.7922,8.8564,8.8897,8.9066,8.9134,8.9134,8.9134,8.9134,8.9134,8.9134,8.9134,8.91,8.9128,8.9689,9.028,9.1066,9.2337,9.36,9.4633,9.5555,9.618,9.657,9.6722,9.6722,9.6722,9.6722,9.6722,9.6722,9.6722,9.6722,9.6722,9.6722,9.6722,9.6722,9.6722,9.6722,9.6722,9.6722,9.6722,9.6722,9.6722,9.6722,9.6722,9.6819,9.7007,9.7356,9.7604,9.8046,9.8541,9.9349,9.9909,10.0397,10.0962,10.1078,10.1268,10.125,10.1279,10.1279,10.1279,10.1279,10.1279,10.1279,10.1279,10.1279,10.1279,10.1279,10.1279,10.1279,10.1279,10.1279,10.1279,10.1279,10.1279,10.1279,10.1279,10.1279,10.1279,10.1279,7.9099,8.0631,8.2161,8.3187,8.3829,8.4372,8.458,8.458,8.458,8.458,8.458,8.458,8.458,8.458,8.458,8.458,8.458,8.458,8.458,8.458,8.458,8.458,8.458,8.458,8.458,8.458,8.458,8.458,8.4614,8.5046,8.5317,8.5486,8.579,8.6433,8.7008,8.7685,8.826,8.8531,8.8931,8.91,8.9134,8.9134,8.9134,8.9134,8.9134,8.9134,8.9134,8.9134,8.9134,8.9274,8.9717,9.0307,9.1066,9.2386,9.36,9.4712,9.5576,9.618,9.6589,9.6722,9.6722,9.6722,9.6722,9.6722,9.6722,9.6722,9.6722,9.6722,9.6722,9.6722,9.6722,9.6722,9.6722,9.6722,9.6722,9.6722,9.6722,9.6722,9.6722,9.6722,9.6876,9.7064,9.7517,9.8003,9.8477,9.899,9.979,10.0519,10.0908,10.1167,10.121,10.125,10.1269,10.1279,10.1279,10.1279,10.1279,10.1279,10.1279,10.1279,10.1279,10.1279,10.1279,10.1279,10.1279,10.1279,10.1279,10.1279,10.1279,10.1279,10.1279,10.1279,10.1279,10.1279,10.1279,7.8911,8.0511,8.2133,8.3187,8.3829,8.4399,8.458,8.458,8.458,8.458,8.458,8.458,8.458,8.458,8.458,8.458,8.458,8.458,8.458,8.458,8.458,8.458,8.458,8.458,8.458,8.458,8.4614,8.4647,8.508,8.5554,8.6027,8.6332,8.6528,8.7177,8.7753,8.8666,8.91,8.9134,8.9134,8.9134,8.9134,8.9134,8.9134,8.9134,8.9134,8.9134,8.9134,8.9134,8.9134,8.9268,8.9683,9.0388,9.129,9.241,9.3669,9.4734,9.5597,9.62,9.655,9.6722,9.6722,9.6722,9.6722,9.6722,9.6722,9.6722,9.6722,9.6722,9.6722,9.6722,9.6722,9.6722,9.6722,9.6722,9.6722,9.6722,9.6722,9.6722,9.6722,9.6741,9.6895,9.7045,9.7849,9.8397,9.9131,9.9625,10.0214,10.0798,10.1057,10.1258,10.125,10.1269,10.1279,10.1279,10.1279,10.1279,10.1279,10.1279,10.1279,10.1279,10.1279,10.1279,10.1279,10.1279,10.1279,10.1279,10.1279,10.1279,10.1279,10.1279,10.1279,10.1279,10.1279,10.1279,10.1279,7.8786,8.0208,8.2046,8.3187,8.3829,8.4366,8.458,8.458,8.458,8.458,8.458,8.458,8.458,8.458,8.458,8.458,8.458,8.458,8.458,8.458,8.458,8.458,8.458,8.458,8.458,8.458,8.4749,8.5148,8.5682,8.6061,8.6704,8.7448,8.7685,8.7888,8.8091,8.87,8.91,8.9134,8.9134,8.9134,8.9134,8.9134,8.9134,8.9134,8.9134,8.9134,8.9134,8.9134,8.9134,8.9218,8.9689,9.0395,9.1221,9.241,9.3669,9.49,9.5617,9.618,9.6628,9.6666,9.6722,9.6722,9.6722,9.6722,9.6722,9.6722,9.6722,9.6722,9.6722,9.6722,9.6722,9.6722,9.6722,9.6722,9.6722,9.6722,9.6722,9.6722,9.6722,9.676,9.6781,9.7027,9.7949,9.8823,9.9707,10.0302,10.0742,10.1025,10.1248,10.1308,10.1279,10.1279,10.1279,10.1279,10.1279,10.1279,10.1279,10.1279,10.1279,10.1279,10.1279,10.1279,10.1279,10.1279,10.1279,10.1279,10.1279,10.1279,10.1279,10.1279,10.1279,10.1279,10.1279,10.1279,10.1279,7.8911,8.0481,8.2133,8.3187,8.3829,8.4372,8.458,8.458,8.458,8.458,8.458,8.458,8.458,8.458,8.458,8.458,8.458,8.458,8.458,8.458,8.458,8.458,8.458,8.458,8.4614,8.4749,8.5046,8.5418,8.5784,8.6562,8.7313,8.7989,8.8429,8.8728,8.8795,8.9032,8.91,8.9134,8.9134,8.9134,8.9134,8.9134,8.9134,8.9134,8.9134,8.9134,8.9134,8.9134,8.9134,8.9156,8.9689,9.0395,9.1247,9.241,9.3669,9.4821,9.5617,9.62,9.655,9.6722,9.6722,9.6722,9.6722,9.6722,9.6722,9.6722,9.6722,9.6722,9.6722,9.6722,9.6722,9.6722,9.6722,9.6722,9.6722,9.6722,9.6722,9.6722,9.6741,9.6743,9.6819,9.7411,9.8204,9.893,9.9788,10.045,10.0798,10.1046,10.1268,10.1269,10.1279,10.1279,10.1279,10.1279,10.1279,10.1279,10.1279,10.1279,10.1279,10.1279,10.1279,10.1279,10.1279,10.1279,10.1279,10.1279,10.1279,10.1279,10.1279,10.1279,10.1279,10.1279,10.1279,10.1279,10.1279,7.9068,8.0631,8.2161,8.3187,8.3829,8.4372,8.458,8.458,8.458,8.458,8.458,8.458,8.458,8.458,8.458,8.458,8.458,8.458,8.458,8.458,8.458,8.458,8.458,8.4614,8.4843,8.5046,8.552,8.5987,8.6731,8.7516,8.8091,8.8463,8.8829,8.8998,8.9066,8.91,8.9134,8.9134,8.9134,8.9134,8.9134,8.9134,8.9134,8.9134,8.9134,8.9134,8.9134,8.9134,8.9134,8.9268,8.9683,9.0395,9.1299,9.241,9.3633,9.4778,9.5781,9.6299,9.6628,9.6722,9.6722,9.6722,9.6722,9.6722,9.6722,9.6722,9.6722,9.6722,9.6722,9.6722,9.6722,9.6722,9.6722,9.6722,9.6722,9.6722,9.6722,9.6722,9.6722,9.6743,9.6895,9.7607,9.8353,9.908,9.9788,10.0339,10.0847,10.1046,10.1278,10.1259,10.1279,10.1279,10.1279,10.1279,10.1279,10.1279,10.1279,10.1279,10.1279,10.1279,10.1279,10.1279,10.1279,10.1279,10.1279,10.1279,10.1279,10.1279,10.1279,10.1279,10.1279,10.1279,10.1279,10.1279,10.1279,7.9286,8.0661,8.2161,8.3187,8.3829,8.4372,8.458,8.458,8.458,8.458,8.458,8.458,8.458,8.458,8.458,8.458,8.458,8.458,8.458,8.458,8.458,8.458,8.458,8.4614,8.4979,8.5486,8.5993,8.6636,8.7786,8.8158,8.8525,8.8863,8.9032,8.9134,8.9134,8.9134,8.9134,8.9134,8.9134,8.9134,8.9134,8.9134,8.9134,8.9134,8.9134,8.9134,8.9134,8.9134,8.9134,8.9329,8.9689,9.0388,9.1325,9.241,9.3633,9.495,9.612,9.6511,9.6666,9.6722,9.6722,9.6722,9.6722,9.6722,9.6722,9.6722,9.6722,9.6722,9.6722,9.6722,9.6722,9.6722,9.6722,9.6722,9.6722,9.6722,9.6722,9.6722,9.6722,9.676,9.6818,9.7357,9.8217,9.8983,9.9683,10.0363,10.082,10.1085,10.1248,10.1269,10.1279,10.1279,10.1279,10.1279,10.1279,10.1279,10.1279,10.1279,10.1279,10.1279,10.1279,10.1279,10.1279,10.1279,10.1279,10.1279,10.1279,10.1279,10.1279,10.1279,10.1279,10.1279,10.1279,10.1279,10.1279,7.9441,8.0961,8.2248,8.3187,8.3829,8.4372,8.458,8.458,8.458,8.458,8.458,8.458,8.458,8.458,8.458,8.458,8.458,8.458,8.458,8.458,8.458,8.458,8.458,8.4647,8.5114,8.5757,8.6366,8.7042,8.7922,8.8395,8.8761,8.9066,8.91,8.9134,8.9134,8.9134,8.9134,8.9134,8.9134,8.9134,8.9134,8.9134,8.9134,8.9134,8.9134,8.9134,8.9134,8.9134,8.9134,8.9218,8.9689,9.0341,9.0944,9.2312,9.3748,9.5498,9.6335,9.6722,9.6722,9.6722,9.6722,9.6722,9.6722,9.6722,9.6722,9.6722,9.6722,9.6722,9.6722,9.6722,9.6722,9.6722,9.6722,9.6722,9.6722,9.6722,9.6722,9.6722,9.6722,9.6743,9.68,9.7339,9.8184,9.8839,9.9587,10.0288,10.082,10.1046,10.1238,10.1259,10.1279,10.1279,10.1279,10.1279,10.1279,10.1279,10.1279,10.1279,10.1279,10.1279,10.1279,10.1279,10.1279,10.1279,10.1279,10.1279,10.1279,10.1279,10.1279,10.1279,10.1279,10.1279,10.1279,10.1279,10.1279,7.9596,8.1079,8.2305,8.3299,8.4069,8.4446,8.458,8.458,8.458,8.458,8.458,8.458,8.458,8.458,8.458,8.458,8.458,8.458,8.458,8.458,8.458,8.458,8.458,8.4681,8.5317,8.6027,8.6738,8.7414,8.8226,8.8761,8.91,8.91,8.9134,8.9134,8.9134,8.9134,8.9134,8.9134,8.9134,8.9134,8.9134,8.9134,8.9134,8.9134,8.9134,8.9134,8.9134,8.9134,8.9134,8.9184,8.9689,9.0234,9.1092,9.257,9.42,9.5802,9.6414,9.6684,9.6722,9.6722,9.6722,9.6722,9.6722,9.6722,9.6722,9.6722,9.6722,9.6722,9.6722,9.6722,9.6722,9.6722,9.6722,9.6722,9.6722,9.6722,9.6722,9.6722,9.676,9.6743,9.7045,9.7499,9.8113,9.8778,9.9466,10.0189,10.0737,10.1046,10.1228,10.1259,10.1279,10.1279,10.1279,10.1279,10.1279,10.1279,10.1279,10.1279,10.1279,10.1279,10.1279,10.1279,10.1279,10.1279,10.1279,10.1279,10.1279,10.1279,10.1279,10.1279,10.1279,10.1279,10.1279,10.1279,10.1279,7.9781,8.1079,8.2395,8.3576,8.45,8.458,8.458,8.458,8.458,8.458,8.458,8.458,8.458,8.458,8.458,8.458,8.458,8.458,8.458,8.458,8.458,8.458,8.458,8.4681,8.5425,8.6338,8.711,8.7583,8.8694,8.9134,8.9134,8.9134,8.9134,8.9134,8.9134,8.9134,8.9134,8.9134,8.9134,8.9134,8.9134,8.9134,8.9134,8.9134,8.9134,8.9134,8.9134,8.9134,8.9134,8.9295,8.9655,9.0234,9.1689,9.3121,9.4763,9.5761,9.6433,9.6628,9.6722,9.6722,9.6722,9.6722,9.6722,9.6722,9.6722,9.6722,9.6722,9.6722,9.6722,9.6722,9.6722,9.6722,9.6722,9.6722,9.6722,9.6722,9.6722,9.6722,9.6741,9.6781,9.7063,9.7536,9.805,9.8686,9.9438,10.0151,10.0703,10.1036,10.1208,10.1288,10.1269,10.1269,10.1279,10.1279,10.1279,10.1279,10.1279,10.1279,10.1279,10.1279,10.1279,10.1279,10.1279,10.1279,10.1279,10.1279,10.1279,10.1279,10.1279,10.1279,10.1279,10.1279,10.1279,10.1279,10.1279,7.9781,8.1139,8.285,8.3993,8.4553,8.458,8.458,8.458,8.458,8.458,8.458,8.458,8.458,8.458,8.458,8.458,8.458,8.458,8.458,8.458,8.458,8.458,8.458,8.4647,8.5527,8.6406,8.7144,8.7753,8.8795,8.9134,8.9134,8.9134,8.9134,8.9134,8.9134,8.9134,8.9134,8.9134,8.9134,8.9134,8.9134,8.9134,8.9134,8.9134,8.9134,8.9134,8.9134,8.9134,8.9134,8.9184,8.9689,9.0857,9.2532,9.3862,9.4993,9.5899,9.6433,9.6628,9.6722,9.6722,9.6722,9.6722,9.6722,9.6722,9.6722,9.6722,9.6722,9.6722,9.6722,9.6722,9.6722,9.6722,9.6722,9.6722,9.6722,9.6722,9.6722,9.6722,9.6722,9.6894,9.7119,9.7536,9.8033,9.8655,9.941,10.0063,10.0658,10.1053,10.1157,10.1248,10.125,10.1259,10.1279,10.1279,10.1279,10.1279,10.1279,10.1279,10.1279,10.1279,10.1279,10.1279,10.1279,10.1279,10.1279,10.1279,10.1279,10.1279,10.1279,10.1279,10.1279,10.1279,10.1279,10.1279,10.1279,7.9658,8.1201,8.3019,8.4129,8.4526,8.458,8.458,8.458,8.458,8.458,8.458,8.458,8.458,8.458,8.458,8.458,8.458,8.458,8.458,8.458,8.458,8.458,8.458,8.4647,8.5628,8.6575,8.7617,8.8429,8.9032,8.9134,8.9134,8.9134,8.9134,8.9134,8.9134,8.9134,8.9134,8.9134,8.9134,8.9134,8.9134,8.9134,8.9134,8.9134,8.9134,8.9134,8.9134,8.9134,8.9134,8.9434,9.0037,9.1316,9.2847,9.4124,9.51,9.5879,9.6394,9.6722,9.6722,9.6722,9.6722,9.6722,9.6722,9.6722,9.6722,9.6722,9.6722,9.6722,9.6722,9.6722,9.6722,9.6722,9.6722,9.6722,9.6722,9.6722,9.6722,9.6722,9.6722,9.678,9.7045,9.7429,9.7966,9.8583,9.932,9.9896,10.0519,10.0913,10.1053,10.1188,10.1238,10.124,10.1298,10.1279,10.1279,10.1279,10.1279,10.1279,10.1279,10.1279,10.1279,10.1279,10.1279,10.1279,10.1279,10.1279,10.1279,10.1279,10.1279,10.1279,10.1279,10.1279,10.1279,10.1279,10.1279,7.9596,8.1375,8.3103,8.4129,8.4587,8.458,8.458,8.458,8.458,8.458,8.458,8.458,8.458,8.458,8.458,8.458,8.458,8.458,8.458,8.458,8.458,8.458,8.458,8.4681,8.5662,8.6907,8.8158,8.866,8.91,8.9134,8.9134,8.9134,8.9134,8.9134,8.9134,8.9134,8.9134,8.9134,8.9134,8.9134,8.9134,8.9134,8.9134,8.9134,8.9134,8.9134,8.9134,8.9134,8.9134,8.9628,9.0353,9.1739,9.3038,9.4316,9.5142,9.5919,9.6453,9.6647,9.6722,9.6722,9.6722,9.6722,9.6722,9.6722,9.6722,9.6722,9.6722,9.6722,9.6722,9.6722,9.6722,9.6722,9.6722,9.6722,9.6722,9.6722,9.6722,9.6722,9.6722,9.6722,9.7026,9.7375,9.7884,9.8509,9.9087,9.9696,10.0189,10.0542,10.0842,10.1053,10.1157,10.1228,10.1278,10.1298,10.1279,10.1279,10.1279,10.1279,10.1279,10.1279,10.1279,10.1279,10.1279,10.1279,10.1279,10.1279,10.1279,10.1279,10.1279,10.1279,10.1279,10.1279,10.1279,10.1279,10.1279,8.0085,8.2534,8.3438,8.4129,8.4526,8.458,8.458,8.458,8.458,8.458,8.458,8.458,8.458,8.458,8.458,8.458,8.458,8.458,8.458,8.458,8.458,8.458,8.4715,8.4952,8.5628,8.6907,8.826,8.8965,8.9134,8.9134,8.9134,8.9134,8.9134,8.9134,8.9134,8.9134,8.9134,8.9134,8.9134,8.9134,8.9134,8.9134,8.9134,8.9134,8.9134,8.9134,8.9134,8.9134,8.9134,8.9545,9.0487,9.1915,9.3227,9.4405,9.5284,9.5939,9.6453,9.6628,9.6722,9.6722,9.6722,9.6722,9.6722,9.6722,9.6722,9.6722,9.6722,9.6722,9.6722,9.6722,9.6722,9.6722,9.6722,9.6722,9.6722,9.6722,9.6722,9.6722,9.6722,9.6799,9.6914,9.723,9.7553,9.815,9.8714,9.9291,9.9855,10.0189,10.0533,10.0775,10.1064,10.1167,10.1248,10.1298,10.1279,10.1279,10.1279,10.1279,10.1279,10.1279,10.1279,10.1279,10.1279,10.1279,10.1279,10.1279,10.1279,10.1279,10.1279,10.1279,10.1279,10.1279,10.1279,10.1289,10.1289]}]]